GFSSE_500_spd_000.txt.gz
Wind_Speed
15 16 17 16 16 16 15 17 18 18 17 16 14 12 11 9 10 10 13 13 14 15 16 18 19 20 21 21 20 21 21 20 22 23 23 23 24 23 24 25 24 23 20
15 15 17 18 18 17 16 16 18 18 17 15 14 12 10 9 9 12 12 13 14 15 16 18 19 20 22 23 23 23 23 23 23 24 25 27 27 28 29 28 26 24 23
17 16 17 19 19 17 18 17 17 16 16 14 13 11 9 9 10 11 13 14 15 16 16 17 17 18 19 19 20 21 22 24 26 26 27 30 32 33 32 31 29 27 26
22 19 20 21 20 19 18 17 15 15 13 12 10 10 9 9 10 10 11 13 16 18 19 19 18 19 19 19 21 22 23 25 27 28 29 31 32 35 35 33 32 30 30
21 19 21 22 21 19 17 16 15 14 12 11 10 10 9 10 10 11 13 12 11 13 17 19 20 20 21 22 23 24 25 28 29 30 31 32 32 32 34 34 34 33 33
22 19 22 23 22 18 16 15 14 14 12 10 9 9 9 10 11 11 13 14 15 16 15 16 19 22 24 23 23 25 24 25 27 27 28 29 30 30 31 31 32 32 32
22 20 23 23 21 17 15 15 15 14 12 9 9 8 9 10 11 11 13 15 16 18 19 21 23 24 25 26 27 28 29 30 31 32 32 31 32 31 31 32 32 31 30
19 19 21 21 20 18 16 16 16 16 14 11 9 8 7 7 8 7 8 11 14 17 18 20 22 24 26 28 29 30 30 33 33 34 35 35 35 35 35 35 35 35 34
18 18 19 19 20 19 18 18 17 17 16 13 11 10 8 6 7 8 10 11 12 15 17 18 20 21 22 23 24 25 26 28 30 32 34 36 37 37 38 38 37 37 37
17 18 19 19 19 20 20 20 19 19 18 16 15 14 13 12 12 13 16 17 19 22 23 23 25 26 27 28 28 28 28 29 31 32 33 34 35 37 37 37 38 39 40
17 18 20 19 17 19 21 21 21 20 20 19 18 17 16 15 14 16 19 22 26 29 32 32 31 31 32 31 31 31 32 33 35 36 37 38 37 37 38 38 40 41 42
20 20 21 22 20 20 21 21 23 22 23 23 22 21 19 18 17 19 22 25 29 31 32 35 36 35 36 35 33 33 33 33 33 34 34 34 35 37 39 39 39 39 39
24 21 24 25 24 24 22 21 22 24 24 26 27 25 22 21 21 22 25 28 32 34 35 38 36 34 35 34 33 32 31 31 32 33 33 31 31 31 32 34 35 35 35
26 25 25 25 28 27 23 20 19 21 25 26 28 29 27 23 23 25 28 30 34 36 35 31 26 25 25 27 29 30 30 33 34 35 35 35 34 34 34 35 35 36 37
25 27 27 28 30 28 25 21 20 20 23 25 28 29 28 26 27 28 31 33 34 34 31 26 23 25 26 27 28 31 34 35 36 36 36 36 36 36 37 38 38 39 41
26 28 29 30 32 30 28 24 23 22 23 23 25 27 28 29 29 32 32 34 33 33 28 26 26 28 30 31 34 36 37 39 40 40 38 37 37 38 39 40 41 42 43
28 30 29 29 32 30 29 26 25 25 22 22 23 23 24 28 29 30 30 32 33 31 28 27 28 30 34 36 39 41 43 43 43 41 39 39 39 40 41 42 43 44 44
29 29 30 31 31 30 28 27 27 28 23 23 21 20 22 24 26 27 31 32 33 32 31 29 31 34 37 40 43 45 45 45 43 40 38 38 40 41 42 44 45 46 46
32 30 29 31 31 30 28 28 29 29 26 24 21 21 21 23 24 27 31 32 32 29 29 31 33 37 40 41 43 43 41 37 36 37 38 40 41 42 44 46 48 50 52
35 33 31 32 31 29 30 28 29 30 27 22 21 21 22 23 26 29 32 30 27 28 32 34 37 37 38 41 40 36 34 36 38 40 41 42 44 46 49 51 52 54 56
35 35 32 31 31 29 30 30 31 31 28 23 23 22 23 24 28 29 29 27 28 32 35 37 37 39 40 39 35 37 38 40 41 42 44 46 50 52 54 56 58 59 61
36 36 33 31 33 31 30 29 29 27 27 26 24 25 25 27 30 31 31 32 33 36 39 38 39 41 42 38 37 37 39 42 45 47 49 51 54 56 58 61 62 64 65
38 36 36 33 34 35 30 29 27 27 30 29 27 29 29 30 32 34 35 37 37 40 41 40 42 43 42 41 41 41 43 43 45 46 50 55 57 61 62 62 63 63 62
39 36 37 36 35 36 32 28 29 29 29 31 31 33 34 35 36 38 40 41 42 43 42 42 43 42 41 42 45 48 50 53 54 54 53 56 58 59 60 60 59 60 63
39 37 38 38 36 33 33 31 32 31 31 31 32 35 37 38 40 42 43 44 45 43 43 44 43 41 43 45 48 51 54 58 62 63 61 57 60 61 60 60 62 64 66
40 38 38 38 38 35 32 33 35 34 33 34 35 37 38 41 43 44 45 46 45 43 44 43 43 44 47 50 54 57 60 63 65 65 63 64 65 64 64 64 65 68 72

GFSSE_500_spd_003.txt.gz
Wind_Speed
15 13 14 15 14 13 13 13 12 13 13 12 12 11 10 9 8 7 7 8 10 12 13 14 16 19 20 21 21 21 20 21 21 21 21 21 22 23 24 25 25 25 24
15 14 16 17 16 14 14 14 14 14 13 12 11 10 10 8 7 7 8 8 11 12 12 14 16 18 18 20 21 22 22 22 22 22 22 23 24 25 26 28 28 29 27
17 15 17 18 17 15 14 14 15 14 13 12 11 10 9 8 7 7 9 9 11 11 14 15 16 17 17 18 18 18 18 20 21 23 24 25 26 28 30 30 31 30 29
19 18 17 18 17 14 14 15 15 13 11 11 10 10 8 7 8 9 9 8 10 14 17 17 18 18 18 18 19 19 19 21 23 25 26 27 27 28 29 29 29 30 30
21 21 20 20 17 14 14 14 13 12 10 9 10 10 9 7 8 9 11 11 10 9 9 12 17 19 19 20 21 22 23 23 24 26 25 26 25 26 26 27 28 29 29
25 22 23 23 21 14 14 14 13 11 10 10 10 10 9 7 7 8 10 12 12 13 14 15 16 17 18 19 21 23 24 25 25 26 27 28 29 29 29 30 30 30 29
28 28 23 25 21 15 15 15 13 12 11 10 10 10 9 8 9 9 10 10 11 13 15 17 18 20 21 22 22 24 26 27 29 30 31 32 32 32 33 34 34 33 32
26 22 22 23 21 17 16 17 16 13 12 11 12 10 9 9 9 8 7 6 6 7 9 11 14 15 17 19 20 20 21 22 23 25 27 28 30 32 34 34 35 36 35
25 23 23 22 20 18 17 18 18 17 15 14 13 12 11 11 10 8 9 10 12 13 14 17 18 20 21 21 22 23 23 25 24 25 27 28 30 32 33 34 34 36 36
22 23 22 22 22 19 18 18 19 18 17 16 16 15 14 15 14 13 13 13 15 20 23 25 27 28 29 28 28 28 27 27 27 27 29 31 32 34 36 36 36 36 37
22 23 23 24 22 20 19 19 18 20 19 19 18 18 18 18 19 18 17 16 17 22 24 26 28 32 34 32 32 31 30 29 29 29 28 29 30 31 33 33 35 37 36
25 26 24 25 23 22 22 22 21 18 22 22 21 21 21 20 22 22 20 20 19 25 27 28 32 34 28 26 27 27 29 29 29 28 28 28 29 29 30 29 30 31 32
27 27 27 28 27 24 27 25 24 21 21 25 24 24 24 25 24 23 22 21 22 27 27 31 34 28 21 19 19 19 21 23 25 27 28 29 30 31 31 31 31 31 31
29 29 30 30 29 28 29 29 25 22 22 24 27 27 27 27 28 26 23 22 24 28 29 33 33 24 20 22 21 20 21 23 27 30 32 34 37 37 36 36 35 35 35
29 32 32 32 32 32 31 31 27 23 23 24 27 28 26 28 28 26 25 25 27 30 32 33 32 26 23 24 24 26 28 30 33 36 37 38 39 38 38 36 36 37 37
32 31 33 33 33 34 33 32 29 27 26 27 27 28 26 26 27 26 26 28 31 32 33 33 31 26 26 28 28 32 33 36 39 42 43 43 41 39 38 38 38 38 39
33 33 34 34 33 32 33 33 33 32 30 28 28 27 25 25 25 25 26 29 30 32 33 32 30 29 28 31 32 35 39 39 40 41 42 39 36 35 35 37 39 40 41
34 35 35 35 33 33 34 35 37 35 31 29 29 28 24 24 23 25 25 27 29 32 32 31 30 28 30 33 36 38 38 40 40 35 32 32 34 35 37 39 40 41 42
40 36 37 35 32 32 36 37 38 35 31 29 29 30 25 25 24 25 25 27 29 32 32 29 28 29 32 35 37 37 40 39 36 32 34 36 38 39 40 42 44 46 48
41 41 40 37 35 34 37 39 39 36 31 30 29 30 25 27 24 25 25 28 29 32 30 29 29 31 35 38 37 39 40 38 36 36 37 40 42 44 47 49 51 52 54
31 41 43 38 36 36 39 40 38 36 32 30 29 27 28 26 26 25 26 27 29 31 31 32 34 35 37 36 39 40 39 38 37 39 41 44 47 49 51 53 55 57 57
34 37 43 42 40 39 40 41 36 34 32 29 27 31 30 28 28 27 28 29 32 33 35 37 39 40 39 39 39 38 38 39 40 42 45 48 51 53 57 59 60 60 60
38 37 39 42 41 41 40 38 35 32 32 29 29 32 32 31 31 32 32 33 35 37 39 41 43 44 43 42 42 42 40 39 40 43 47 51 54 57 61 63 62 63 64
39 38 37 42 40 40 41 35 34 34 33 32 30 32 35 35 36 37 38 38 40 41 43 45 47 46 45 45 45 44 44 45 46 46 47 50 54 59 60 62 64 64 64
40 40 37 41 42 40 38 35 33 36 34 33 33 34 35 37 38 40 39 41 43 44 47 49 49 48 47 46 45 46 48 50 53 55 55 55 58 60 64 65 65 63 63
41 41 39 38 41 40 37 35 36 35 36 36 35 37 38 37 39 40 40 42 44 47 50 51 49 49 47 46 47 49 51 54 56 60 62 63 63 63 65 66 65 65 67

GFSSE_500_spd_006.txt.gz
Wind_Speed
15 15 15 16 18 16 14 11 10 10 10 10 10 9 9 10 10 9 8 8 9 10 11 13 14 15 16 16 18 19 20 20 21 21 21 21 21 21 22 23 24 25 25
18 15 17 16 16 17 17 15 12 12 12 11 10 10 9 10 11 10 10 9 9 11 13 15 15 16 17 18 18 18 20 20 21 22 22 23 23 22 24 25 26 29 30
17 17 16 18 18 17 18 16 14 13 14 13 11 9 10 11 11 11 11 12 12 13 14 16 17 17 17 17 18 17 18 18 18 19 20 21 22 24 25 26 27 28 28
20 17 17 17 19 17 17 17 16 15 14 13 12 11 10 11 12 12 12 12 13 15 17 17 17 18 18 18 19 19 19 20 21 21 22 23 24 25 25 27 26 27 27
19 21 19 18 17 17 17 17 15 15 14 13 12 10 11 11 12 12 12 13 14 12 12 12 13 15 17 18 18 20 21 22 22 22 22 22 22 23 24 25 26 27 28
21 24 22 20 21 20 17 16 14 14 15 14 13 12 12 11 11 11 12 13 13 14 15 15 15 16 16 18 19 21 22 23 24 25 25 26 27 28 29 29 30 30 32
29 26 28 29 28 26 17 15 14 14 14 14 13 13 12 12 11 11 11 12 12 13 14 15 15 16 16 17 17 19 21 22 24 23 24 24 24 27 29 29 30 31 32
26 29 25 25 26 24 18 16 16 15 15 15 15 15 14 13 13 13 12 11 10 10 8 9 11 12 14 16 17 19 20 20 21 21 21 22 23 24 27 28 30 31 33
27 26 25 25 26 23 18 18 18 16 16 16 16 17 16 16 15 14 13 12 11 11 13 14 19 21 23 25 26 27 27 26 25 25 25 26 26 27 30 31 33 34 35
27 25 27 28 26 23 20 19 19 18 18 17 17 18 19 19 18 18 17 16 15 15 16 21 21 24 23 28 30 31 30 30 29 27 27 27 26 26 27 29 31 32 33
28 27 28 29 27 23 22 20 20 18 20 21 19 19 20 21 21 21 20 20 19 19 18 19 24 24 26 27 24 23 24 25 26 26 26 25 26 27 29 29 30 30 29
29 27 28 30 29 26 24 23 24 22 20 20 22 22 23 24 24 23 23 23 22 22 21 21 24 25 28 24 17 15 16 17 20 21 24 24 27 28 28 28 29 31 31
32 31 29 31 30 29 27 26 27 26 24 23 23 25 26 27 27 27 26 27 27 24 24 24 26 28 28 26 18 16 18 18 19 20 23 27 29 30 32 33 35 35 33
36 32 31 33 33 32 32 31 29 29 28 25 26 26 29 29 29 29 31 30 28 26 25 25 28 30 30 29 24 21 22 22 24 27 29 31 34 37 38 40 41 39 37
37 35 34 34 36 36 36 35 33 30 30 29 27 28 28 30 30 29 32 32 30 30 28 28 31 32 32 31 27 26 27 28 29 31 34 37 39 41 41 40 40 40 39
38 38 36 35 35 38 39 38 36 34 35 33 28 28 29 29 29 30 32 32 32 31 29 31 33 33 33 33 30 30 30 31 32 36 36 38 41 40 39 36 33 33 34
39 40 39 37 36 36 36 36 36 37 38 35 30 28 29 31 31 31 32 31 32 31 31 32 32 34 34 34 32 31 31 34 36 34 38 40 39 37 34 33 35 36 37
43 40 40 38 37 38 36 35 36 37 39 36 33 33 31 34 33 31 32 32 32 32 31 31 33 34 36 33 31 32 34 35 35 37 40 40 37 36 36 37 39 40 41
42 46 43 40 39 40 38 36 36 39 40 37 36 35 33 34 34 33 33 33 33 32 31 31 32 35 34 32 33 34 37 38 38 39 40 40 38 39 40 42 43 45 48
39 40 48 45 43 42 39 38 37 38 39 38 37 36 35 34 35 35 34 33 32 30 30 31 31 32 32 35 37 39 40 40 41 42 42 42 41 42 44 47 49 51 52
43 39 37 48 48 45 41 40 40 39 40 39 37 36 35 33 35 37 34 31 30 31 31 31 33 35 36 38 41 42 44 43 43 44 44 44 46 47 49 51 53 54 55
46 42 39 40 49 48 43 44 41 41 41 38 35 34 35 33 36 37 34 33 33 33 34 35 36 38 40 42 43 47 48 47 46 46 46 48 49 51 53 55 57 59 60
48 47 43 40 46 50 45 44 43 41 41 37 36 35 35 34 35 38 37 36 37 38 39 39 41 42 43 45 47 48 48 48 47 48 48 50 53 55 58 60 62 64 66
46 50 43 43 45 46 48 46 42 43 39 36 37 36 37 35 35 39 40 40 41 42 44 44 44 45 47 49 50 52 52 50 49 48 47 51 54 57 60 62 64 68 70
47 46 43 43 46 44 47 47 43 41 37 37 37 37 38 38 37 38 41 43 44 45 46 47 47 47 50 51 54 53 51 51 52 51 51 54 57 59 60 63 68 69 71
48 45 42 44 45 44 45 44 42 38 37 38 36 38 40 39 39 40 42 42 44 46 47 48 48 50 52 54 53 53 52 52 53 55 58 59 59 59 64 66 68 72 74

GFSSE_500_spd_009.txt.gz
Wind_Speed
18 18 19 18 18 21 20 19 17 15 14 12 12 13 12 12 12 12 10 9 10 11 12 13 12 13 14 15 16 16 16 17 18 18 18 19 20 20 20 20 22 22 24
19 19 19 20 19 19 21 22 22 20 17 15 14 13 13 12 13 12 11 11 11 12 13 14 14 14 15 16 17 18 17 17 18 18 19 20 20 22 22 23 23 24 26
21 19 17 18 19 20 19 20 20 20 19 17 16 14 13 13 12 12 13 13 13 15 15 15 16 17 17 18 18 18 17 18 18 18 19 19 20 21 22 23 25 26 25
24 23 19 16 16 18 19 19 19 19 20 18 16 16 14 12 12 13 14 15 15 16 17 17 18 18 18 18 19 18 19 19 20 20 21 22 23 23 24 25 26 24 24
23 23 22 18 15 17 17 19 19 19 19 17 17 15 15 14 13 14 16 16 17 16 15 14 14 16 15 15 16 17 19 20 21 22 22 22 23 24 23 25 25 27 28
19 22 23 22 21 19 20 18 19 20 19 18 17 17 16 15 15 15 16 15 16 17 17 17 17 17 17 16 17 18 20 22 22 23 24 25 26 27 27 28 28 28 29
23 21 25 27 27 25 27 24 21 20 18 18 18 17 16 15 15 16 16 16 15 15 16 16 16 15 15 15 15 16 17 19 20 20 21 21 22 23 23 24 25 26 28
27 28 30 29 27 27 28 24 21 21 18 17 18 18 17 16 16 16 17 16 15 15 14 14 13 12 13 15 18 20 23 23 24 23 24 23 25 24 24 26 28 28 29
30 31 30 28 26 28 25 22 20 19 18 18 18 19 19 18 18 17 17 16 14 14 14 15 17 18 20 22 23 26 31 32 31 29 29 27 27 26 25 26 27 26 28
30 31 29 27 27 28 25 22 21 20 17 17 18 20 22 21 21 19 19 19 18 19 19 19 20 22 22 24 23 25 25 24 29 31 30 30 28 27 26 26 26 28 28
31 30 30 29 28 28 26 24 23 22 19 18 18 20 22 23 24 22 22 23 23 23 24 23 22 23 23 24 24 24 20 17 19 22 22 25 25 25 25 26 28 29 28
34 33 32 30 29 28 27 25 25 25 24 22 20 19 21 23 25 26 25 26 27 28 28 27 26 25 24 26 27 26 22 18 16 17 17 19 21 22 24 26 29 30 31
35 35 35 32 29 30 29 28 28 27 27 27 26 24 25 25 26 27 29 30 30 31 31 30 28 28 27 29 30 28 27 24 21 21 22 22 24 26 28 30 33 34 37
37 36 36 35 34 32 31 31 31 30 28 29 30 30 29 28 27 29 31 33 35 35 33 32 32 30 28 32 32 31 29 29 27 26 26 27 28 30 33 35 37 37 38
37 37 38 38 36 36 35 35 35 35 32 32 33 33 30 28 26 26 30 33 35 37 38 37 36 34 31 35 34 35 32 31 31 30 29 30 33 35 35 39 38 38 38
40 38 39 39 38 38 37 38 37 38 37 36 36 37 33 29 27 27 29 32 35 36 37 38 38 35 33 36 35 36 35 34 34 33 32 34 34 35 39 39 37 37 35
40 41 39 39 39 38 38 39 38 38 38 37 37 37 35 32 32 30 31 34 36 37 37 37 36 36 36 36 36 37 37 35 33 33 35 35 36 38 39 40 38 36 37
37 40 43 40 40 40 40 39 39 38 38 37 36 36 35 33 34 34 34 36 36 37 37 37 38 37 36 36 36 37 38 33 35 35 37 39 39 40 42 42 40 39 40
36 38 40 45 43 41 41 41 41 40 39 38 37 37 37 35 36 36 37 36 37 37 37 38 38 36 36 35 34 34 34 35 37 38 39 41 43 43 44 43 44 43 44
37 38 36 40 44 46 43 43 43 43 41 38 37 36 37 36 36 39 39 37 38 38 38 39 37 35 34 33 33 35 36 38 40 41 42 44 45 47 47 47 46 47 48
41 40 41 38 41 41 47 46 45 44 43 41 39 35 37 36 38 40 40 38 39 39 39 37 36 36 36 36 36 38 40 43 43 45 46 48 49 49 50 50 50 50 52
45 44 44 43 42 40 40 49 52 48 46 43 40 37 39 38 38 39 39 39 40 40 40 39 40 39 40 41 41 42 43 46 49 50 51 53 53 52 52 53 53 54 57
50 47 46 44 46 42 41 47 50 51 45 43 42 41 41 40 39 38 38 39 40 40 43 43 44 45 45 47 46 46 47 48 50 52 53 54 55 54 54 55 57 60 62
50 49 50 48 48 45 40 46 46 48 47 42 41 40 40 39 39 38 39 40 41 41 44 46 47 48 49 49 48 49 49 50 52 52 53 54 54 54 56 58 61 64 66
50 53 49 49 49 46 41 46 48 47 44 40 40 40 40 40 39 40 39 41 43 44 44 47 49 49 49 49 50 50 50 52 54 54 53 52 54 56 58 60 61 63 67
50 53 51 52 47 45 43 46 50 47 40 42 43 42 40 40 38 39 42 43 44 45 46 48 49 50 50 50 51 51 52 53 55 56 56 55 56 58 63 66 66 66 66

GFSSE_500_spd_012.txt.gz
Wind_Speed
17 21 21 21 19 19 20 21 21 18 17 17 16 15 14 14 14 14 13 12 12 12 11 11 13 14 14 13 13 13 14 16 16 17 16 17 18 19 20 20 21 20 21
20 20 21 20 20 18 20 23 24 23 21 20 19 18 17 16 15 15 15 14 13 12 12 13 14 15 15 14 14 15 16 17 16 16 17 19 19 20 21 22 23 22 23
21 21 20 19 21 20 22 20 23 24 24 23 22 20 19 18 18 16 15 15 14 13 13 14 15 15 15 16 16 17 16 16 16 16 17 17 18 19 20 21 23 24 24
22 22 22 18 19 21 22 21 22 22 22 22 22 21 20 19 18 17 16 16 15 15 14 16 17 18 16 17 18 18 18 18 19 19 20 21 21 21 22 23 24 25 23
23 23 21 20 19 20 21 20 20 21 20 21 22 23 21 20 19 17 17 16 16 16 16 16 15 15 14 15 15 16 16 18 19 20 21 23 24 25 24 24 25 26 26
21 22 21 23 23 20 20 20 20 20 22 22 23 24 23 20 19 17 16 16 16 16 16 17 17 18 18 18 18 19 20 20 20 22 23 24 26 25 26 26 26 26 26
22 22 22 22 23 24 23 23 23 23 22 23 24 23 22 21 20 17 16 16 16 16 16 16 17 17 18 18 17 16 17 18 20 21 22 22 24 23 22 23 22 23 24
24 23 25 26 27 28 26 26 23 22 21 22 23 23 21 21 20 19 18 17 16 16 16 16 16 17 16 15 16 19 22 24 27 28 28 30 27 26 25 25 26 26 26
28 26 27 28 29 29 28 25 25 20 19 20 22 21 21 21 21 20 18 18 17 17 17 15 16 17 17 19 22 24 25 27 28 29 31 36 34 29 27 26 26 26 25
29 27 28 29 29 29 28 27 25 21 19 19 19 19 20 21 22 22 20 19 19 18 19 19 20 20 21 22 24 25 23 24 22 21 22 25 28 28 27 25 26 27 26
31 30 29 30 30 30 29 27 26 23 19 20 19 18 19 22 23 24 24 23 22 22 23 23 24 25 25 25 24 25 26 24 25 21 19 19 22 25 24 25 26 25 26
34 34 34 30 29 30 29 27 28 26 23 23 21 21 20 19 21 24 26 27 27 26 27 28 29 30 30 28 27 26 29 28 25 24 23 20 19 19 20 22 24 27 28
38 36 35 35 32 30 30 30 29 29 28 26 25 24 24 24 23 23 24 27 30 30 30 30 32 33 33 32 30 29 31 32 28 27 28 25 24 24 25 25 27 31 31
38 37 36 37 37 33 32 32 30 30 30 29 28 28 28 27 26 25 25 25 28 31 33 34 35 36 35 35 34 34 34 35 33 30 30 31 29 28 29 28 30 33 37
35 35 38 41 38 37 34 34 33 33 32 32 32 31 31 29 28 27 27 27 26 28 29 31 34 36 38 38 37 37 35 37 35 33 32 32 33 31 31 32 32 35 36
34 33 37 40 40 38 38 34 35 36 34 35 35 34 33 32 32 28 28 29 30 30 31 32 34 35 36 36 37 37 37 40 36 34 35 34 34 33 33 33 34 36 36
30 33 36 36 40 39 39 36 34 37 36 36 37 35 33 32 32 29 29 31 32 32 34 34 34 35 36 35 36 37 38 35 35 35 35 33 33 33 33 33 35 37 39
31 34 32 34 35 39 38 38 35 36 36 37 37 36 34 33 33 32 31 32 34 34 35 36 37 36 37 36 36 36 35 35 33 33 32 32 33 35 34 35 37 40 42
34 36 32 29 29 34 40 41 38 38 37 39 38 37 36 36 34 34 34 35 35 36 37 37 38 37 36 36 36 35 33 31 32 32 33 34 36 37 37 40 42 42 44
38 39 36 32 26 27 35 40 43 42 40 39 38 38 38 38 36 36 34 35 36 37 39 37 39 38 37 36 36 35 34 33 33 35 37 39 40 42 43 44 45 46 46
43 42 40 40 31 31 32 36 38 42 45 45 40 37 38 38 38 37 35 38 40 40 40 39 40 39 38 37 37 37 38 41 43 43 42 41 42 44 48 49 49 49 50
40 45 46 43 43 37 33 35 39 38 39 41 42 42 39 38 39 39 38 40 41 41 40 40 40 39 40 41 43 45 46 45 47 46 45 46 46 45 48 50 51 54 55
43 44 47 47 50 44 42 36 37 39 40 40 40 41 41 40 38 39 39 40 42 41 40 41 40 39 41 44 46 48 48 50 50 48 49 49 48 49 51 52 55 57 56
47 47 47 48 51 52 45 43 38 40 42 43 41 39 40 38 37 39 39 40 40 41 41 42 42 42 43 44 47 50 51 51 51 50 50 49 49 51 53 55 56 57 58
53 49 47 46 48 51 49 46 44 40 43 46 44 39 39 38 38 37 39 39 41 40 41 42 42 44 46 48 49 51 52 52 51 50 48 49 50 53 55 56 55 56 60
56 53 49 47 46 46 47 49 49 42 43 47 45 42 39 40 39 37 39 39 39 40 40 41 43 45 48 50 51 51 50 49 49 49 48 49 51 51 54 56 60 63 65

GFSSE_500_spd_015.txt.gz
Wind_Speed
17 17 19 20 21 20 19 19 19 19 18 17 16 16 16 16 16 16 16 16 15 14 13 14 14 13 13 14 14 14 13 14 15 14 16 17 17 19 20 21 20 21 21
17 17 19 18 19 20 21 20 21 22 21 20 20 19 19 19 19 18 18 18 16 15 14 14 14 13 13 14 15 15 14 14 14 14 15 15 17 18 20 20 20 22 21
18 19 19 18 17 20 22 21 21 22 24 25 25 24 24 22 21 20 19 19 18 17 16 15 14 13 14 15 16 15 16 16 16 16 17 18 18 19 20 21 21 21 23
19 20 19 17 16 19 21 22 22 22 22 23 24 24 23 23 22 22 21 20 20 19 17 14 14 14 16 16 17 18 18 19 19 20 18 22 22 23 23 24 25 25 24
21 20 18 18 19 20 21 22 22 22 22 23 22 22 22 23 23 23 22 21 21 20 18 17 15 15 14 15 17 16 17 17 18 19 20 22 24 24 24 25 26 26 27
21 20 19 20 22 22 22 22 22 23 23 22 23 23 23 24 24 24 23 23 21 20 19 18 18 17 18 18 20 19 18 19 21 21 24 24 24 25 25 26 27 27 26
23 23 22 22 23 23 24 22 21 24 25 26 26 26 25 26 26 25 23 23 21 19 19 18 18 17 17 17 17 16 17 19 22 22 25 28 28 27 25 24 24 23 24
24 25 24 23 24 25 26 26 25 23 23 24 25 25 25 26 26 24 23 22 20 20 18 18 17 17 16 16 15 15 19 22 26 28 29 30 31 33 32 29 27 26 26
26 26 25 25 24 25 26 26 25 25 22 21 22 21 21 21 23 23 22 22 20 19 18 17 17 17 17 16 18 19 23 24 24 25 24 24 23 25 29 31 29 27 26
26 27 27 25 24 25 25 25 25 26 24 22 21 19 18 18 17 19 21 22 22 21 19 19 19 19 20 20 21 23 25 26 24 23 24 25 22 21 21 25 27 25 25
30 29 28 28 27 25 26 26 26 26 27 22 22 20 19 18 16 17 19 20 23 24 22 22 23 24 24 26 26 26 26 26 24 26 25 25 23 21 20 21 24 25 25
34 33 32 31 29 28 28 27 27 25 26 27 24 23 21 20 18 17 18 19 22 24 26 26 27 28 28 30 31 31 32 30 28 28 29 27 26 27 24 23 22 22 23
31 32 34 35 34 33 31 31 29 28 27 27 27 26 24 23 21 18 21 22 22 24 27 29 30 30 32 32 34 34 34 34 32 31 31 32 29 29 29 28 27 27 27
31 33 32 32 35 35 35 35 33 31 31 29 28 28 27 26 23 21 20 22 25 24 24 26 28 29 31 33 35 36 37 35 35 36 33 32 32 31 32 33 31 31 30
32 31 32 33 33 33 37 37 34 32 34 32 30 30 31 29 26 24 25 23 26 27 26 26 25 26 29 31 32 34 35 36 36 37 36 39 34 32 32 33 35 33 32
31 30 28 33 34 33 33 37 35 33 35 34 33 33 32 32 30 28 26 25 26 28 29 29 30 31 32 33 32 33 32 34 34 35 38 37 35 33 33 33 32 33 31
33 32 26 29 33 30 31 32 35 35 34 32 35 35 34 33 31 30 28 27 27 29 30 30 31 33 34 33 33 32 32 31 32 32 33 34 33 31 31 32 31 31 31
33 34 30 28 29 30 27 30 33 37 33 31 33 31 33 34 34 31 30 30 30 30 31 31 33 34 34 35 35 33 32 32 31 32 32 31 31 31 31 31 32 33 34
33 34 35 31 29 30 29 29 28 32 34 34 33 30 30 34 35 34 34 33 34 32 32 32 34 35 36 36 36 35 33 32 32 32 32 32 34 34 36 38 37 39 41
36 38 39 38 33 30 33 29 27 26 30 36 37 33 31 33 32 33 34 35 36 35 33 35 37 36 37 36 36 36 36 34 34 34 36 39 42 43 42 42 43 43 43
40 41 43 43 40 33 32 33 31 32 32 33 32 35 36 36 32 33 33 33 35 37 36 38 39 39 38 37 37 36 37 39 40 43 45 46 44 45 47 46 47 47 46
42 42 42 44 43 40 35 37 38 35 36 32 32 32 33 34 33 35 35 34 36 38 39 39 40 39 38 38 39 38 38 41 43 46 46 48 49 47 47 47 47 48 48
45 44 43 43 42 42 42 42 44 39 36 35 35 36 37 35 31 31 33 34 34 37 40 39 38 39 40 39 40 41 41 42 43 46 48 50 50 50 49 47 49 49 49
49 47 48 48 46 43 43 47 46 43 43 39 38 40 41 37 33 34 32 32 33 35 37 38 38 39 39 40 41 41 43 44 46 47 50 51 50 49 49 49 49 50 53
55 54 51 52 51 49 47 46 46 47 46 43 43 41 44 39 36 37 35 32 32 34 36 37 38 40 40 40 40 41 43 45 46 46 47 47 47 48 48 50 52 54 56
62 61 61 56 55 53 50 48 47 45 47 46 46 45 44 43 39 39 37 34 35 35 35 37 38 40 40 40 41 43 44 46 46 45 45 44 45 46 50 53 55 56 56

GFSSE_500_spd_018.txt.gz
Wind_Speed
18 16 17 18 19 19 20 19 18 18 19 18 18 18 17 16 17 16 16 17 18 19 18 17 17 17 17 17 16 15 15 14 14 14 16 17 18 18 19 20 21 22 22
18 19 17 16 15 17 21 20 20 20 20 21 21 20 19 19 18 19 19 19 19 19 19 18 17 17 16 16 15 15 15 15 15 15 15 16 18 19 20 20 20 21 22
18 17 17 16 16 17 20 20 20 20 19 21 23 24 24 23 23 23 22 21 20 20 19 19 19 18 18 18 16 16 16 15 16 16 17 18 19 20 20 21 22 22 23
18 18 17 17 17 19 18 19 21 21 22 22 22 22 24 25 25 24 23 23 22 21 21 21 21 20 19 18 18 18 17 16 15 16 19 19 20 21 23 24 24 24 25
19 17 17 17 19 21 21 21 21 21 21 22 23 23 23 23 23 23 24 24 23 22 22 23 22 21 19 17 17 16 15 16 17 18 21 22 24 24 25 27 27 27 26
20 19 18 19 21 23 23 23 24 23 22 22 22 22 23 24 24 24 25 25 25 24 23 23 22 21 20 20 19 19 19 17 17 18 19 21 23 25 26 27 27 26 25
22 22 21 21 22 22 24 23 23 24 23 25 26 26 25 25 26 26 25 26 26 25 24 22 22 21 21 20 20 18 17 14 16 19 23 25 27 28 30 32 31 29 27
25 25 24 23 22 23 24 23 22 21 23 22 23 25 28 27 25 25 25 25 25 24 23 21 20 20 20 19 19 18 17 16 18 22 25 26 25 22 23 25 28 31 30
27 25 25 24 24 23 24 23 23 21 20 20 20 20 21 23 24 23 22 21 22 22 22 21 21 20 21 21 20 19 19 20 21 23 25 24 25 24 22 22 23 25 26
27 27 26 25 25 25 24 24 23 23 23 22 20 21 20 21 20 21 19 19 20 21 21 22 22 22 23 22 23 23 23 24 25 26 27 25 23 24 26 24 20 20 23
31 31 29 26 26 26 26 27 26 25 24 24 23 21 21 20 19 18 18 17 19 20 22 23 24 24 26 27 27 28 29 29 29 30 29 30 26 25 26 28 25 22 19
30 33 33 31 29 28 28 28 28 27 26 25 25 23 22 21 20 18 18 17 18 19 21 24 26 27 28 30 31 32 33 35 35 34 34 34 31 29 28 28 29 28 25
28 28 31 34 32 30 30 30 31 31 28 27 27 25 24 23 23 20 18 18 20 22 22 23 25 27 30 32 33 34 35 37 36 36 36 36 35 32 32 30 30 30 31
26 27 30 31 30 31 33 33 34 34 32 31 30 27 27 26 24 23 22 20 20 23 25 24 23 23 24 26 29 31 32 35 36 37 39 38 39 37 35 34 34 31 32
29 30 30 30 29 30 32 32 34 34 34 33 31 28 30 29 28 26 25 24 25 25 26 26 26 26 26 26 29 31 32 33 33 34 35 36 38 38 38 39 36 35 33
35 35 33 30 30 29 31 32 32 34 37 35 32 30 31 30 30 31 28 27 27 27 26 26 26 26 28 29 31 33 33 32 32 32 31 31 33 35 36 35 36 35 34
37 36 31 32 33 30 29 28 28 30 33 36 34 33 31 30 31 32 30 28 27 27 27 28 29 28 29 30 32 33 33 33 33 32 30 30 30 31 33 34 33 33 33
40 34 32 33 32 32 29 29 27 28 29 30 34 34 30 30 30 32 30 30 30 30 30 31 29 29 29 31 33 34 35 35 33 33 31 30 30 31 32 32 32 33 34
39 39 38 35 34 32 33 31 31 28 27 27 30 31 31 32 31 32 31 33 34 34 34 33 32 32 31 33 36 36 36 36 35 34 34 32 33 34 35 37 39 40 41
39 41 40 37 35 36 35 34 32 29 28 26 27 28 34 35 33 31 33 32 33 34 35 35 34 33 34 37 38 38 38 36 36 36 36 37 37 38 42 45 47 46 46
40 41 40 40 39 39 38 36 35 35 33 31 30 28 29 32 32 33 34 35 36 37 36 35 36 35 36 37 39 38 37 37 38 37 36 39 42 45 46 48 47 49 49
43 43 44 43 43 42 42 42 41 43 39 37 33 31 30 32 31 32 31 30 31 32 34 35 35 36 36 37 37 37 38 38 38 39 40 41 42 44 46 48 49 51 52
44 45 46 46 46 47 46 44 45 46 44 39 36 33 33 37 36 32 32 31 29 29 32 34 35 35 36 36 36 37 38 38 39 40 42 44 45 47 48 50 50 50 50
45 45 45 45 48 50 50 47 44 46 48 46 44 41 41 39 38 37 36 34 33 32 30 32 34 34 35 36 36 37 38 39 40 41 42 44 45 46 47 48 48 48 48
48 48 49 48 49 51 52 52 49 44 45 49 50 47 48 44 42 40 38 38 37 35 35 32 33 35 36 36 37 37 38 40 42 43 44 44 45 46 48 49 51 51 52
55 55 57 57 55 54 54 56 55 52 46 46 47 49 50 50 45 44 41 39 39 39 38 36 34 35 36 36 37 38 39 41 43 43 43 43 44 47 50 53 54 54 55

GFSSE_500_spd_021.txt.gz
Wind_Speed
17 15 14 14 15 18 19 19 20 20 19 19 20 19 18 17 17 17 16 16 17 19 19 18 18 18 18 18 19 18 18 18 18 18 18 18 17 17 17 17 19 21 21
17 14 14 16 15 18 17 17 18 20 20 20 20 21 19 18 18 18 18 19 19 19 19 20 20 19 19 19 19 18 18 17 18 18 19 18 17 17 17 17 18 20 19
17 15 15 14 15 18 18 18 18 19 19 19 20 22 23 23 23 23 23 23 22 22 21 21 20 20 20 19 18 19 19 19 19 19 19 18 18 18 19 19 19 21 21
17 17 16 14 15 19 20 19 18 18 18 19 20 21 21 22 24 25 26 25 24 23 22 22 21 21 21 20 19 19 19 20 20 20 19 18 19 19 21 22 23 24 24
18 18 16 17 16 18 20 20 20 19 19 20 20 20 20 21 22 23 23 23 23 23 23 23 23 23 21 20 20 19 17 17 18 20 21 20 20 21 22 24 24 25 25
22 20 19 20 20 20 22 22 21 20 20 20 21 22 22 21 21 22 23 23 23 23 23 24 24 24 23 22 20 19 19 21 20 19 18 18 20 23 25 28 29 29 28
26 23 22 22 22 20 22 23 21 20 20 21 23 23 24 25 25 24 24 24 24 23 24 24 25 24 23 23 22 20 20 20 19 18 18 19 21 23 23 24 24 25 27
28 27 25 24 23 21 22 23 22 19 18 20 21 20 20 21 23 25 25 24 23 23 22 22 23 22 23 22 21 20 20 20 21 21 21 22 23 24 25 25 24 24 23
29 27 27 26 25 24 23 23 22 21 20 19 19 19 18 19 20 21 21 21 21 21 21 21 21 22 21 21 22 23 22 22 23 24 24 25 25 26 26 27 25 24 22
30 30 29 29 27 26 25 24 22 22 21 22 22 21 20 18 18 20 20 20 19 20 20 21 21 22 22 23 23 24 25 26 27 27 28 28 27 29 29 27 27 27 24
32 32 30 29 27 28 26 24 24 25 24 23 22 22 22 20 19 18 19 18 17 17 19 21 22 23 24 25 26 27 29 30 31 32 33 34 33 33 33 31 28 27 27
30 31 32 31 30 31 29 28 29 28 26 24 24 23 23 22 20 19 20 19 19 19 20 20 21 22 25 26 29 31 33 34 36 37 39 39 39 37 36 35 31 29 29
32 32 31 32 32 31 30 32 31 31 29 29 28 26 25 25 24 21 20 20 19 20 21 21 22 23 24 25 28 31 34 36 37 38 40 41 42 41 39 37 36 33 32
30 31 31 29 29 30 31 32 33 32 33 33 32 28 27 27 26 24 21 22 21 21 22 25 26 25 25 25 24 25 26 29 32 34 36 37 38 38 39 39 40 37 36
31 31 32 33 29 28 29 30 30 32 34 34 32 30 28 28 27 26 26 25 23 25 26 26 27 26 26 26 26 27 29 31 33 34 35 34 35 34 34 33 34 35 36
32 32 35 34 33 32 32 32 33 34 35 33 32 30 29 29 29 28 29 29 27 26 26 27 27 27 27 26 26 28 29 32 34 35 35 33 33 33 32 30 30 30 31
32 34 36 36 36 33 33 34 35 34 34 32 30 29 31 30 30 30 30 30 30 28 28 27 28 28 29 29 28 28 29 31 33 35 36 35 34 33 32 30 30 31 31
34 36 38 39 37 35 34 36 36 35 33 33 30 29 31 30 29 30 30 31 31 30 31 31 31 31 32 31 31 32 32 34 35 35 35 35 34 34 34 32 32 32 32
35 37 40 40 39 37 37 37 37 35 31 33 29 30 29 31 32 31 31 31 31 32 32 33 34 35 34 35 35 34 36 37 38 38 36 35 35 34 36 36 36 36 37
38 40 43 43 41 39 39 39 39 35 32 34 33 31 31 30 33 33 32 32 32 34 36 37 38 37 36 35 35 36 38 38 39 38 36 35 35 35 35 38 41 43 45
41 41 42 45 43 42 40 40 39 38 36 36 37 32 33 32 32 31 33 35 36 36 36 35 35 37 36 36 36 36 36 37 37 36 36 36 36 37 38 39 39 41 44
44 42 44 45 47 45 44 42 42 41 43 41 39 36 35 33 34 34 35 35 34 32 31 32 32 32 33 33 35 36 36 37 36 37 36 36 38 39 41 42 43 44 46
46 44 44 46 50 50 49 46 46 46 46 45 44 40 38 38 39 39 38 37 35 34 33 34 34 33 33 33 34 36 37 37 37 37 37 39 40 41 42 42 43 43 45
46 47 47 46 47 51 54 53 50 48 47 44 43 48 46 45 44 40 39 37 38 38 37 38 37 35 35 36 36 36 38 38 38 39 39 40 41 42 42 43 43 43 44
44 46 47 48 48 49 51 53 53 51 50 48 46 46 50 49 47 47 45 43 41 42 40 39 39 38 39 38 38 37 38 38 38 40 42 44 45 45 45 45 45 46 47
48 51 52 52 52 52 51 51 52 54 53 51 49 47 47 48 51 50 50 49 47 46 46 41 40 41 41 40 40 40 40 40 40 42 44 46 47 47 48 49 50 51 52

GFSSE_500_spd_024.txt.gz
Wind_Speed
17 15 15 15 14 16 15 15 16 18 18 18 18 18 18 18 17 16 15 15 15 15 16 17 18 17 17 16 17 16 17 17 17 17 17 17 18 18 19 19 19 18 18
19 16 15 15 15 18 17 15 14 15 17 18 19 19 19 19 19 18 18 17 17 17 18 19 19 20 18 18 17 17 17 17 18 18 18 18 18 18 18 19 19 19 19
19 16 15 15 16 19 18 15 16 16 16 17 18 19 19 20 21 21 21 21 21 21 22 22 22 22 20 19 19 19 20 19 18 18 17 18 18 19 20 20 20 20 21
19 17 16 16 17 18 18 17 17 17 16 16 17 17 18 18 18 19 21 22 23 23 22 21 22 22 22 22 21 21 21 20 20 20 19 19 18 19 20 20 21 21 22
18 18 17 17 18 15 17 16 16 16 16 16 17 17 18 18 19 19 19 20 20 21 20 21 21 22 22 22 22 22 22 21 19 18 19 19 19 18 18 20 22 24 24
21 21 21 20 21 18 18 19 18 17 17 18 18 18 17 18 18 19 20 19 21 21 21 22 22 22 22 23 23 22 22 21 21 21 21 20 18 18 20 19 20 21 21
26 25 25 23 23 22 20 21 21 18 18 19 18 18 18 17 18 20 21 22 22 23 23 23 23 22 22 22 22 23 23 24 24 22 21 20 20 21 22 22 21 22 22
30 29 29 27 26 24 23 23 23 20 19 20 18 17 17 16 17 16 17 19 20 20 21 21 21 21 21 21 22 23 22 23 23 22 22 22 22 23 25 25 26 24 23
32 32 30 29 27 26 25 24 23 22 20 20 19 18 18 17 16 16 17 17 17 18 18 19 20 20 20 20 21 22 22 23 23 24 25 25 25 26 28 28 28 27 24
31 31 30 30 29 28 27 26 25 24 22 19 20 20 20 18 17 17 17 17 17 17 17 18 20 20 21 21 22 22 23 24 26 27 28 29 29 31 32 32 32 34 29
29 30 31 31 30 29 28 27 27 25 23 22 22 21 21 20 19 17 18 18 19 18 18 18 17 19 21 23 23 24 25 26 28 30 32 34 34 36 37 38 37 36 33
28 29 30 30 31 30 29 28 28 28 26 25 24 23 21 21 20 19 18 19 20 20 20 20 21 21 21 21 23 24 26 28 31 33 35 36 38 38 39 39 39 39 37
31 28 27 30 30 28 28 29 28 29 29 28 28 27 26 25 23 22 21 20 21 20 21 22 24 24 24 24 24 24 25 26 28 29 31 31 32 34 37 37 36 36 37
31 31 28 27 27 26 27 29 30 31 31 32 32 31 29 28 26 25 25 24 23 21 22 23 25 27 27 27 27 26 26 27 28 29 30 32 34 34 34 34 33 32 32
31 32 31 32 30 29 29 30 31 31 32 33 33 31 30 30 29 28 28 28 27 24 24 25 26 28 28 28 26 26 26 27 28 30 31 32 33 33 33 33 32 31 30
28 29 33 36 35 35 33 33 34 34 35 34 34 31 30 31 30 29 29 30 30 28 29 27 26 27 26 25 26 26 27 28 29 32 33 33 33 33 34 34 32 31 30
29 30 33 37 39 38 36 35 35 35 36 35 34 33 30 31 31 30 30 30 31 30 30 30 28 27 28 27 28 29 31 33 33 34 36 37 37 36 35 34 33 32 32
33 32 35 38 40 41 40 37 37 38 38 35 35 34 31 31 32 31 31 30 31 30 29 30 30 29 29 30 31 33 33 35 36 37 38 39 38 38 37 34 33 32 34
38 37 36 39 41 42 41 41 41 40 38 36 34 33 32 32 33 31 31 32 32 31 30 30 31 32 32 34 35 38 36 36 36 37 39 39 40 38 36 34 33 33 33
42 41 41 41 42 42 42 43 42 41 38 35 36 37 35 35 35 33 33 33 34 32 32 32 33 35 36 36 34 35 36 37 37 37 37 38 36 35 34 35 35 35 36
44 44 44 44 44 46 45 44 44 42 40 39 38 39 39 36 37 36 35 33 33 34 35 34 35 34 33 31 30 31 32 33 34 34 34 35 34 35 35 34 34 35 36
46 46 46 46 47 48 49 46 44 45 43 43 43 42 41 36 38 37 37 38 36 35 35 34 33 33 33 32 32 32 31 31 33 34 34 35 36 36 36 36 36 37 38
48 46 48 48 48 50 50 50 48 46 46 45 44 40 39 41 40 41 44 42 40 38 37 36 36 37 36 35 35 36 35 34 35 36 36 37 37 37 36 37 38 39 41
48 46 46 48 48 49 50 51 51 50 48 46 46 45 45 46 46 45 48 46 44 40 38 39 40 39 41 39 39 39 39 38 38 37 39 39 39 39 41 40 40 41 42
48 46 46 48 50 50 50 52 53 50 48 47 50 49 48 48 47 45 47 48 48 44 44 42 43 43 42 42 41 41 41 41 41 41 41 41 42 42 42 44 44 43 44
45 47 48 49 50 52 53 54 55 55 54 53 49 49 49 49 49 48 48 47 50 49 48 47 47 48 47 45 42 43 44 44 44 44 43 44 43 44 44 47 48 47 47

GFSSE_500_spd_027.txt.gz
Wind_Speed
16 14 16 17 18 17 14 14 14 15 17 17 18 18 17 17 17 16 15 13 13 14 13 14 14 13 13 14 14 15 15 16 16 16 15 15 15 15 16 16 16 16 17
18 17 16 17 19 18 16 16 15 15 14 14 15 17 17 17 18 18 18 17 16 16 17 17 18 17 17 17 17 17 17 17 17 16 16 16 16 17 16 16 17 17 18
20 19 17 18 18 19 17 15 16 16 16 15 15 15 15 16 16 17 19 20 20 21 21 21 20 20 19 19 19 19 19 19 18 18 18 18 18 18 18 17 17 19 20
21 19 19 20 20 18 18 16 16 16 16 16 16 16 16 16 16 16 17 18 19 20 21 21 20 20 20 20 21 21 21 20 20 20 19 20 18 18 18 20 18 19 20
19 19 18 18 19 18 18 17 15 15 15 16 16 16 17 18 18 17 17 17 17 18 18 19 19 19 20 21 21 21 22 22 22 21 20 19 19 20 20 19 18 18 18
18 19 20 20 20 19 17 18 18 16 16 17 17 17 17 17 17 18 18 18 18 18 18 19 20 20 21 21 22 22 22 22 22 21 21 22 22 20 19 18 19 19 18
21 21 23 24 24 24 22 20 22 21 18 19 18 18 18 17 16 16 17 18 18 18 19 19 19 20 21 21 21 22 22 23 23 23 23 22 21 20 20 20 21 21 21
25 25 25 27 27 25 25 24 22 24 21 20 21 20 19 18 18 17 17 16 15 16 16 17 18 19 20 20 21 22 22 23 23 23 22 22 22 22 22 22 22 24 24
29 29 28 29 29 27 26 24 23 23 22 20 21 20 19 18 19 18 17 17 17 15 14 14 16 18 18 20 20 21 22 22 23 24 23 24 25 26 26 26 26 27 28
30 31 31 29 28 28 26 24 22 24 23 22 20 21 21 20 21 21 21 20 18 17 16 16 16 17 18 18 20 21 22 23 24 24 25 27 28 29 30 31 32 32 33
31 32 31 30 29 29 28 26 25 25 24 22 22 22 21 22 22 22 21 21 19 18 18 19 19 19 20 19 19 20 20 21 23 25 27 29 31 33 34 34 35 36 34
28 30 30 30 30 29 28 28 27 27 26 24 24 24 23 23 22 22 21 21 21 19 20 21 22 22 22 22 22 22 24 23 24 25 27 29 31 32 33 32 32 33 34
28 28 28 29 29 29 28 28 28 28 27 26 26 26 25 26 25 24 23 23 23 23 23 22 23 24 24 24 25 26 26 26 27 26 26 27 28 29 30 32 34 33 32
28 28 29 29 30 29 28 28 28 28 28 27 28 28 28 28 28 26 25 26 26 26 24 24 25 25 26 26 26 27 27 27 26 26 28 28 29 30 31 32 32 31 32
27 29 29 32 32 32 33 31 30 30 30 31 30 30 30 30 29 28 29 28 29 29 27 28 27 27 27 27 27 27 27 25 24 25 26 28 31 33 34 35 34 33 32
28 29 31 31 32 33 33 33 33 33 33 33 32 32 32 30 31 31 30 30 31 31 29 31 30 30 29 28 27 26 26 26 27 30 31 33 35 37 37 37 36 36 34
32 32 31 34 34 33 33 35 35 37 37 36 36 35 34 31 31 31 31 30 31 32 31 31 32 31 31 29 29 28 28 29 30 31 32 34 36 36 36 36 36 36 34
33 35 36 37 37 36 35 36 38 39 41 40 39 37 35 33 32 33 31 31 32 33 32 30 30 32 31 30 30 30 30 32 34 35 35 34 35 36 37 35 31 31 31
36 36 38 40 40 39 39 39 41 42 42 41 40 38 37 36 36 35 33 33 33 33 33 31 31 32 31 31 32 32 34 34 31 30 30 31 31 30 29 29 29 30 30
40 39 39 40 43 42 43 44 44 43 44 43 42 41 40 41 40 38 37 36 35 34 33 33 32 32 33 33 33 33 30 28 27 27 27 26 27 28 29 28 29 30 31
44 43 43 43 43 45 45 45 46 45 47 48 46 45 45 45 43 41 40 38 37 35 35 34 33 34 33 33 31 30 29 29 28 28 27 27 28 29 30 29 29 29 31
46 46 45 45 46 46 47 47 46 48 49 50 49 49 48 46 45 42 41 41 40 38 39 36 36 35 34 34 33 32 31 32 33 33 33 32 32 32 32 32 31 31 31
47 47 46 45 46 49 50 50 49 47 48 51 52 49 48 48 48 46 45 43 45 42 41 42 39 38 37 36 37 35 35 35 36 37 38 37 36 36 36 36 35 34 34
46 45 46 46 46 48 49 52 53 53 49 47 50 50 50 51 50 50 49 48 49 47 45 44 42 40 39 39 40 37 37 37 38 39 41 41 41 40 39 40 40 39 38
46 46 46 45 46 48 50 51 52 53 53 51 50 50 53 53 53 53 51 50 51 52 49 48 46 46 45 43 42 41 41 41 41 42 41 43 44 44 42 43 44 43 41
44 45 45 46 47 48 49 50 51 52 53 53 53 53 54 57 58 58 56 54 53 53 48 48 49 48 48 45 47 47 42 45 45 46 45 46 47 46 46 47 48 46 46

GFSSE_500_spd_030.txt.gz
Wind_Speed
14 13 15 16 15 15 15 15 15 14 15 16 18 20 20 19 18 19 19 18 16 16 15 14 14 13 13 14 13 14 15 15 15 16 16 16 15 15 16 16 15 15 16
15 15 15 17 17 17 16 16 16 15 15 15 15 16 17 19 19 20 20 20 20 19 18 18 18 18 18 17 16 15 15 16 17 17 18 18 17 18 18 17 17 16 16
18 17 16 17 18 18 17 16 16 17 17 17 17 17 16 16 17 17 18 19 21 23 22 22 23 22 21 20 18 17 17 17 17 18 18 19 19 19 19 18 17 18 18
18 18 17 18 19 19 19 18 16 16 17 17 17 17 17 17 17 17 17 18 19 20 21 21 22 22 22 20 19 18 18 18 19 19 20 20 21 20 18 18 19 17 17
19 18 17 17 17 18 18 18 16 15 15 16 16 17 17 18 19 19 20 19 19 19 18 18 19 19 19 20 20 21 19 20 20 20 21 21 20 19 21 20 17 16 17
18 17 17 18 18 18 16 17 19 18 18 18 19 17 18 19 19 20 21 22 22 22 21 21 21 22 21 21 20 21 21 21 21 22 22 23 23 23 22 20 19 19 18
19 18 18 20 20 20 20 18 21 22 20 20 20 20 20 19 19 18 19 20 21 21 21 21 21 21 21 21 21 20 20 21 22 22 23 24 24 23 22 21 21 21 21
21 22 22 23 24 25 24 23 22 22 21 18 19 19 19 18 18 17 18 18 19 19 19 19 20 19 20 20 19 19 20 21 21 22 23 24 24 23 23 24 24 24 24
26 26 26 26 27 27 26 24 24 22 22 19 17 18 18 18 18 18 19 19 19 20 19 19 19 19 19 19 19 20 19 21 21 22 23 24 25 25 26 26 28 28 29
29 30 31 29 29 29 27 26 25 24 24 22 20 18 18 19 19 20 21 20 20 20 19 20 20 19 19 20 20 19 19 20 20 21 23 24 25 27 28 30 31 32 33
32 33 34 34 31 29 29 28 27 26 25 24 22 21 20 21 21 21 22 22 21 20 20 20 21 21 22 21 21 20 20 19 20 21 22 23 25 27 29 31 33 34 32
32 33 33 33 32 31 30 31 29 28 27 26 25 25 23 23 23 22 22 23 23 23 22 22 23 23 22 22 22 21 21 22 24 25 24 25 25 26 26 27 27 29 31
27 28 28 27 28 30 31 31 30 30 29 28 27 27 26 25 25 23 23 25 24 24 24 25 25 25 25 23 23 24 24 25 25 26 27 26 26 27 28 28 28 29 29
26 27 27 28 29 30 32 32 31 30 30 30 30 29 28 27 27 26 26 25 25 26 26 28 28 28 27 27 26 25 26 26 28 27 27 26 25 26 26 30 32 33 34
28 29 29 30 31 32 33 32 33 34 33 32 32 32 30 29 29 28 27 27 28 29 28 29 30 31 30 29 29 29 27 26 27 27 25 26 28 30 32 33 34 35 35
30 29 31 31 33 34 33 33 34 34 35 34 33 34 33 31 30 30 30 30 30 31 31 31 32 32 33 33 32 31 30 28 27 28 28 30 32 34 34 34 34 34 36
32 33 32 34 35 35 35 35 36 35 36 36 37 35 35 34 33 33 33 33 33 33 34 34 32 32 34 34 34 33 31 30 29 29 30 33 35 34 31 30 29 27 26
34 35 37 36 37 37 36 38 38 39 38 38 37 38 37 36 37 37 36 36 36 36 37 36 32 33 34 34 34 33 32 31 31 31 33 34 27 27 25 24 24 24 24
38 38 37 38 38 39 40 41 41 41 41 41 39 41 40 40 39 39 39 40 39 38 39 37 35 35 35 34 34 34 33 33 33 33 28 26 25 23 23 23 23 23 24
38 38 37 37 39 39 41 42 44 45 43 44 44 44 45 45 44 44 42 43 43 42 40 40 38 36 35 35 35 34 34 33 33 29 27 26 25 25 24 25 26 25 25
39 39 40 40 40 40 41 43 45 46 47 47 46 47 49 49 49 47 47 46 45 45 45 43 40 39 38 37 36 35 35 33 32 30 30 30 29 29 30 31 31 31 30
42 41 42 43 43 42 43 42 45 47 49 51 52 51 51 51 51 52 52 51 49 48 48 46 44 42 41 39 38 37 35 35 33 34 33 33 34 35 35 36 36 36 36
44 44 45 45 44 43 43 44 45 46 47 49 51 52 52 53 55 54 54 55 54 52 49 49 46 45 44 42 40 41 39 38 37 36 37 36 37 38 39 40 39 40 39
45 45 44 44 43 43 44 45 46 46 47 49 52 53 55 57 57 55 55 57 57 55 52 51 49 49 47 45 45 43 44 42 40 38 38 38 39 40 42 42 43 43 43
42 43 43 43 42 42 44 45 47 48 49 50 51 52 54 55 58 59 57 56 58 57 56 53 53 51 50 51 49 49 51 50 45 43 43 42 42 43 43 45 46 46 47
40 40 40 40 41 41 42 44 46 47 48 49 51 52 53 53 56 61 62 59 60 61 60 58 56 54 54 52 51 50 48 48 46 45 45 43 41 45 45 46 48 48 48

GFSSE_500_spd_033.txt.gz
Wind_Speed
13 13 14 13 14 13 14 15 15 15 15 15 15 16 17 18 19 19 19 19 20 20 19 18 17 16 15 15 15 15 15 15 15 15 16 16 16 16 16 16 16 16 16
14 15 14 14 14 14 14 14 15 15 16 16 16 16 16 16 18 19 20 21 21 21 22 22 21 20 20 19 18 18 17 16 16 16 16 17 16 17 17 17 18 18 17
15 15 15 15 15 15 14 13 13 14 15 16 17 17 17 16 16 16 17 18 19 21 22 22 23 23 22 22 20 19 18 18 17 17 17 17 18 18 18 18 18 18 19
17 17 16 16 16 17 16 16 15 15 15 15 16 17 17 18 18 18 18 18 18 19 20 20 20 20 20 19 19 18 18 18 18 19 19 18 18 18 18 17 18 19 17
18 18 16 16 17 16 14 14 14 13 14 15 15 16 17 18 18 19 20 20 21 21 21 20 20 19 19 18 18 18 19 19 19 20 20 19 18 18 18 19 19 18 16
20 19 17 16 16 16 15 15 15 16 16 17 17 18 19 19 19 20 20 20 21 22 23 23 23 22 21 21 20 20 20 20 20 20 20 20 20 20 21 21 20 19 19
21 19 18 17 17 18 18 18 18 18 19 20 22 21 20 19 20 19 19 19 20 21 22 22 22 21 21 21 21 21 21 20 19 20 21 21 21 22 22 22 21 22 22
22 21 20 20 21 22 22 22 20 21 22 22 20 20 19 19 18 18 18 17 18 19 21 21 21 21 21 21 20 20 20 20 20 20 20 21 21 21 22 23 23 24 25
23 24 24 25 25 25 26 25 25 23 23 23 21 20 20 18 17 17 17 18 19 20 20 20 20 20 21 20 20 21 21 21 20 21 21 21 21 21 22 24 25 27 29
27 28 29 28 28 29 29 28 28 27 26 24 23 20 20 19 19 19 19 20 19 20 20 20 20 20 20 21 22 22 21 20 20 20 20 19 20 21 22 24 25 28 29
29 30 30 30 31 30 31 31 30 29 26 25 25 23 22 21 21 21 21 21 21 20 20 21 21 21 22 22 21 21 20 20 20 20 22 23 23 23 24 26 26 26 26
31 32 32 32 33 32 30 31 30 29 27 26 27 27 25 24 24 23 23 23 21 22 22 22 22 23 24 24 22 22 22 22 22 22 23 23 25 25 25 25 24 24 25
29 30 31 31 31 31 30 29 29 28 28 28 28 28 28 27 27 25 24 24 23 23 23 24 25 26 26 25 24 24 24 25 25 25 25 24 25 25 25 24 24 26 29
28 29 30 30 30 30 30 30 29 29 30 30 31 30 30 29 28 28 26 25 25 26 25 26 27 28 28 28 28 29 28 28 27 25 25 24 24 23 24 27 30 32 33
29 31 31 30 30 30 31 31 31 31 31 31 32 32 32 31 30 29 28 27 27 28 27 28 29 30 31 30 31 31 31 31 30 28 26 26 26 27 28 31 32 33 32
30 30 30 29 31 31 32 32 34 34 34 35 34 33 33 34 31 31 30 30 30 29 31 31 32 32 32 32 33 33 34 34 32 30 28 28 28 30 32 34 31 26 22
31 31 31 31 30 31 32 33 34 36 36 36 37 36 35 34 35 35 34 33 34 33 34 34 35 35 34 34 35 35 35 35 33 32 31 30 30 32 33 27 22 20 20
34 34 34 33 32 33 34 35 37 37 38 39 38 37 37 39 38 38 39 36 37 37 36 37 38 37 35 36 36 36 36 35 34 33 33 32 32 32 26 23 21 20 19
37 37 36 35 34 35 35 36 38 39 39 39 40 40 39 41 42 43 42 41 42 41 40 41 41 40 39 37 37 36 36 36 35 34 34 34 33 29 25 23 22 21 22
38 37 36 36 36 36 38 37 38 39 41 41 42 42 43 44 44 45 46 46 46 47 45 45 45 45 44 41 40 38 37 37 37 36 35 35 33 30 27 27 26 26 26
38 38 38 38 38 38 40 41 39 41 42 44 45 46 48 48 48 47 47 48 48 48 48 49 50 48 47 46 44 41 41 39 37 36 37 37 33 33 32 32 32 31 31
37 38 38 39 40 41 42 43 43 42 43 44 46 48 49 49 51 51 50 51 51 51 51 51 54 53 53 49 48 47 44 42 38 38 38 38 37 37 37 36 36 36 36
39 39 39 40 41 43 44 44 44 44 43 43 44 47 51 54 56 55 54 54 55 55 53 53 55 54 55 54 52 50 48 45 43 42 42 41 41 42 41 39 37 37 37
40 41 41 41 42 42 42 42 43 44 44 44 46 48 50 53 56 59 58 57 57 57 54 55 56 54 54 54 55 52 50 48 45 45 46 44 47 47 44 43 41 40 40
41 41 41 41 41 40 41 41 43 43 44 46 47 48 49 51 53 55 58 60 59 59 58 59 57 57 58 58 55 55 54 52 50 48 49 50 56 54 50 49 50 43 42
39 39 39 40 40 40 40 41 41 43 44 46 46 48 49 50 52 53 55 57 59 61 62 62 62 60 60 60 60 58 55 56 54 53 51 49 48 47 43 44 42 41 42

GFSSE_500_spd_036.txt.gz
Wind_Speed
13 13 13 10 8 9 9 10 11 11 12 13 13 13 14 14 15 16 16 17 17 17 17 17 17 17 17 16 16 16 16 16 16 15 15 15 15 15 16 16 16 16 16
14 14 11 10 9 9 10 11 11 12 13 13 14 14 15 15 15 15 16 16 17 17 18 18 19 19 19 19 19 18 18 18 17 16 17 16 16 16 16 16 16 17 16
15 15 13 13 12 12 12 12 11 11 11 13 13 14 15 16 16 15 15 15 14 14 15 16 17 19 19 19 19 19 18 17 16 16 16 16 16 17 17 17 17 16 17
17 16 16 15 14 14 13 14 13 12 12 12 13 14 14 15 15 15 16 17 17 17 17 17 17 17 17 17 17 17 17 17 17 16 16 16 16 17 17 17 16 18 19
19 17 17 16 17 16 14 12 12 12 13 13 14 14 15 15 15 16 16 17 18 19 19 19 18 19 19 19 19 19 18 18 17 17 16 17 16 16 17 17 17 19 18
19 18 18 18 17 17 15 13 13 14 15 16 15 16 17 18 19 19 19 19 19 20 20 19 20 20 19 19 18 18 17 17 17 17 15 15 16 17 17 18 18 19 18
20 21 19 19 19 18 17 16 16 16 16 18 20 20 20 20 19 18 18 18 18 18 19 20 20 20 20 20 20 19 18 17 16 16 16 15 16 17 17 18 18 19 20
23 25 22 21 21 19 19 18 18 19 20 20 22 23 23 21 19 19 18 18 18 18 18 18 19 20 21 21 21 20 19 19 18 17 16 16 17 18 18 19 19 21 22
25 26 25 23 22 22 21 21 20 21 22 23 22 21 22 22 21 20 19 18 18 18 18 18 18 18 19 21 21 21 21 21 20 19 18 18 18 17 17 18 19 20 22
27 26 25 24 24 23 23 24 25 25 24 23 24 23 21 21 22 21 20 20 20 19 19 18 18 19 19 20 21 21 21 21 20 19 18 18 18 18 19 20 21 23 23
27 25 24 25 26 26 27 28 28 27 25 23 23 24 22 22 23 22 22 21 21 21 20 19 19 20 21 21 22 22 21 20 20 20 20 21 21 20 20 21 21 22 23
28 27 27 27 29 29 29 29 28 27 25 24 23 24 23 23 22 22 23 23 22 23 22 22 21 22 23 23 23 23 22 22 22 21 21 24 24 24 23 21 21 21 20
29 28 30 29 30 30 28 29 27 26 26 25 25 25 24 23 23 23 23 23 23 24 24 23 23 24 25 25 25 24 24 24 25 23 24 24 25 23 23 22 20 21 25
28 29 30 30 29 28 28 28 27 26 27 27 27 26 26 23 24 24 24 25 25 25 25 26 25 27 28 27 26 26 27 28 27 25 29 26 26 25 24 24 25 26 28
27 29 31 30 29 29 29 28 27 28 27 29 29 28 28 29 27 26 25 25 27 26 27 27 28 29 30 30 29 28 28 30 30 28 30 30 28 27 27 27 28 29 29
31 31 31 31 31 29 29 27 27 28 28 29 29 30 31 30 30 31 30 28 28 29 30 31 31 30 31 31 31 31 30 32 32 32 29 32 30 30 29 29 29 29 24
32 31 31 31 32 30 29 29 29 30 29 29 31 32 31 33 33 32 32 34 33 33 33 34 33 34 34 33 33 33 32 33 33 33 31 31 32 32 31 31 30 25 21
32 32 33 33 32 31 30 31 30 31 33 33 33 34 33 33 35 36 36 35 36 38 39 38 37 37 37 38 37 36 36 35 35 35 33 30 32 32 32 32 30 25 23
33 34 33 33 32 32 32 31 32 34 34 34 37 37 37 36 37 39 40 41 39 40 41 41 41 41 42 43 42 40 39 39 39 36 36 34 32 33 33 33 30 27 25
33 33 34 35 34 33 34 35 34 36 36 38 38 39 41 40 38 41 42 43 42 42 41 43 43 45 45 46 45 44 42 41 41 40 38 37 36 34 34 34 32 31 30
36 36 37 37 37 36 36 37 36 35 39 41 41 42 42 42 43 43 44 44 45 44 45 46 47 47 48 49 49 49 48 47 44 42 41 40 39 38 35 35 34 35 35
38 36 37 38 38 38 37 37 40 37 37 40 43 44 46 46 47 47 47 47 48 46 47 50 50 51 52 52 52 53 52 50 47 46 44 43 42 41 38 37 38 38 40
35 35 36 37 38 38 38 39 40 42 40 38 41 45 46 48 48 48 49 50 50 50 50 49 51 51 51 51 51 54 54 51 49 48 48 47 45 44 43 41 42 43 43
32 32 34 35 36 36 38 39 41 41 42 42 41 43 46 48 50 51 53 53 54 54 56 54 55 54 54 54 56 54 56 53 52 50 50 51 51 47 46 45 46 51 56
34 34 34 35 36 36 38 40 40 40 41 43 44 44 46 46 47 48 50 53 54 56 56 58 59 57 56 54 55 57 57 56 55 55 52 50 52 53 46 44 49 51 44
34 35 36 37 37 37 38 38 39 40 41 43 44 45 45 45 45 47 49 51 54 55 57 58 60 62 61 59 57 57 57 58 59 57 56 56 54 52 53 52 51 49 45

GFSSE_500_spd_039.txt.gz
Wind_Speed
17 14 13 11 9 7 6 5 5 7 7 9 10 10 11 11 12 12 13 13 13 13 13 13 13 14 16 17 17 17 17 17 17 16 15 15 14 14 15 15 15 15 15
15 12 11 10 8 6 5 5 6 7 9 10 11 11 12 13 14 14 14 14 14 14 14 13 14 14 15 15 15 15 15 14 14 14 15 14 14 14 14 15 15 16 16
14 12 10 9 7 6 7 7 8 10 11 11 11 12 13 14 14 15 15 15 14 14 14 15 15 15 16 15 15 15 15 14 14 13 14 15 15 15 15 15 16 16 15
15 12 10 10 9 8 9 11 12 12 12 12 12 12 13 14 14 14 14 14 15 14 14 15 16 18 18 18 18 17 17 17 15 16 17 15 16 15 15 15 15 16 17
16 15 13 13 13 13 12 13 14 13 13 13 12 13 14 13 14 15 15 16 16 16 16 16 16 17 18 18 19 19 18 18 17 16 17 16 15 14 13 14 14 16 16
19 17 16 16 16 16 16 16 15 15 14 14 14 15 16 16 17 18 17 17 16 15 16 16 17 18 18 19 20 20 20 18 17 17 16 16 15 14 14 15 16 16 15
21 20 19 19 19 19 19 17 17 16 14 16 17 17 17 18 18 18 17 17 16 16 17 16 17 17 18 19 19 19 19 18 17 17 15 15 14 15 15 17 16 16 16
23 23 21 21 21 21 20 18 17 17 16 16 18 20 20 19 18 18 18 17 17 18 17 17 16 17 17 17 18 19 19 18 18 20 19 18 17 17 16 16 16 16 17
27 25 25 24 22 21 20 19 18 18 18 18 19 19 19 21 19 18 18 19 18 18 18 18 17 17 16 17 18 18 19 20 20 21 20 19 18 17 16 17 18 18 19
28 27 26 24 23 22 21 21 21 21 20 20 21 21 19 18 19 19 18 19 19 19 20 19 18 17 18 17 18 19 20 19 20 19 19 18 18 18 18 19 20 21 20
29 28 27 26 24 23 23 23 23 22 22 22 21 21 21 18 17 18 18 19 21 20 20 20 20 20 20 20 20 21 21 20 19 20 19 18 18 19 21 22 21 22 22
30 29 28 27 26 26 25 25 25 24 23 22 22 21 19 18 17 18 18 20 21 22 23 22 21 22 22 23 24 24 23 23 20 22 21 22 21 21 21 21 21 21 21
31 30 28 28 28 27 28 27 24 23 23 23 23 21 20 20 20 21 21 22 22 22 23 23 24 24 25 25 25 26 26 25 24 24 24 25 25 24 23 22 22 21 22
31 30 29 28 29 27 27 26 23 23 23 23 22 23 22 21 22 24 24 25 25 24 24 23 24 25 26 27 28 27 27 26 26 26 28 26 28 27 25 25 24 24 25
31 31 30 30 29 28 26 26 24 23 23 23 23 24 25 23 22 25 26 27 27 26 27 26 26 27 29 29 30 29 28 28 27 27 27 29 28 29 28 28 27 26 27
32 32 33 30 30 28 27 26 25 24 25 25 24 24 24 26 26 26 27 27 28 29 31 30 31 31 31 32 32 32 32 30 30 30 27 29 30 28 29 29 28 28 28
34 33 31 31 30 29 28 28 28 27 25 25 27 26 27 28 29 30 31 30 31 30 31 33 35 35 35 36 37 36 36 35 33 32 31 30 32 32 30 30 30 29 29
35 32 31 32 30 28 29 30 29 29 28 27 29 32 32 32 32 32 32 32 34 35 36 35 35 35 36 38 38 40 39 39 39 37 35 33 33 34 33 32 31 30 30
36 31 30 29 30 31 32 31 31 31 31 31 31 33 33 34 35 35 35 35 36 37 37 38 40 40 38 40 41 42 42 42 42 41 38 37 35 36 36 35 33 32 31
33 31 31 31 30 33 34 34 33 33 33 33 34 35 35 36 36 36 39 40 41 40 40 41 42 43 43 44 46 45 45 45 45 44 41 40 39 38 39 39 37 36 34
35 33 35 37 34 33 35 36 37 34 36 36 35 36 37 39 40 40 40 41 42 42 43 43 44 45 46 47 49 48 50 49 48 48 46 45 43 41 41 41 40 39 38
37 37 38 38 39 38 37 37 36 36 35 36 38 40 41 41 41 42 42 43 44 43 44 44 45 46 47 49 50 51 50 50 46 46 47 46 47 46 43 44 43 42 42
40 40 39 40 41 41 38 37 36 37 37 36 37 40 44 46 46 44 44 44 46 47 48 48 48 50 51 53 54 53 54 53 52 51 50 47 46 46 46 46 47 48 47
40 39 39 38 38 37 36 36 37 37 37 38 38 39 42 45 47 49 49 48 49 49 50 50 53 53 53 53 53 54 54 55 54 54 50 49 49 50 48 47 47 51 54
37 37 35 33 32 33 33 35 36 37 38 39 40 39 40 43 46 47 49 49 49 48 49 51 52 55 57 58 58 59 58 58 57 56 55 51 51 51 50 50 50 53 48
32 32 31 32 33 34 34 35 36 37 39 39 41 42 43 44 44 43 43 45 47 48 49 52 54 55 58 60 60 62 64 64 63 60 57 57 55 54 54 47 53 53 56

GFSSE_500_spd_042.txt.gz
Wind_Speed
17 17 16 14 13 10 9 7 5 4 4 5 7 9 9 10 11 12 12 12 12 13 13 12 11 11 11 12 12 12 12 13 14 14 14 14 15 15 15 15 15 15 15
17 18 16 14 13 11 9 7 4 4 5 7 9 9 10 11 12 13 14 14 15 14 14 12 12 13 13 13 13 13 13 14 15 16 15 14 14 15 15 16 16 16 15
16 15 12 11 10 9 8 6 4 5 7 9 10 11 12 12 14 15 15 15 15 15 15 15 14 14 14 14 15 15 15 16 18 17 17 16 16 16 17 17 16 15 14
15 14 11 11 10 8 7 6 7 8 10 11 11 11 12 13 14 13 13 13 13 14 15 15 14 14 15 15 15 15 15 18 18 16 18 17 17 17 17 16 16 15 15
16 15 12 12 11 9 8 8 10 10 11 12 12 12 13 14 14 14 14 15 15 15 14 14 14 14 15 15 15 16 15 17 18 19 17 18 18 18 17 16 15 16 17
17 16 14 13 13 12 11 11 12 13 14 13 13 14 15 15 16 15 15 15 14 13 14 14 15 15 15 15 17 18 17 16 17 18 19 18 17 17 17 17 19 19 17
19 18 15 15 15 15 14 13 12 13 14 15 17 17 16 16 16 16 15 14 14 14 14 15 16 16 17 17 18 18 19 19 16 16 17 18 19 18 19 19 19 16 15
20 20 17 17 17 17 16 15 14 14 15 16 18 19 18 17 17 17 16 15 14 14 15 15 16 16 17 18 19 19 19 20 19 19 19 19 19 19 20 19 17 17 16
22 21 21 20 20 20 19 18 17 18 18 19 18 18 18 19 18 16 15 15 15 16 16 16 17 17 18 19 19 19 19 20 20 20 20 20 20 19 20 19 19 19 19
25 24 24 23 22 21 21 21 20 20 21 20 19 19 19 17 18 17 15 16 16 17 18 18 19 19 19 20 20 20 20 21 21 22 21 21 20 20 20 20 20 20 20
26 25 25 24 24 24 23 23 22 21 21 21 20 19 18 16 16 17 17 18 18 19 19 20 20 21 21 21 22 22 21 22 22 22 23 22 22 22 21 22 22 22 21
28 26 26 26 26 26 25 25 23 22 23 23 22 20 18 17 18 18 18 20 20 21 21 23 23 23 24 23 24 25 25 24 25 25 25 25 24 24 24 23 22 23 23
30 29 29 28 28 27 26 25 23 24 24 24 22 20 19 18 19 19 19 20 21 22 24 25 26 26 26 25 26 27 27 25 25 25 26 27 27 26 27 26 24 24 24
33 31 31 30 29 29 28 27 25 24 23 24 24 21 20 19 21 21 21 22 23 25 27 28 29 29 29 28 28 29 29 28 27 27 28 28 29 27 27 27 26 26 26
33 32 32 31 30 30 29 27 25 24 25 25 25 25 22 21 21 23 24 24 26 27 29 30 30 31 32 32 33 33 33 32 31 29 29 30 30 30 29 28 28 27 27
36 35 34 32 30 29 30 28 26 25 26 25 24 25 25 23 23 24 26 27 29 31 31 31 31 32 33 34 35 37 37 36 34 34 33 32 32 32 31 30 31 29 29
38 37 36 34 31 29 28 27 27 27 27 26 25 26 27 26 26 27 29 29 30 31 32 33 34 35 36 36 36 39 39 38 37 37 37 34 35 36 35 33 32 32 32
40 38 37 33 30 29 27 27 28 28 26 27 28 29 29 30 30 30 30 30 33 33 34 34 35 36 37 39 41 42 42 41 41 41 41 39 38 38 37 36 34 35 33
38 36 35 33 30 31 28 30 30 29 29 29 30 30 32 32 33 33 32 32 35 36 37 38 39 39 39 40 42 44 43 43 44 44 44 43 42 41 41 39 38 37 36
39 36 34 32 34 34 32 31 31 30 30 31 31 31 33 34 35 35 35 37 38 39 39 41 41 41 42 43 43 44 45 46 47 47 47 47 46 45 45 45 42 40 39
41 37 35 34 34 35 35 34 34 34 33 33 34 35 35 36 37 37 38 40 41 42 42 42 41 42 42 44 45 45 48 49 48 49 49 48 50 48 46 46 46 45 43
40 39 39 39 40 38 36 36 36 37 38 37 38 37 38 38 39 41 42 43 44 44 44 45 45 46 47 48 49 50 52 53 53 55 55 53 51 50 47 45 45 45 45
41 42 43 42 41 40 39 38 38 39 39 39 40 39 40 41 41 43 44 44 44 44 45 46 47 47 48 49 49 53 54 53 54 54 55 55 55 55 52 49 47 47 48
42 43 44 43 41 41 41 40 40 39 39 38 38 38 40 43 45 47 47 46 45 45 47 47 47 46 49 49 51 52 54 55 58 58 55 57 58 56 56 54 52 50 48
40 42 44 43 42 41 41 41 38 37 36 37 37 39 40 43 44 46 47 48 49 49 47 46 47 47 49 52 52 52 54 57 58 58 58 59 62 60 59 59 57 51 52
39 39 40 40 39 38 37 36 36 36 38 38 39 41 42 42 43 45 46 46 45 46 48 49 49 49 49 50 52 56 59 58 57 63 67 63 57 49 61 70 59 57 56

GFSSE_500_spd_045.txt.gz
Wind_Speed
15 14 14 14 13 12 11 9 7 5 4 3 4 5 6 8 9 11 12 14 14 15 15 14 13 11 12 11 12 13 14 15 15 15 16 16 16 16 16 16 16 16 16
16 16 16 16 15 15 12 10 7 5 4 4 6 8 9 10 12 13 14 15 16 15 15 15 14 13 13 14 14 14 15 15 16 17 17 17 17 17 18 18 18 17 16
17 17 16 16 16 14 12 8 6 6 5 6 8 10 10 12 13 14 14 13 13 13 13 13 13 13 13 13 14 15 16 15 16 17 17 18 19 19 19 20 19 17 16
19 16 14 14 13 12 9 7 7 6 6 7 9 11 12 12 13 14 14 14 14 14 14 14 13 13 13 14 15 16 16 16 17 18 18 18 18 19 19 19 19 17 16
18 16 14 14 13 11 7 8 8 7 8 9 10 12 13 14 15 15 15 15 15 14 12 12 12 12 13 14 16 18 18 19 19 19 19 19 19 18 18 18 17 18 19
20 16 15 14 12 10 8 8 10 10 10 10 11 13 15 16 17 16 16 16 15 14 13 12 12 13 14 15 16 18 19 21 21 22 21 20 19 19 20 19 19 21 22
20 18 16 15 13 11 10 8 8 10 12 14 14 15 17 18 17 17 17 16 15 15 14 14 14 14 15 16 17 18 19 20 22 22 22 22 22 22 21 22 21 21 20
22 19 17 15 13 13 12 11 11 11 12 14 16 18 19 18 18 18 17 16 15 15 15 15 16 17 17 18 19 21 20 20 21 21 21 21 22 22 22 21 20 20 20
22 20 18 17 16 15 14 14 14 15 16 16 17 18 20 21 20 18 17 17 16 16 16 17 17 18 19 19 20 21 22 23 24 24 24 23 22 23 22 22 21 20 21
24 21 21 20 18 17 17 17 17 18 18 18 19 19 20 20 20 19 17 17 17 18 18 18 19 20 21 21 21 22 24 24 25 25 25 26 25 24 24 25 24 23 23
25 24 23 22 21 20 19 18 19 20 20 20 20 20 20 20 19 18 18 18 19 19 19 20 21 21 22 22 23 23 24 25 25 26 26 26 27 26 26 27 27 27 25
28 27 25 24 23 23 22 21 21 21 22 22 21 21 21 19 19 19 19 19 20 21 22 23 24 25 25 24 25 26 26 27 28 28 28 27 26 27 27 27 28 28 27
29 28 27 25 26 25 24 23 23 22 23 24 23 21 20 20 21 20 20 22 22 22 23 24 25 26 28 28 28 29 29 30 31 31 31 30 28 27 28 27 27 28 27
32 30 29 29 29 28 26 25 24 24 25 25 24 22 21 21 22 23 23 23 24 25 25 25 27 29 31 32 32 33 33 33 33 33 33 33 32 31 30 30 29 29 29
33 32 33 32 31 29 28 27 26 26 26 26 26 25 24 22 24 24 23 24 25 26 27 28 29 30 32 33 34 35 36 36 36 36 36 36 36 36 35 33 32 31 31
36 35 34 32 32 30 29 29 28 28 27 26 27 26 25 24 25 24 25 26 28 29 29 31 32 32 34 34 35 37 38 38 38 38 38 38 38 38 38 37 36 35 33
39 39 37 36 33 31 31 32 30 29 28 28 28 27 26 26 26 26 27 28 31 32 32 33 35 35 36 37 38 38 39 39 39 40 41 40 41 41 41 41 40 39 37
42 41 40 38 35 33 33 33 31 30 30 29 28 28 29 29 28 28 29 30 33 34 33 35 36 37 39 39 40 42 42 42 42 43 43 44 43 43 43 43 44 44 42
42 41 40 39 37 36 36 34 33 32 32 32 30 30 31 31 32 31 31 33 34 35 35 37 39 41 41 41 42 42 43 44 44 45 44 45 46 46 46 47 47 46 46
42 41 41 41 40 38 37 35 34 34 33 31 30 31 33 34 34 34 34 35 36 37 38 40 42 43 43 42 42 42 43 44 45 46 48 49 49 48 51 50 49 49 49
42 40 41 41 39 39 38 36 35 34 33 32 33 34 35 36 36 37 38 38 39 40 42 43 44 44 44 44 44 45 47 47 48 48 51 51 52 53 52 50 51 50 47
43 42 41 40 39 39 40 38 37 36 36 35 35 36 38 39 39 39 39 40 41 43 45 45 46 46 46 47 47 50 48 48 48 50 51 52 53 53 53 52 51 51 52
46 44 43 42 41 42 42 39 38 38 38 38 39 40 41 41 40 40 40 42 45 47 47 47 47 47 48 48 49 50 49 49 50 50 51 52 52 54 54 55 53 54 54
46 46 45 44 44 44 44 43 42 41 41 40 41 42 43 43 41 42 44 46 49 50 48 46 47 48 48 48 49 49 51 51 51 49 50 55 57 57 57 56 56 58 58
46 45 46 47 48 47 45 44 43 43 43 43 43 42 41 41 42 45 47 49 50 50 49 49 50 49 48 50 49 48 48 52 54 54 52 54 57 60 62 63 65 62 60
45 47 48 48 47 46 46 45 44 44 44 43 41 40 39 41 44 46 48 49 49 48 49 51 52 51 50 50 49 47 51 51 50 53 54 57 59 63 69 72 70 62 56

GFSSE_500_spd_048.txt.gz
Wind_Speed
14 14 13 12 11 9 9 8 8 6 3 1 2 3 4 5 6 8 10 11 12 12 12 13 13 12 12 12 13 12 12 13 14 15 16 16 17 17 18 18 18 18 17
15 15 14 13 13 12 11 10 9 6 4 2 2 4 6 8 9 10 11 11 11 11 10 11 11 11 12 12 12 12 12 13 14 15 16 17 18 19 19 19 20 20 19
15 17 15 15 15 13 11 11 8 5 4 4 4 6 8 9 11 12 12 12 12 12 13 13 12 11 11 12 13 13 14 15 15 16 17 18 19 20 19 19 20 19 18
15 17 14 13 13 12 11 9 7 5 5 5 5 7 9 11 12 13 13 14 14 14 14 13 13 12 12 13 13 14 15 16 17 18 19 19 20 20 21 20 19 19 19
16 19 15 13 11 11 10 9 7 6 6 6 7 8 10 12 14 16 15 14 14 14 14 14 13 13 13 14 14 15 16 17 18 18 19 19 20 20 21 21 21 20 21
19 19 16 14 12 11 9 9 9 8 7 8 8 10 12 14 16 16 16 16 15 15 14 15 14 14 15 16 17 18 18 19 19 19 20 20 21 21 21 21 22 21 22
20 18 17 15 13 12 10 9 9 10 11 11 11 12 14 16 17 17 17 17 16 16 15 15 15 15 16 18 19 19 20 21 21 22 23 24 24 24 25 24 23 23 23
21 19 18 16 14 13 11 10 9 10 11 12 14 17 17 18 18 18 18 17 16 16 16 16 16 16 18 18 19 20 22 22 22 23 24 24 24 24 25 25 24 23 23
23 21 18 16 14 13 13 12 11 11 11 12 13 16 19 21 20 19 18 17 16 16 16 17 17 18 18 20 22 22 22 22 22 23 24 24 24 25 26 26 25 24 24
23 21 19 18 17 15 15 15 14 14 13 13 14 15 18 20 20 19 18 18 17 17 17 18 18 19 20 21 22 24 24 25 25 26 26 26 26 26 27 28 27 26 26
23 22 21 20 19 18 17 17 17 17 16 15 16 18 18 19 19 19 19 19 18 18 18 19 19 20 21 22 23 24 25 27 27 28 29 29 29 28 28 29 30 29 28
28 26 24 23 21 21 20 19 18 18 19 18 18 19 20 19 20 20 20 20 20 20 21 20 21 23 24 24 25 26 27 28 30 30 31 30 30 31 31 30 31 30 29
28 27 26 24 24 23 22 21 20 20 20 21 20 21 21 21 21 21 21 22 22 21 21 22 23 24 25 25 26 27 29 30 31 32 34 34 33 32 32 33 32 32 31
31 28 26 26 25 25 24 24 23 23 22 22 22 23 22 23 23 22 21 21 21 22 21 23 24 26 28 28 29 31 32 33 32 33 34 34 35 35 35 36 35 34 33
32 31 30 30 29 28 28 26 26 26 25 24 24 24 24 24 25 24 22 23 24 23 24 25 26 27 29 31 32 33 34 35 36 35 35 35 36 37 37 37 37 38 37
35 34 33 33 32 31 30 28 28 28 26 26 26 25 26 26 25 25 25 26 26 26 26 28 29 30 31 32 33 34 37 38 38 38 38 38 38 39 39 38 39 40 40
40 38 37 36 35 32 30 30 30 29 28 27 28 27 27 27 26 27 27 28 29 28 29 30 31 32 34 35 37 38 39 40 41 40 40 40 41 41 42 41 40 40 41
40 38 38 38 36 35 34 33 32 31 30 30 30 30 30 28 27 28 29 30 31 30 31 32 34 35 36 39 40 42 43 43 43 41 41 42 42 43 43 45 46 44 43
43 42 41 40 39 37 35 35 35 34 33 33 33 32 32 30 30 30 30 32 32 33 34 35 36 37 39 42 43 43 44 43 43 44 44 45 46 47 47 47 48 48 48
46 43 41 40 38 38 39 38 36 35 35 35 34 33 34 33 33 33 33 34 35 36 36 37 38 40 43 44 45 45 44 44 43 43 45 46 48 48 49 48 50 50 49
52 48 45 42 41 41 40 40 40 39 37 36 35 36 36 35 36 36 36 37 38 38 38 40 41 43 45 47 47 45 45 45 45 45 45 46 47 49 50 51 51 50 49
54 49 47 46 45 43 43 42 42 40 38 37 37 37 37 37 38 38 39 40 41 41 40 41 44 46 48 48 48 47 46 46 46 46 47 48 48 49 50 49 50 53 53
51 52 48 46 44 44 44 43 43 41 39 39 39 39 39 40 41 41 42 42 42 41 41 45 49 50 50 47 48 49 49 47 47 46 47 46 47 48 48 49 51 53 55
45 48 49 48 46 44 43 43 43 42 41 40 40 40 41 43 44 44 44 43 41 42 45 48 51 51 49 48 48 47 47 48 48 48 45 45 45 44 47 51 54 57 60
48 47 48 47 46 46 45 45 44 43 43 43 43 43 43 44 45 47 45 42 43 45 48 50 51 50 48 48 47 47 47 47 43 42 39 41 44 47 48 52 56 58 61
48 47 46 46 47 47 47 47 47 47 46 45 44 44 44 45 46 44 43 43 45 48 49 51 51 49 48 48 48 49 48 43 42 40 42 44 46 47 48 52 56 59 62

GFSSE_500_spd_051.txt.gz
Wind_Speed
13 11 12 10 9 8 7 7 6 6 4 2 1 1 3 3 4 6 7 9 10 10 10 9 9 9 10 10 10 11 11 12 12 13 14 15 15 16 16 16 17 17 19
13 12 13 12 10 9 9 8 8 7 4 3 2 2 3 4 6 8 9 9 10 10 10 11 11 11 10 10 11 11 12 12 13 14 15 15 16 17 17 18 18 18 19
14 13 12 13 12 10 10 9 8 6 4 3 4 3 3 5 7 9 9 10 10 11 11 12 12 12 11 11 11 12 13 14 15 15 15 17 17 18 17 18 19 19 18
14 13 13 13 12 10 8 8 7 4 4 4 5 5 6 7 8 10 11 11 11 12 11 12 12 13 13 13 14 15 15 16 16 17 17 18 19 19 20 20 20 20 20
15 13 13 13 13 9 7 7 6 5 5 5 6 7 7 8 10 11 11 12 12 12 12 12 12 12 12 14 14 15 17 17 18 19 19 19 19 20 21 21 22 22 22
17 15 14 14 14 10 8 8 7 6 6 6 7 8 8 10 11 13 13 13 13 13 13 13 13 13 14 14 15 16 17 18 18 18 19 20 20 21 22 22 23 24 23
19 17 15 14 15 12 10 9 7 7 7 8 9 10 11 12 13 14 14 14 14 14 14 14 14 15 15 15 16 17 18 19 20 21 22 23 23 23 24 24 24 25 25
22 19 18 17 16 14 12 10 8 7 8 10 12 13 14 15 14 15 14 15 15 15 14 14 14 15 16 16 17 18 19 21 22 23 23 24 25 26 26 26 25 26 26
25 22 20 19 17 15 14 12 10 8 8 9 11 14 16 17 17 17 15 15 14 15 14 14 15 16 17 18 19 20 21 22 23 24 25 25 26 27 27 27 26 26 27
26 23 21 20 18 17 15 14 12 11 10 10 11 13 15 17 18 18 17 17 16 15 15 15 16 17 18 20 21 22 23 23 24 25 26 26 28 29 29 29 28 28 28
27 24 22 21 21 18 17 16 15 13 13 12 13 14 15 16 18 18 17 17 17 17 17 16 17 17 18 19 21 22 23 24 25 26 27 26 28 28 28 30 30 30 30
28 26 23 23 22 21 19 17 16 15 15 14 15 16 17 18 18 17 17 17 17 17 17 17 17 19 20 20 22 24 25 26 27 28 29 28 29 29 29 29 30 31 31
30 29 26 24 23 22 20 18 17 17 17 17 17 17 19 19 19 19 19 20 19 19 19 19 19 21 22 23 23 24 26 27 28 29 31 31 32 31 31 32 32 33 33
34 29 27 27 24 22 21 20 20 19 19 19 19 20 21 21 21 21 21 21 20 20 20 20 21 23 23 24 25 27 28 29 31 33 33 33 34 35 35 34 34 34 35
33 31 30 28 26 25 24 23 23 22 22 22 22 21 22 23 23 22 22 22 22 22 22 22 23 24 25 26 29 30 31 32 34 36 36 37 38 38 37 36 36 36 37
36 35 34 31 29 28 27 26 26 26 26 25 23 23 24 25 25 24 24 24 24 24 24 25 25 26 28 29 32 32 33 35 38 39 39 39 40 37 37 38 37 37 37
40 39 38 35 32 32 30 29 30 28 27 26 26 26 27 27 26 25 26 26 27 26 26 27 28 29 32 33 34 35 37 39 41 41 41 41 40 39 39 41 41 41 41
41 40 39 38 37 34 33 32 31 29 29 30 30 30 30 29 27 26 27 29 29 29 29 30 31 34 35 36 37 38 40 42 44 43 42 42 42 42 42 43 42 43 43
46 42 41 41 39 37 36 35 32 32 34 34 33 32 32 29 29 29 29 30 31 32 32 34 35 37 38 38 38 40 42 44 45 44 43 44 44 44 43 43 43 44 44
44 44 42 43 42 42 40 38 36 37 36 36 35 34 34 33 32 31 31 32 33 35 35 37 38 39 39 39 39 41 45 46 45 43 43 43 42 42 43 44 44 43 43
45 44 40 43 45 44 42 40 39 40 39 39 38 38 37 35 35 34 34 35 36 37 38 40 41 41 39 40 41 45 46 45 44 44 44 43 42 42 42 41 43 44 44
51 48 46 47 48 47 45 44 43 42 41 40 40 40 39 38 38 37 37 38 39 40 41 42 44 42 40 43 46 48 47 44 43 43 44 43 43 41 40 41 41 40 43
56 57 53 50 45 48 47 46 45 44 43 42 41 41 40 40 40 40 40 42 42 43 43 44 44 41 42 45 49 50 48 44 42 42 41 40 39 38 40 39 42 44 45
51 50 50 48 54 53 48 47 46 45 44 43 43 42 42 43 44 44 44 44 44 44 44 43 41 41 45 47 49 47 45 44 44 44 41 38 37 38 39 41 43 44 46
52 50 49 49 50 52 53 53 50 49 46 45 44 44 45 45 45 44 44 44 45 46 44 41 42 45 48 49 48 45 45 44 44 42 38 37 37 40 41 43 44 44 44
44 45 46 47 45 45 47 49 50 51 49 48 45 44 44 45 45 44 45 46 47 44 42 43 45 48 49 50 46 44 44 44 41 39 39 37 38 40 43 44 44 43 44

GFSSE_500_spd_054.txt.gz
Wind_Speed
13 12 12 10 10 9 7 7 5 4 3 2 1 1 0 1 2 4 6 7 8 8 9 9 10 10 10 11 10 10 11 12 13 14 14 14 15 16 18 18 18 18 18
14 14 13 11 10 9 8 6 5 4 3 3 2 2 1 2 4 5 6 8 8 8 8 9 10 11 10 11 11 11 12 14 15 14 14 15 16 16 17 17 18 19 19
16 13 13 11 10 9 9 7 6 5 5 4 3 2 3 4 6 6 7 8 8 9 9 9 9 10 10 10 11 12 13 14 14 14 15 15 16 16 17 18 19 21 22
16 14 13 11 10 8 9 8 7 7 5 3 3 3 5 6 7 7 7 8 8 8 9 10 10 10 10 10 11 12 13 14 15 16 16 16 17 17 18 19 19 20 21
18 14 13 12 10 8 9 9 9 7 5 4 4 4 5 7 8 8 8 9 9 10 10 11 12 12 11 12 13 13 14 16 17 17 18 19 19 20 20 21 22 22 23
19 15 14 13 12 9 9 10 9 8 6 5 5 5 7 8 9 9 9 9 9 11 12 12 12 12 12 12 13 14 15 17 17 18 19 20 21 22 23 23 23 23 23
21 18 16 14 14 12 11 10 10 8 6 6 6 7 8 8 10 10 10 10 11 12 12 12 12 12 12 13 13 15 16 17 18 19 21 22 22 23 24 24 25 25 25
26 21 19 17 17 15 14 11 11 9 7 7 8 8 9 10 11 11 12 12 12 12 13 13 13 13 13 14 15 16 17 19 19 21 22 22 23 23 24 25 26 26 26
28 24 22 21 19 17 17 14 12 10 8 8 9 10 11 12 13 13 13 13 13 13 13 13 14 14 15 16 17 18 19 20 21 22 22 24 25 25 26 27 27 27 27
30 26 24 23 21 20 19 17 14 12 11 9 10 11 12 14 15 15 15 15 13 13 14 14 15 16 17 18 19 19 20 21 23 23 25 26 27 28 29 30 30 29 29
29 27 25 25 23 22 22 20 18 16 14 12 12 12 13 13 14 15 16 15 15 15 16 17 17 17 18 19 20 21 21 22 24 25 26 27 28 29 30 31 31 31 31
32 29 26 26 25 24 24 22 20 17 15 14 13 14 14 14 15 15 15 15 16 17 17 17 17 18 19 20 21 21 22 24 26 26 27 29 31 30 30 32 32 33 32
36 32 29 27 27 26 25 23 21 18 16 16 16 16 16 16 16 16 16 16 17 17 17 18 18 19 21 21 22 23 25 27 28 29 30 31 33 34 33 34 33 33 33
37 33 30 29 28 27 26 25 22 20 19 18 18 18 18 18 18 18 18 18 18 18 18 19 21 22 23 23 24 25 27 28 29 30 32 35 36 37 37 36 34 33 34
38 35 34 32 31 29 27 25 24 22 21 20 21 20 20 20 20 20 21 21 21 20 21 22 23 24 25 26 27 29 30 30 31 33 35 37 38 39 38 37 36 36 35
39 37 36 36 34 32 30 28 26 26 24 23 23 24 23 23 23 23 23 23 22 23 24 25 25 26 27 28 30 32 33 33 34 35 38 40 40 40 39 37 36 36 37
40 39 38 38 35 34 33 31 30 29 28 26 26 26 25 25 25 26 25 25 25 25 26 27 27 28 29 31 34 35 36 36 37 38 41 43 43 41 39 38 37 37 37
41 40 41 39 38 37 36 34 33 31 30 29 28 27 27 28 28 27 27 28 28 28 29 29 30 31 32 34 36 37 38 38 38 41 44 45 43 42 41 40 39 38 39
42 42 42 44 41 41 39 37 35 33 31 31 31 30 31 31 31 30 30 31 30 30 31 31 32 33 35 37 39 40 39 38 40 43 45 44 43 42 42 42 42 40 38
42 41 44 44 47 41 41 38 37 36 35 35 35 35 34 33 32 31 31 33 33 33 33 33 35 37 39 41 41 40 40 40 42 46 46 45 43 42 42 43 42 40 38
45 42 42 40 45 47 42 40 39 39 39 38 39 39 38 37 36 35 34 35 36 36 36 37 38 40 42 43 43 41 39 41 44 48 46 44 42 42 42 42 40 38 38
46 47 45 42 41 39 37 42 42 43 43 42 41 42 43 41 39 38 37 36 36 37 38 41 43 43 43 45 44 41 39 43 45 47 45 44 44 44 44 41 38 39 37
50 48 47 46 45 44 44 42 45 44 45 46 46 45 45 44 42 41 39 38 39 42 42 44 44 44 45 45 42 41 44 46 47 45 44 43 43 42 42 39 40 39 41
46 46 50 50 49 46 45 46 50 49 49 48 47 46 45 44 43 42 41 42 45 46 46 45 45 45 46 42 41 44 47 49 48 45 43 43 42 39 39 41 39 40 41
48 47 47 47 50 53 54 54 51 51 50 47 46 46 46 46 46 44 46 47 47 47 45 45 45 45 41 42 44 47 49 48 45 45 44 43 40 40 39 38 40 42 44
50 50 49 50 52 52 51 50 50 51 52 53 52 50 50 49 47 49 49 47 46 45 45 46 44 44 44 45 47 50 49 45 45 46 44 40 38 39 41 43 43 44 44

GFSSE_500_spd_057.txt.gz
Wind_Speed
14 14 14 13 13 11 9 8 6 4 3 2 2 2 1 2 2 3 4 5 5 6 7 7 8 9 9 10 10 11 12 12 13 14 15 15 16 16 17 18 18 19 20
17 15 14 14 12 11 9 8 6 5 3 3 3 2 2 3 4 5 6 7 7 7 8 8 9 9 9 10 10 11 12 13 14 15 15 16 16 17 18 19 20 21 21
18 18 15 12 11 9 9 9 7 6 4 4 4 3 3 4 5 6 7 7 7 8 8 9 10 10 10 10 11 11 12 13 14 15 15 16 17 18 20 21 21 22 23
19 18 15 12 11 9 8 8 7 7 7 6 5 4 4 5 6 7 7 7 7 7 8 9 10 10 10 10 11 12 12 13 14 15 16 17 18 19 20 21 22 22 22
20 18 16 13 11 10 8 7 9 8 8 8 6 5 5 6 7 8 8 8 8 8 9 9 10 10 10 11 11 12 12 13 14 16 17 18 19 20 21 22 23 23 23
21 18 17 13 12 10 8 8 10 10 9 8 6 5 5 6 7 8 8 8 9 9 9 10 10 11 11 12 12 12 13 14 15 16 17 18 19 21 22 24 25 25 25
23 20 17 15 13 11 10 10 10 10 9 8 6 6 7 6 7 8 8 8 9 10 10 11 11 11 11 12 13 13 14 15 15 16 18 19 21 23 25 25 26 26 26
26 22 19 17 16 14 13 11 12 11 10 9 8 8 8 8 8 9 10 10 10 10 11 11 11 12 12 14 15 15 16 16 17 18 20 21 23 25 26 27 28 27 26
30 26 22 20 19 17 16 14 14 13 12 11 9 8 9 9 9 10 10 11 11 11 11 12 12 13 14 15 16 16 17 17 18 20 22 24 25 26 27 28 28 28 27
33 29 26 24 22 20 19 18 17 15 13 12 11 10 10 11 11 12 12 12 12 11 12 13 14 15 16 17 17 18 19 19 20 22 25 25 25 28 31 32 30 30 30
35 32 29 27 25 23 23 22 21 18 16 14 14 13 12 12 12 13 14 14 14 14 14 16 16 17 18 19 19 20 20 21 23 25 27 26 27 29 32 33 34 34 34
37 34 31 29 29 26 27 25 24 21 19 17 17 16 14 13 13 13 13 14 14 14 15 16 17 18 19 20 21 22 22 23 25 27 27 27 28 30 31 35 35 36 35
39 36 33 30 32 28 29 28 26 23 20 19 18 17 16 15 14 14 14 14 15 15 16 16 18 19 20 22 23 23 24 25 27 29 30 29 31 32 34 36 36 35 34
41 37 33 30 30 29 30 30 28 25 22 21 19 18 18 17 17 16 17 16 16 16 17 18 19 21 22 24 25 25 26 29 31 31 30 31 32 34 37 38 38 36 33
42 38 36 32 30 30 29 30 28 25 23 21 21 21 20 20 20 19 18 18 18 18 20 20 21 22 24 25 26 28 29 31 33 33 32 32 33 37 39 40 39 36 34
45 42 40 36 33 32 32 31 30 27 26 25 24 24 23 22 22 21 21 20 20 21 22 23 24 25 26 26 28 30 32 33 35 35 34 33 36 39 41 42 41 37 35
46 45 42 37 36 35 36 35 32 31 29 29 27 27 26 24 23 23 23 22 22 24 25 25 26 27 28 28 31 32 33 36 37 38 37 35 39 42 44 44 41 39 37
46 45 43 40 38 37 37 38 36 34 34 33 32 30 29 26 24 25 26 26 26 26 27 28 29 29 30 31 34 35 37 39 40 41 39 37 40 44 45 44 42 40 39
47 45 43 42 40 38 37 39 40 38 37 36 34 32 30 29 28 28 29 29 29 28 29 30 31 32 32 34 36 38 39 41 42 42 39 40 43 45 47 46 42 42 42
49 46 43 43 42 40 41 41 41 42 42 39 36 34 33 32 32 32 33 33 32 32 32 32 33 34 35 36 38 40 41 42 43 41 39 42 46 48 47 45 43 43 43
48 46 46 43 43 44 43 40 50 44 43 39 37 37 36 35 35 35 36 37 37 35 34 35 35 36 38 40 41 42 42 43 42 38 42 46 49 49 46 44 44 44 42
45 45 46 43 43 42 40 39 38 53 43 36 37 39 38 39 38 38 40 39 39 38 36 37 37 40 41 43 43 43 42 43 42 39 44 49 50 50 47 47 46 44 40
55 50 47 47 45 43 42 41 37 40 35 40 40 42 41 42 42 43 43 42 40 40 38 38 42 44 44 44 43 44 46 42 43 45 46 49 48 47 45 46 45 42 40
54 57 52 50 48 47 43 42 43 42 42 45 46 47 47 48 47 46 44 43 42 42 41 42 45 46 46 44 44 44 43 44 47 47 50 50 47 47 47 46 42 40 40
54 58 57 53 49 50 48 46 48 48 48 50 49 48 48 49 49 47 45 44 44 45 43 44 48 46 44 44 45 43 44 45 47 51 52 47 46 48 47 44 43 41 43
49 47 51 52 47 50 49 49 50 51 51 51 53 53 49 48 49 50 48 48 47 46 47 49 46 44 44 43 43 46 46 49 49 51 48 45 45 45 45 43 43 43 44

GFSSE_500_spd_060.txt.gz
Wind_Speed
14 14 13 12 11 11 11 10 9 7 5 2 2 1 1 1 2 2 4 5 6 6 6 7 8 9 10 10 10 10 11 12 13 13 14 14 15 16 16 17 19 20 21
18 15 15 14 12 11 11 9 7 7 6 4 3 2 2 2 3 4 4 5 6 6 6 6 7 9 9 10 10 10 10 11 12 13 13 14 14 15 16 17 19 20 21
19 17 16 14 12 11 10 9 7 7 6 5 4 3 3 3 4 5 6 5 5 5 5 6 8 9 9 9 9 9 10 11 11 12 13 14 14 16 17 19 21 22 23
18 19 17 15 13 12 10 9 9 8 7 6 5 4 4 3 4 5 7 7 6 6 6 7 7 8 8 8 8 9 10 10 11 12 13 14 16 17 19 21 23 23 23
19 19 17 15 13 12 11 9 9 9 9 7 7 5 5 4 5 5 6 7 7 6 6 7 7 7 7 8 8 9 10 11 12 13 14 15 17 18 20 22 23 23 24
21 19 18 16 14 12 11 9 9 10 10 9 8 6 6 5 5 5 6 7 6 6 6 7 7 7 7 8 9 9 10 12 13 14 15 17 18 20 22 23 25 26 25
23 22 20 17 15 13 11 10 9 10 11 10 9 7 6 6 6 6 6 6 7 6 7 7 7 8 8 9 10 11 12 12 14 15 16 18 20 21 21 24 25 26 26
26 24 22 19 16 14 13 11 11 11 12 11 9 7 7 7 7 7 7 7 7 7 7 7 8 9 10 11 12 12 13 14 15 16 18 21 22 21 22 25 26 26 27
28 25 24 21 19 17 15 14 14 13 13 12 10 9 8 8 7 7 7 8 8 9 9 9 10 11 11 11 12 13 14 15 15 17 20 23 24 23 23 25 26 28 29
30 28 25 22 20 20 18 17 16 16 15 13 11 10 9 8 8 8 9 8 9 9 10 10 11 11 12 12 13 14 16 17 17 20 22 24 25 26 27 27 27 30 31
33 31 28 25 23 22 22 21 19 18 18 15 14 12 11 10 10 10 10 11 10 10 11 12 13 13 14 15 16 17 18 19 20 22 25 26 27 26 27 29 32 34 35
35 34 30 28 26 24 25 24 23 22 20 19 17 15 13 13 12 11 11 11 12 12 12 13 14 15 16 17 18 19 20 21 22 24 27 29 29 28 27 28 32 35 37
36 37 33 31 27 27 27 28 28 24 23 22 20 18 16 15 14 13 12 12 13 13 13 14 14 15 16 18 19 21 22 22 24 26 28 30 32 31 29 31 33 36 36
35 37 35 33 28 26 27 29 29 28 25 25 22 20 19 17 16 14 14 14 14 14 15 16 16 17 18 19 20 21 22 24 26 28 29 32 33 33 32 33 36 38 38
38 38 37 35 31 27 25 25 28 30 28 26 24 23 21 20 18 17 16 16 16 16 17 18 18 19 20 21 22 23 24 26 27 29 32 34 35 35 34 35 37 40 40
38 36 36 37 34 31 27 25 27 30 29 28 26 26 24 23 21 19 20 18 18 18 18 19 21 22 22 23 25 25 26 28 30 33 35 36 36 37 36 37 39 42 41
43 41 39 38 37 34 31 28 27 30 30 30 29 29 28 26 23 22 22 21 20 21 21 21 23 24 25 26 27 28 29 31 33 35 37 37 37 37 37 39 41 43 41
46 45 45 44 40 38 34 32 30 32 32 33 33 32 32 28 26 25 23 23 23 23 24 25 25 25 27 28 30 30 31 32 35 36 37 39 40 37 35 41 43 45 43
47 47 45 44 42 40 37 35 34 33 35 36 37 36 34 31 29 28 26 27 27 26 26 27 28 29 28 30 31 31 34 35 38 38 39 41 41 38 40 43 45 45 43
47 47 45 44 43 42 40 38 36 34 35 38 39 38 36 34 32 30 30 30 30 30 30 30 30 30 31 31 30 34 36 37 39 38 39 41 39 40 43 44 46 45 41
49 47 45 44 44 42 42 41 38 37 34 39 39 40 39 36 34 33 32 33 33 33 34 35 33 33 33 33 34 37 37 39 39 38 39 38 40 43 44 47 47 41 40
58 47 44 45 44 42 42 42 41 41 37 37 32 49 41 36 35 34 35 36 36 37 37 38 38 37 35 35 40 39 38 37 39 40 39 39 42 43 46 48 43 41 42
48 59 47 47 44 42 43 43 42 40 41 38 34 30 36 49 39 38 38 40 41 41 41 40 40 39 40 38 41 42 41 40 39 37 39 38 42 45 47 44 42 42 43
45 46 49 53 45 45 44 44 43 41 39 39 37 35 37 37 41 44 45 44 47 47 45 42 42 41 42 41 45 42 42 42 41 38 41 43 44 49 46 44 41 43 42
48 48 48 49 52 59 53 51 45 44 42 45 43 43 42 43 45 46 47 46 47 47 46 45 43 43 43 43 47 42 42 41 40 41 42 44 46 48 45 44 41 42 41
50 50 50 50 50 50 57 61 57 50 47 46 47 46 49 50 48 48 50 51 50 50 51 50 48 48 46 47 41 44 44 42 41 42 43 45 46 45 44 44 41 43 42

GFSSE_500_spd_063.txt.gz
Wind_Speed
17 14 11 11 10 9 9 9 8 7 7 5 3 2 1 1 2 3 5 5 5 6 6 6 6 7 7 7 6 7 7 8 9 10 10 11 12 13 15 16 17 19 20
18 15 14 12 12 11 10 10 9 8 7 6 5 3 2 2 3 4 4 5 5 5 5 5 5 6 6 6 6 6 7 7 8 9 10 10 11 13 15 16 18 19 21
19 18 15 14 13 12 12 11 9 8 7 7 6 5 4 3 3 4 4 5 5 5 5 5 5 5 6 5 6 6 7 7 9 9 9 11 12 13 14 17 19 20 21
21 19 17 14 13 12 12 12 10 9 8 8 7 7 5 4 3 4 5 5 5 5 5 5 5 5 5 5 6 6 7 8 9 10 11 12 13 14 16 17 19 21 22
21 20 19 16 14 13 13 12 11 10 10 10 9 8 7 6 4 4 5 5 5 4 4 4 4 5 4 5 6 7 7 8 9 10 11 13 14 16 17 18 20 22 22
23 20 19 18 16 14 12 12 11 11 11 12 11 10 8 6 5 5 4 5 5 5 4 4 4 4 5 6 7 7 8 9 10 10 11 14 17 18 18 19 22 24 23
25 22 19 19 17 15 14 12 11 12 13 13 13 11 9 7 7 6 5 5 5 5 5 4 4 5 6 7 8 8 9 9 10 11 12 15 18 19 20 21 23 23 24
27 25 23 20 18 16 15 13 12 13 13 14 13 11 10 8 8 6 6 5 5 5 5 5 5 6 7 7 8 8 9 10 12 11 13 16 18 19 20 21 22 24 27
31 27 25 22 20 17 15 15 14 14 14 15 13 12 10 10 9 7 5 6 6 5 6 6 7 6 7 7 8 9 10 11 13 14 16 18 21 23 23 22 23 26 28
33 30 26 24 21 19 18 16 15 15 15 16 15 14 12 11 10 8 7 6 6 6 6 6 7 7 6 8 9 11 13 14 15 16 18 20 23 26 28 27 28 28 29
32 30 29 25 21 19 19 19 18 17 18 17 16 15 14 13 11 10 9 9 7 7 7 8 9 9 9 11 12 13 15 16 17 18 19 22 23 27 29 29 28 30 32
33 31 29 27 24 20 21 21 20 19 20 19 19 18 16 15 13 13 11 11 10 9 9 9 10 11 11 12 14 15 16 17 19 21 22 23 25 28 28 29 29 31 33
35 36 33 30 25 23 22 23 22 22 22 22 22 20 19 18 16 15 13 13 13 12 11 11 11 11 13 14 15 17 18 18 20 22 24 24 28 29 30 31 30 31 34
39 36 35 30 26 25 23 24 23 24 24 24 24 23 22 21 18 16 16 14 15 15 14 13 13 14 13 14 16 18 20 20 21 23 25 26 29 30 31 32 32 32 34
38 38 32 31 28 25 24 23 24 25 24 24 24 25 25 25 21 18 18 17 17 17 17 16 16 17 17 18 18 20 21 22 22 24 27 29 31 32 32 34 33 32 34
35 38 39 34 28 25 26 25 26 26 26 25 25 26 26 26 24 21 19 19 19 19 18 18 17 18 19 20 20 21 22 24 25 26 28 30 31 33 34 36 32 31 35
33 30 29 27 25 29 27 26 27 28 28 26 27 28 27 27 27 25 23 22 21 20 20 20 20 22 22 22 23 24 25 25 26 28 29 32 32 32 34 36 34 35 37
39 37 35 28 29 29 28 29 30 30 30 28 29 30 30 29 28 28 26 25 23 23 24 23 22 23 24 25 26 26 27 27 29 31 32 33 33 33 34 30 33 36 38
44 40 36 35 34 35 35 34 34 33 32 31 31 32 33 31 31 30 29 28 26 25 25 27 27 26 26 27 28 28 29 28 32 34 35 36 36 38 36 34 37 36 40
44 41 43 43 42 40 39 39 39 37 35 34 33 34 34 32 33 33 31 31 30 29 28 28 28 29 30 30 30 31 31 31 37 34 34 35 37 38 37 37 36 38 40
48 44 44 43 45 42 40 40 40 39 37 37 34 34 33 32 34 34 35 34 33 32 31 31 31 32 33 34 33 33 32 34 39 38 36 36 38 37 37 37 37 39 38
46 49 52 43 46 42 41 41 40 39 38 38 38 36 33 29 28 41 35 37 37 35 35 35 36 37 38 38 38 38 36 34 38 38 35 38 39 37 38 38 38 39 38
47 46 46 51 49 43 44 43 41 40 41 41 41 38 34 34 36 29 40 43 38 38 38 39 41 42 43 43 42 42 42 39 38 36 35 37 36 37 38 39 40 39 38
47 49 49 44 49 55 53 47 43 44 44 41 39 36 36 37 37 35 34 35 46 51 48 46 45 45 48 47 44 44 45 44 42 36 37 38 38 38 38 40 40 38 39
37 41 48 50 45 45 54 57 46 53 46 40 39 39 40 39 40 42 41 41 41 45 46 47 47 49 49 49 48 48 45 42 36 36 38 39 39 40 40 42 40 38 38
43 43 43 43 45 45 45 46 50 49 49 43 48 48 44 42 44 44 48 48 48 49 49 50 51 49 49 49 47 44 40 40 37 39 39 39 42 42 40 42 41 39 39

GFSSE_500_spd_066.txt.gz
Wind_Speed
21 18 17 15 12 11 9 8 7 6 6 6 5 4 3 3 2 2 3 4 6 6 6 6 5 5 4 4 4 3 3 3 4 5 6 7 9 10 11 13 15 16 18
20 20 18 16 14 12 10 9 9 8 8 7 6 5 5 4 3 3 3 4 5 7 6 6 5 4 4 4 3 4 3 4 4 5 7 9 9 10 11 14 15 17 19
24 22 19 17 15 13 11 11 10 10 9 8 7 7 6 5 5 4 4 4 5 6 7 6 6 5 4 4 4 4 4 5 5 7 7 8 10 11 13 15 16 19 21
26 24 22 18 16 14 12 12 12 11 11 10 9 8 8 7 6 6 5 5 6 6 7 6 5 5 4 4 4 4 5 5 6 6 7 8 10 12 14 14 17 20 21
27 25 23 21 18 15 14 14 13 13 12 12 12 11 10 9 7 7 7 7 7 7 7 7 5 5 4 4 4 4 5 7 7 7 7 9 11 13 14 16 18 21 22
28 26 24 21 19 17 15 15 14 14 14 14 14 13 12 10 9 8 8 8 7 7 8 7 7 5 5 5 5 6 6 6 7 7 7 10 12 14 16 17 19 21 22
30 27 23 22 20 18 16 16 15 15 15 15 15 14 13 11 9 8 9 9 9 8 8 8 7 7 6 6 6 7 7 7 7 8 9 11 13 15 17 20 21 22 24
35 30 25 23 21 18 17 16 15 15 16 16 16 15 14 12 10 9 9 9 9 8 8 8 7 7 7 7 7 6 7 8 8 10 11 12 14 16 19 21 22 23 25
36 33 29 26 23 20 17 17 16 16 16 16 17 17 15 14 12 11 9 9 8 8 8 8 8 7 7 7 7 7 8 9 10 11 13 14 17 18 20 21 22 23 25
38 36 33 30 25 23 20 18 17 16 16 17 17 18 16 15 13 12 10 9 9 8 8 9 8 7 7 8 8 8 9 11 12 13 14 16 19 20 23 23 23 24 26
39 38 35 33 30 26 23 20 18 17 17 17 18 19 19 17 16 14 11 11 10 10 9 10 9 8 8 9 9 10 11 12 13 13 15 18 19 21 24 24 24 25 27
43 40 37 34 32 28 25 22 20 18 16 17 18 20 20 19 17 15 13 12 11 11 12 12 11 11 10 11 11 12 13 14 15 15 16 18 21 23 25 27 27 28 29
46 44 38 35 33 28 25 22 19 19 19 16 18 20 21 21 19 17 15 14 12 14 14 14 14 13 13 13 14 14 15 17 19 20 20 21 23 25 27 27 27 29 30
41 42 41 38 34 30 26 22 19 19 21 21 19 21 23 22 21 20 18 17 15 15 16 16 17 16 15 15 16 17 18 19 21 22 24 24 25 28 28 28 28 30 29
44 38 45 44 37 31 29 24 22 20 20 22 23 23 23 23 23 21 21 20 18 17 18 18 18 18 17 17 18 19 20 21 23 24 26 27 28 30 31 30 29 30 28
43 24 40 40 40 33 28 25 23 21 21 22 24 25 24 25 24 24 24 23 22 21 20 20 19 18 19 19 20 21 21 23 25 27 27 28 31 33 32 33 35 31 28
40 31 33 44 38 35 31 26 24 23 23 23 24 26 26 27 26 26 27 25 24 23 23 22 21 21 21 21 21 22 24 25 26 28 29 30 33 34 33 31 34 35 33
46 34 35 22 37 34 28 28 28 24 25 25 25 29 28 29 28 28 29 28 27 26 25 25 25 25 24 24 23 23 25 27 28 30 31 32 35 33 32 32 32 33 35
45 41 30 28 31 28 30 25 23 24 27 26 27 31 31 29 29 29 29 30 30 29 29 28 28 28 27 27 27 27 29 30 31 33 33 35 35 35 33 34 33 34 34
45 43 47 39 25 26 29 27 27 30 32 32 32 32 33 32 31 30 31 31 31 31 32 32 31 31 31 30 29 31 32 34 34 37 36 38 39 37 35 36 36 36 36
39 44 45 38 33 35 33 32 33 34 34 36 36 35 34 32 32 34 33 32 31 33 33 34 33 34 33 34 33 35 35 38 39 40 41 41 41 39 34 36 36 37 37
39 40 39 42 43 39 33 38 34 34 35 38 38 37 36 35 35 36 30 26 28 37 36 36 36 35 34 36 37 37 37 38 42 42 41 43 44 40 35 37 36 37 38
42 43 46 43 44 43 42 41 36 40 43 43 44 42 39 37 38 39 38 36 36 30 37 41 41 37 39 42 44 46 45 46 45 43 42 43 43 38 36 36 37 39 38
46 46 45 47 43 41 41 37 43 44 42 47 46 45 44 43 44 42 40 38 36 34 35 35 36 41 44 47 48 49 49 52 51 48 47 41 39 35 36 36 36 39 39
40 40 44 43 50 52 50 46 41 45 49 44 46 50 45 44 46 39 37 38 38 40 40 40 41 44 47 48 48 49 50 50 51 49 43 40 39 37 37 36 36 38 39
42 42 41 42 38 46 52 48 46 46 51 48 45 45 43 41 40 40 41 42 43 45 47 47 49 52 52 49 49 49 47 45 45 43 40 39 40 39 40 39 37 38 38

GFSSE_500_spd_069.txt.gz
Wind_Speed
23 21 19 17 15 14 12 11 9 7 6 5 5 4 4 3 2 4 5 6 6 7 8 7 7 7 6 6 6 5 4 3 3 3 5 6 7 8 10 12 14 16 19
23 21 20 19 17 15 13 12 10 8 8 8 7 6 5 4 3 4 6 6 6 7 8 9 8 8 7 7 6 5 4 3 3 4 5 6 7 9 11 13 15 17 19
28 24 22 20 19 17 14 12 11 10 10 9 8 8 6 6 5 6 6 7 7 8 8 9 9 9 8 7 6 5 4 3 4 5 5 6 8 11 12 14 16 18 20
29 26 23 22 19 17 15 13 12 12 11 11 11 10 9 8 7 7 7 7 8 9 9 10 10 10 9 8 6 5 4 5 5 5 6 7 9 12 13 14 16 19 21
29 28 26 23 20 19 17 15 14 14 13 13 12 12 10 9 8 8 8 8 8 9 9 10 10 9 9 8 7 6 5 6 6 6 7 7 9 12 13 16 18 21 21
33 31 27 24 22 19 17 17 16 15 15 15 14 14 12 11 10 10 8 8 9 9 10 10 10 9 9 9 8 8 8 6 6 6 7 9 10 12 14 17 20 21 22
36 33 29 26 24 22 19 18 18 17 17 17 17 15 14 13 12 11 10 9 9 9 10 10 10 11 10 10 10 8 8 7 7 8 9 11 12 13 15 19 22 22 23
39 34 32 29 27 24 22 19 19 19 18 18 18 17 15 15 14 13 12 11 10 9 9 10 10 11 10 9 9 9 7 8 8 10 10 11 12 14 17 20 22 22 23
41 38 35 32 28 26 24 21 20 20 19 18 18 18 16 16 14 14 13 11 10 10 9 10 10 11 10 10 9 9 8 8 9 10 11 12 13 16 18 21 22 23 24
44 41 37 33 30 28 26 23 22 21 20 18 18 18 17 17 16 15 14 13 11 10 10 10 10 11 11 10 10 10 10 10 11 12 12 13 16 18 20 23 24 25 25
48 45 40 35 31 29 27 25 23 22 21 19 19 19 19 18 17 16 15 14 13 12 10 11 11 11 11 11 11 11 12 12 13 14 14 15 17 20 22 24 26 26 27
51 46 41 38 35 32 30 27 25 24 22 21 20 20 20 19 19 18 17 16 15 14 13 12 12 12 12 13 13 13 14 15 15 16 17 18 20 22 24 27 27 27 28
56 48 42 39 37 36 33 30 27 25 22 21 20 19 20 20 21 20 19 18 17 15 16 15 14 14 14 15 15 15 15 16 18 18 19 20 22 24 26 28 29 28 30
48 47 46 43 41 38 34 31 28 25 24 23 21 20 20 20 21 21 21 20 19 18 18 19 17 17 17 16 17 17 18 18 20 21 21 22 23 25 28 31 31 30 31
39 45 50 49 45 41 36 33 29 28 25 24 23 23 22 21 22 22 23 23 22 22 21 21 20 19 18 18 18 19 21 21 21 23 24 25 26 27 30 32 32 30 32
44 47 46 49 48 45 44 37 33 32 28 25 24 24 24 23 23 24 25 25 25 25 24 23 22 22 21 21 21 22 22 22 24 25 27 27 30 32 33 35 35 35 34
40 54 40 32 46 47 47 38 37 33 30 27 25 23 24 24 24 25 26 28 27 27 27 26 25 24 23 24 23 23 25 24 25 27 29 30 32 34 36 36 34 36 36
46 53 43 25 44 41 41 46 39 35 30 27 24 24 26 25 23 25 27 30 29 29 29 28 26 25 25 26 26 26 27 27 27 30 31 31 34 36 39 39 38 37 36
36 39 36 34 18 42 38 35 35 33 28 26 25 22 25 24 24 24 28 30 31 31 30 29 29 29 28 28 29 29 30 30 30 33 34 34 36 39 40 41 39 39 37
34 32 31 42 37 21 28 39 28 34 24 25 24 22 27 26 25 27 28 30 31 33 32 32 32 32 31 31 32 33 32 32 33 35 37 37 39 40 41 42 42 41 38
33 36 33 26 27 33 25 29 24 24 23 27 25 26 29 31 29 29 30 32 32 34 35 35 35 35 34 35 34 34 33 34 34 34 38 42 44 44 44 44 42 41 40
32 36 39 36 27 25 32 28 23 28 31 30 29 30 31 34 34 33 33 34 34 32 32 33 36 39 37 38 39 38 34 36 40 43 42 44 46 49 49 47 44 39 40
37 38 38 40 33 31 28 26 29 31 32 33 39 36 38 39 39 37 37 34 37 38 40 40 38 33 35 40 43 45 45 44 45 46 47 47 49 49 48 44 40 38 40
29 37 38 36 37 35 35 34 34 34 37 37 40 40 44 46 46 44 41 40 42 42 43 42 40 37 34 35 37 41 43 45 47 47 48 47 45 44 42 39 38 37 38
29 27 35 36 40 42 37 37 39 36 35 36 39 39 31 33 35 39 38 40 45 41 38 38 39 38 44 51 48 47 48 52 53 56 48 44 44 42 40 36 37 38 37
27 30 29 36 39 37 43 43 39 43 45 42 40 40 42 44 43 44 40 41 37 36 39 39 40 45 47 49 48 51 51 49 48 47 45 43 43 43 42 40 38 38 39

GFSSE_500_spd_072.txt.gz
Wind_Speed
27 24 22 20 17 14 14 12 10 9 7 6 6 5 4 4 3 2 3 4 6 7 8 8 9 9 9 9 9 8 6 4 3 3 4 6 7 10 12 13 15 16 19
27 25 24 21 19 17 15 14 13 11 9 9 8 7 6 5 4 3 4 5 6 8 8 9 9 10 10 10 9 8 6 5 4 4 5 5 7 9 11 13 14 17 19
30 27 25 23 21 19 17 16 14 12 11 11 10 9 8 7 5 4 4 5 6 7 8 9 10 10 10 9 8 7 6 5 5 5 6 6 7 10 12 13 14 17 21
33 30 28 24 23 21 19 17 15 14 13 12 12 11 10 9 7 5 5 6 7 8 9 9 10 10 10 9 8 7 7 6 6 7 6 7 9 10 12 13 15 18 21
31 30 28 27 24 22 21 19 17 15 14 13 13 13 12 10 9 7 6 6 7 8 9 9 9 10 9 9 8 8 8 8 8 7 7 8 10 12 13 14 17 20 21
34 32 30 28 25 24 23 21 19 17 16 15 16 15 14 13 12 10 9 8 8 9 9 10 10 10 10 9 9 9 9 9 9 8 8 9 11 11 13 15 19 22 22
36 34 32 31 28 26 23 22 21 19 18 17 17 17 16 15 14 13 10 9 9 9 9 9 10 10 11 10 9 9 8 8 7 8 9 10 10 11 13 16 20 22 23
38 36 35 32 30 29 26 24 22 21 20 19 19 18 18 16 16 15 12 11 10 9 9 9 9 9 11 10 9 8 8 8 8 9 10 10 11 12 15 18 21 22 23
42 40 37 35 32 30 29 27 24 22 22 21 21 20 20 18 16 16 14 12 11 10 10 10 10 10 10 10 9 9 8 8 9 9 9 10 12 14 17 19 21 24 25
48 45 42 38 35 33 31 29 27 25 24 23 22 21 21 20 18 16 16 14 12 11 11 11 10 10 10 10 11 9 10 9 9 10 11 12 14 16 17 20 22 25 26
50 47 43 40 37 35 33 31 29 27 25 24 23 22 21 20 19 18 17 15 14 13 12 12 11 11 11 11 12 12 11 11 11 12 13 14 15 18 19 21 23 27 28
50 48 46 44 41 37 35 32 30 28 26 25 24 22 21 21 21 19 18 17 16 16 15 14 13 13 12 12 13 14 14 14 14 15 15 16 17 19 21 22 24 28 30
56 54 51 49 45 41 37 34 32 29 28 27 26 25 23 23 22 21 21 20 19 18 18 17 16 16 15 15 15 16 17 17 18 18 17 17 19 21 22 24 27 29 31
62 57 57 52 49 45 41 37 34 32 30 28 27 25 24 23 23 23 23 22 21 21 20 20 19 19 19 18 18 18 18 20 20 20 20 19 21 23 25 26 28 31 32
50 59 58 58 53 47 45 42 36 32 32 32 30 28 25 24 24 24 24 24 23 23 22 22 22 22 22 21 20 21 21 22 23 23 22 22 23 25 28 28 30 33 35
59 57 56 60 56 52 43 43 39 34 32 30 30 29 27 27 26 25 24 24 24 24 25 24 24 24 25 24 23 23 24 25 25 25 26 26 27 28 29 31 32 35 37
44 45 51 47 52 51 53 41 42 42 40 38 36 31 29 29 27 26 27 26 26 26 27 26 26 26 26 27 26 27 27 27 27 27 28 28 29 30 31 34 35 37 38
31 39 44 47 47 50 51 47 42 37 36 37 36 37 35 32 28 27 27 26 27 28 28 28 28 29 29 29 30 29 29 29 29 30 31 30 30 31 32 34 37 39 39
18 26 40 28 35 41 42 46 46 44 36 35 30 35 34 31 27 24 26 26 27 28 29 30 29 30 30 31 31 31 31 32 32 32 33 33 32 32 33 37 39 41 42
17 17 22 29 28 34 35 51 40 41 43 37 37 35 30 29 26 25 28 28 27 27 30 30 31 31 32 33 34 34 34 35 35 33 34 36 37 36 38 41 43 45 46
22 20 20 25 26 29 38 34 43 41 36 37 37 31 28 28 29 28 30 30 29 30 33 32 33 34 35 37 37 37 36 36 37 36 35 37 40 44 49 50 49 47 45
22 22 20 22 20 25 30 33 25 28 39 36 33 30 29 30 31 32 33 34 32 34 36 37 36 35 35 34 35 37 38 37 38 38 41 43 44 44 45 45 47 45 42
29 30 29 28 20 24 19 22 23 33 27 30 35 37 35 35 39 34 34 35 35 36 38 39 40 36 35 37 40 41 39 37 38 38 39 41 43 46 47 47 44 41 38
33 32 31 29 29 33 26 30 28 29 30 30 31 31 33 34 33 38 42 42 46 47 41 33 39 38 38 39 42 45 45 43 40 43 48 46 47 46 42 41 39 39 38
33 29 28 28 28 31 33 36 34 32 34 34 31 32 30 38 33 32 29 26 29 36 35 34 36 40 37 38 42 43 47 51 52 48 47 49 47 44 41 40 38 37 38
28 25 24 28 28 28 28 31 38 39 33 33 33 35 34 30 29 28 32 35 36 40 37 42 35 33 39 38 36 41 44 47 50 51 50 47 44 43 41 41 40 39 40

GFSSE_500_spd_075.txt.gz
Wind_Speed
31 27 26 24 21 19 16 15 13 11 10 9 8 6 5 4 4 3 2 2 3 5 6 7 7 7 8 8 8 7 5 4 3 3 3 5 6 8 11 13 13 14 17
32 31 28 26 24 20 18 17 16 13 11 11 10 8 7 6 5 4 3 2 3 4 6 7 7 7 8 8 8 7 6 4 3 3 5 6 7 9 11 12 13 15 18
34 31 28 27 25 23 21 19 17 14 13 12 12 10 9 8 7 6 4 3 3 4 5 5 7 7 7 8 8 7 6 5 5 5 6 7 8 9 11 12 13 16 20
35 33 31 30 28 26 23 21 18 16 15 14 14 13 11 10 9 8 6 5 4 5 5 6 7 7 8 8 7 6 5 5 5 6 6 7 7 9 11 12 14 18 20
37 35 33 31 30 27 25 22 20 18 17 16 16 15 13 13 11 10 9 8 6 6 6 6 7 7 8 7 7 7 7 7 7 6 6 7 8 10 11 12 15 19 20
41 39 35 33 31 29 27 24 22 20 19 19 18 16 15 14 13 11 10 10 9 7 7 7 7 7 8 7 8 8 7 7 7 6 6 7 8 10 10 13 16 18 19
43 40 38 34 32 30 28 25 24 22 22 21 19 18 17 16 15 14 13 12 11 10 9 8 7 7 8 8 8 8 7 7 6 7 7 7 8 9 11 14 16 18 20
45 42 40 37 34 31 29 28 26 25 24 23 22 21 20 19 18 16 15 14 12 11 10 9 9 8 8 8 8 8 8 7 8 8 8 8 9 10 13 15 17 18 20
48 46 42 39 36 33 31 29 27 26 26 25 24 23 21 21 20 18 17 15 14 12 11 9 9 9 9 9 8 7 8 8 8 8 9 10 11 13 15 17 18 20 21
51 49 44 41 38 35 33 31 31 29 28 27 27 25 23 22 21 20 18 16 15 13 12 10 9 9 9 8 8 9 9 8 9 10 11 12 13 14 15 17 19 21 23
56 52 47 43 41 38 36 33 32 31 30 29 28 26 25 23 23 21 20 18 16 14 13 13 11 10 10 10 10 10 11 11 12 13 14 15 15 16 17 18 20 22 25
62 57 51 47 43 41 39 37 35 34 32 31 30 29 27 25 24 23 22 20 18 16 15 15 14 13 12 12 12 12 13 14 15 16 17 17 17 18 19 20 22 24 26
63 60 52 49 48 46 44 42 40 37 34 32 31 31 29 28 26 25 24 22 21 19 19 18 17 17 16 15 15 15 16 16 17 18 19 19 20 21 21 23 24 26 28
57 61 56 54 52 50 48 45 42 39 36 35 34 34 31 30 28 27 26 25 24 23 22 21 20 20 20 19 18 18 19 20 20 21 21 21 22 23 23 23 26 27 25
54 60 60 57 55 52 51 48 46 43 40 38 36 34 33 32 30 29 28 27 26 26 24 24 24 23 23 22 21 21 21 21 23 23 24 24 24 25 26 27 27 27 29
49 54 53 59 59 55 53 50 48 45 43 40 38 38 35 34 32 31 30 29 27 26 26 27 26 26 26 25 24 23 24 24 25 26 27 26 27 28 28 28 28 28 29
42 54 57 64 54 61 58 53 51 49 46 44 44 41 40 37 35 34 32 31 29 28 28 27 28 28 28 28 27 27 27 27 28 29 30 28 28 30 30 30 30 28 31
40 43 54 58 62 45 51 55 51 51 51 50 49 48 44 41 39 37 35 34 31 31 30 31 30 29 29 30 30 29 31 30 31 31 31 31 32 32 32 32 32 33 36
24 31 51 52 55 59 57 57 38 47 54 51 47 46 46 43 40 39 37 35 35 33 33 31 31 31 31 31 32 32 33 34 34 33 33 34 35 34 34 34 35 38 43
29 23 48 36 46 44 53 53 51 47 43 42 36 42 41 38 35 43 40 37 35 33 30 31 30 32 34 33 32 34 34 35 36 36 37 36 37 37 37 38 39 42 43
12 26 25 27 40 39 42 48 49 40 41 46 44 42 38 32 39 36 35 35 34 32 32 31 31 33 36 34 34 34 34 36 38 38 40 39 39 38 40 41 42 44 44
19 24 17 18 18 25 23 34 41 44 46 48 49 43 38 40 35 38 37 36 36 36 34 33 35 36 38 39 36 34 34 36 36 37 38 39 40 41 40 40 46 47 45
17 15 18 14 17 22 16 23 31 40 22 36 53 40 48 45 35 37 38 37 38 37 35 35 39 38 40 41 41 37 35 37 41 41 41 39 38 38 43 52 47 45 42
19 17 17 16 18 26 16 22 19 28 25 25 24 30 35 40 42 42 39 39 39 38 39 40 37 38 33 32 39 38 39 42 44 41 42 44 43 48 50 47 47 41 42
25 25 23 21 22 23 20 21 22 26 36 30 39 35 35 44 43 38 36 36 33 32 34 34 36 39 42 35 35 36 41 42 42 36 33 38 39 41 43 45 42 40 41
31 27 25 23 19 19 20 21 20 22 23 29 26 25 32 28 31 32 34 37 34 34 36 36 36 38 36 37 36 38 38 41 40 38 39 43 44 44 43 44 44 44 44

GFSSE_500_spd_078.txt.gz
Wind_Speed
35 33 31 29 26 24 22 21 18 16 14 12 11 10 9 6 6 5 3 2 1 1 2 3 4 4 5 5 5 6 5 3 3 2 2 3 4 6 8 10 12 14 17
38 34 32 31 27 25 25 23 20 18 15 13 12 12 11 9 7 6 4 3 2 2 3 3 4 5 5 5 5 5 5 4 3 3 3 4 5 7 9 11 12 14 18
39 36 33 30 29 28 27 25 22 20 17 15 14 13 12 11 9 8 7 5 4 3 4 5 6 6 6 5 6 5 5 4 4 4 4 5 6 7 9 10 12 15 17
40 37 35 33 31 30 29 27 24 22 19 17 16 15 15 13 12 11 9 8 6 5 5 6 6 7 7 6 6 5 5 5 5 5 5 6 7 8 9 10 12 15 17
41 37 37 35 34 32 31 29 26 24 21 20 18 18 17 16 14 13 11 10 9 8 6 6 7 7 7 7 7 6 6 7 6 5 5 6 7 8 9 10 13 16 17
45 40 37 36 35 34 32 31 28 26 23 22 20 19 19 18 17 16 14 12 11 10 8 7 8 8 8 8 7 7 7 7 6 6 6 6 7 8 9 11 14 16 17
47 43 39 38 36 36 35 33 30 28 25 23 22 21 21 20 20 18 16 15 14 12 11 9 8 8 9 9 8 8 7 7 7 7 7 7 8 10 11 13 15 16 18
51 49 44 42 40 39 37 35 32 30 28 26 25 24 23 22 21 20 18 17 15 13 12 11 9 9 8 8 8 8 7 7 7 8 8 9 10 11 13 15 16 17 18
49 50 49 46 42 41 39 37 34 32 30 29 27 26 25 24 23 22 20 18 17 15 14 12 11 10 9 8 8 8 8 7 7 8 9 10 12 13 15 16 17 18 19
52 52 50 49 46 43 42 39 36 34 32 31 29 28 28 27 26 25 23 21 19 17 16 14 13 11 10 9 9 9 9 9 9 10 11 12 14 15 16 17 18 19 21
63 58 55 51 47 45 44 41 38 35 33 32 31 31 30 29 28 27 26 24 22 20 17 16 15 14 12 11 11 11 11 11 12 13 13 14 16 17 17 18 20 21 23
65 61 59 55 52 48 46 44 41 38 35 34 34 33 32 31 30 29 27 26 24 22 20 18 17 16 15 14 14 14 14 14 15 16 17 17 18 19 20 21 22 23 26
63 60 62 57 54 52 49 46 43 41 39 38 36 35 34 33 32 32 29 28 26 24 22 20 19 19 18 18 17 17 18 18 19 19 20 20 21 22 22 23 24 25 27
44 53 58 60 57 55 52 49 45 43 41 40 38 36 36 34 34 33 31 30 29 27 25 24 23 22 22 21 21 21 21 21 21 21 23 23 24 23 24 25 26 27 26
53 53 62 66 61 58 54 50 48 47 45 43 41 41 39 38 37 36 34 33 32 30 29 27 26 25 25 24 24 24 24 23 23 24 25 25 26 27 26 27 28 27 28
47 50 52 65 66 60 55 52 50 50 49 47 46 45 43 41 39 38 35 37 35 32 31 30 30 28 28 27 27 27 27 26 26 27 27 27 28 28 29 29 29 28 29
47 46 42 51 59 59 58 57 56 53 51 49 48 47 45 43 40 37 40 39 36 35 33 32 32 31 30 30 30 29 30 30 30 30 31 30 31 31 31 31 32 31 31
32 42 41 51 49 56 48 58 59 57 55 53 52 48 46 45 43 42 43 40 38 36 35 34 33 32 33 32 31 32 33 32 32 33 33 33 33 32 33 33 34 34 34
51 31 47 49 50 55 54 57 58 61 57 56 54 51 48 46 46 44 42 42 40 38 38 37 35 35 35 35 34 34 35 34 34 36 36 36 34 34 35 34 36 37 37
37 34 36 53 51 57 49 55 60 55 58 57 57 54 52 51 47 45 44 42 39 38 40 41 39 38 36 37 37 36 35 35 36 37 37 38 36 36 36 37 39 39 40
30 26 31 40 54 50 55 52 47 63 60 61 55 57 55 54 49 44 39 39 44 46 41 44 41 37 37 37 37 37 36 35 37 37 39 39 38 36 35 35 37 39 39
18 14 28 34 40 46 52 45 48 39 42 53 48 45 53 55 50 49 45 37 41 45 46 44 40 40 40 36 39 38 37 38 40 40 40 40 38 37 36 35 36 40 42
25 28 26 28 28 41 41 48 48 50 52 45 50 42 41 46 46 42 37 40 42 44 45 46 43 41 39 33 34 40 43 44 42 43 41 42 42 41 40 38 41 44 48
20 26 18 20 18 26 27 28 31 30 42 48 52 42 45 54 56 44 42 41 42 43 40 43 43 43 42 38 33 38 36 37 40 40 41 44 43 44 42 40 41 43 44
17 23 18 12 17 15 22 19 29 28 28 29 32 36 31 39 57 56 44 46 39 37 38 41 40 37 37 37 37 40 40 39 40 40 42 44 43 39 38 40 40 42 45
22 24 18 19 18 16 17 11 23 23 19 22 22 22 35 39 37 38 45 51 41 39 40 43 38 36 42 38 39 41 40 39 41 42 43 42 40 39 39 41 43 47 46

GFSSE_500_spd_081.txt.gz
Wind_Speed
43 39 35 34 31 27 25 23 22 20 18 14 13 11 11 10 8 8 6 5 3 2 1 2 3 4 6 6 6 5 4 3 2 3 3 3 5 6 7 9 10 13 16
44 43 37 36 34 31 28 26 24 23 21 18 15 13 13 12 10 9 8 6 5 3 3 3 4 5 6 6 6 5 4 3 2 2 3 4 5 5 7 9 10 14 16
47 46 41 35 33 31 30 28 26 25 23 20 17 16 15 15 13 11 10 8 7 7 5 4 4 7 7 7 6 5 4 3 3 3 4 5 5 6 7 8 11 14 16
49 46 44 39 34 32 32 30 28 28 26 22 20 18 18 17 15 14 13 11 10 9 8 6 6 7 7 7 6 6 5 5 5 5 5 5 6 7 8 9 12 15 16
52 48 44 40 37 34 34 32 31 30 29 25 22 21 20 18 18 16 14 14 13 11 10 9 7 7 8 7 7 6 6 6 5 6 5 6 6 7 8 10 12 15 15
51 49 46 41 38 36 35 34 33 32 30 27 24 23 23 21 19 18 16 16 15 13 11 10 9 8 8 8 8 7 7 7 7 5 5 6 7 8 9 11 13 15 15
51 49 48 44 40 38 37 36 35 33 32 29 27 26 25 21 21 20 19 18 17 15 13 12 12 11 9 8 7 7 7 7 7 6 6 6 7 8 9 12 13 15 16
54 51 49 48 43 41 40 38 37 36 34 31 28 28 27 24 23 22 21 20 19 17 15 15 14 12 10 9 8 8 8 8 7 8 7 7 8 10 11 12 13 15 17
59 57 51 49 47 43 40 40 38 38 36 34 32 31 29 25 24 24 23 22 21 20 18 17 15 14 12 11 9 9 9 9 9 9 10 10 11 12 13 14 15 17 18
63 58 56 53 52 47 43 41 41 41 39 36 35 34 30 28 27 27 26 25 23 22 21 18 17 15 14 12 11 10 10 11 11 11 11 12 13 15 16 16 16 17 19
62 56 54 54 54 52 48 46 45 43 41 38 36 35 33 32 31 30 28 27 25 24 23 21 19 17 16 14 14 13 13 13 13 14 14 15 15 17 17 17 18 19 21
52 58 55 56 57 56 53 49 48 45 43 41 38 37 36 35 33 32 31 29 27 26 25 23 21 19 18 16 16 16 15 15 16 16 17 18 19 19 19 21 21 21 23
49 62 58 55 59 55 54 52 50 49 46 43 41 40 39 38 36 35 33 31 30 28 27 25 24 22 21 20 18 18 18 19 19 20 20 20 22 22 22 23 23 24 24
57 56 61 59 42 54 57 55 52 50 48 45 43 42 41 40 38 36 34 33 32 31 30 28 27 26 23 22 21 21 21 21 22 22 23 23 23 24 24 25 25 26 25
47 65 64 58 51 51 65 60 56 52 49 47 46 44 44 43 40 38 37 36 34 33 31 30 29 28 26 26 25 25 25 24 25 25 26 26 26 27 27 27 27 28 29
66 45 63 74 55 56 74 64 58 55 51 49 48 46 46 44 43 41 41 39 36 35 33 30 35 32 30 29 28 28 28 29 28 29 29 29 29 28 29 29 30 30 31
72 52 34 42 47 39 63 66 61 59 54 51 50 50 49 46 45 44 44 40 38 37 31 40 37 35 33 31 31 30 31 32 32 32 32 32 32 32 32 32 32 33 32
60 45 39 47 58 41 63 65 63 62 54 53 53 51 50 48 47 46 44 41 40 36 41 41 38 37 35 33 33 33 34 36 35 37 35 35 35 34 34 34 34 35 34
70 54 40 52 49 43 36 64 65 64 61 58 56 53 51 50 51 50 46 46 43 44 42 41 40 39 37 35 35 35 37 39 38 39 38 38 37 37 36 34 35 35 36
63 52 48 29 28 40 41 49 40 66 60 58 57 55 55 55 55 53 50 47 44 45 42 42 41 40 40 36 39 39 40 42 41 41 41 40 39 38 37 36 35 37 36
55 58 49 41 40 41 44 40 43 38 50 58 59 59 60 60 57 53 51 48 49 46 47 44 45 44 41 44 43 40 42 42 42 42 41 39 40 39 39 38 37 34 36
31 51 33 29 34 33 44 47 46 46 41 51 57 62 63 63 60 57 49 51 47 38 40 41 43 47 47 46 47 44 41 44 41 44 42 41 42 42 41 40 38 40 38
31 49 25 29 25 33 45 47 41 49 44 34 47 60 65 64 62 63 56 51 50 47 37 42 42 39 44 47 44 42 43 44 40 39 44 43 43 42 40 42 41 40 39
29 35 23 20 22 31 37 41 44 43 45 41 43 40 59 54 59 54 51 52 54 46 41 43 30 40 44 39 44 44 42 38 38 35 38 37 38 42 39 42 42 43 41
27 26 37 28 29 23 17 35 41 40 44 45 44 55 61 51 52 45 44 48 51 51 42 43 41 45 44 43 46 44 41 39 38 38 42 41 40 45 42 41 44 43 44
19 17 19 15 18 22 19 34 28 21 23 22 28 50 59 54 62 58 46 47 52 58 50 48 39 44 45 44 45 49 44 40 40 44 42 41 44 41 41 46 47 48 48

GFSSE_500_spd_084.txt.gz
Wind_Speed
42 41 37 37 36 31 27 24 22 20 18 19 16 14 11 10 10 8 7 6 5 3 2 2 3 5 7 6 6 5 4 3 2 2 3 3 3 4 5 7 9 12 14
45 43 42 39 38 35 33 29 26 23 21 20 19 16 14 12 11 10 9 8 7 6 4 4 3 5 8 8 6 5 4 3 2 2 3 3 4 4 5 7 8 12 13
50 46 44 43 40 38 34 32 29 26 24 23 22 20 16 15 14 13 12 10 10 9 7 6 5 6 8 8 7 6 5 3 2 3 4 4 4 4 5 6 9 12 13
48 46 45 45 42 39 37 34 32 29 28 26 25 23 20 18 17 16 14 13 12 11 10 9 7 7 8 8 6 6 6 5 4 4 4 5 6 5 5 7 9 12 12
44 49 46 46 45 41 38 35 33 32 31 29 27 26 24 21 19 18 17 16 14 13 12 10 9 7 7 7 6 6 6 6 6 5 5 5 5 5 6 8 9 11 12
50 44 46 46 46 44 41 37 35 34 33 32 30 29 28 24 21 21 19 18 16 15 14 13 11 10 8 8 7 7 7 7 7 6 6 5 5 5 6 8 10 12 13
57 52 49 49 48 46 44 40 37 37 35 34 33 31 30 28 23 22 21 20 19 17 16 15 13 12 12 10 9 8 8 7 7 6 6 6 6 6 8 9 11 12 13
57 54 51 51 51 49 46 42 39 39 38 36 35 34 33 31 26 24 23 22 21 20 18 16 15 14 14 12 10 8 8 8 7 7 7 7 8 8 9 10 11 12 14
52 56 48 54 51 50 48 44 42 41 40 38 37 36 36 30 26 24 25 24 23 22 20 18 17 16 15 14 12 10 8 9 9 9 9 10 10 10 11 12 13 14 15
47 49 56 56 56 52 50 45 44 42 41 40 39 37 36 32 27 26 27 26 25 24 22 21 19 18 17 15 14 12 11 10 10 11 11 12 13 13 13 14 15 16 18
50 41 40 75 58 56 52 48 45 44 43 42 41 41 38 34 32 30 29 29 28 27 25 23 21 20 18 18 16 15 14 13 13 13 14 15 15 16 16 17 17 18 20
62 55 43 49 56 55 54 51 48 46 45 44 44 43 40 38 35 32 32 32 30 29 28 25 23 21 20 19 19 17 16 15 15 16 16 18 18 18 18 19 20 20 21
73 66 51 41 52 65 62 55 53 49 48 47 46 45 44 41 38 35 34 34 33 31 29 28 26 24 23 22 21 20 19 18 18 18 19 20 21 21 21 22 22 22 22
81 65 44 71 50 46 55 56 52 53 51 49 48 49 48 43 40 39 37 36 35 34 32 31 28 26 24 24 25 23 22 21 21 21 22 23 23 24 25 24 24 25 25
82 72 54 59 59 59 64 64 51 62 55 53 51 51 48 45 43 43 39 38 37 35 35 33 31 29 27 25 26 27 26 25 24 24 26 26 27 28 28 29 28 28 29
80 78 55 44 59 48 37 34 48 50 56 55 53 53 50 47 47 43 42 39 37 38 38 35 33 32 27 26 32 31 29 27 27 28 27 30 30 31 30 31 32 31 31
77 80 61 45 57 61 66 46 46 45 50 53 54 54 53 50 46 44 42 41 42 41 40 37 35 33 29 30 37 34 32 31 31 31 30 31 33 33 34 34 35 34 34
58 75 59 49 64 52 54 50 47 53 52 51 53 54 53 52 51 48 47 45 45 43 41 39 37 34 35 38 37 36 36 35 34 33 33 35 35 35 36 38 37 37 36
31 65 78 62 43 46 59 59 46 46 47 55 49 57 56 55 54 52 50 49 47 45 44 43 38 39 45 38 39 38 37 37 37 36 38 38 38 38 37 37 39 39 38
29 45 85 74 38 41 33 39 42 43 57 45 53 52 56 57 55 54 52 50 49 48 47 45 43 44 44 39 39 39 37 39 40 40 41 42 39 39 38 38 36 39 39
25 32 56 60 51 42 40 18 36 37 55 66 53 54 57 56 55 54 53 52 52 54 51 48 46 50 44 40 42 40 42 42 44 46 45 43 40 41 40 39 37 38 41
24 23 37 64 70 55 34 29 33 38 42 54 41 63 50 50 53 51 53 55 55 51 56 58 51 49 45 48 42 42 44 47 45 45 48 44 43 43 42 41 44 42 42
26 16 16 31 46 58 30 38 36 33 38 35 35 37 31 51 57 57 59 62 60 53 43 45 47 36 35 36 38 37 42 43 47 44 43 44 42 39 38 39 41 38 37
34 20 24 18 23 41 34 31 35 39 38 40 44 35 35 45 45 52 54 58 56 52 56 52 38 38 39 42 37 44 42 42 41 39 43 42 39 38 39 38 39 38 43
27 22 23 25 24 27 23 29 33 36 36 48 43 45 44 50 52 50 48 55 58 47 56 57 55 50 45 48 42 45 43 47 53 49 44 43 41 43 42 41 43 43 45
23 22 28 28 26 18 23 14 32 35 45 40 37 44 47 49 48 55 56 56 48 50 50 44 47 48 50 41 33 38 37 44 48 51 45 43 38 42 43 44 43 44 44

GFSSE_500_spd_087.txt.gz
Wind_Speed
35 35 38 35 33 31 29 26 24 21 19 16 16 16 14 11 10 10 10 9 7 5 3 3 3 3 6 8 7 6 5 3 2 2 3 3 3 3 3 4 6 9 10
22 29 42 40 38 35 34 32 28 26 22 20 19 18 17 15 12 11 11 10 9 7 6 5 5 4 6 8 7 5 5 3 2 2 3 3 4 3 3 3 6 8 9
23 26 29 44 43 40 37 36 33 30 27 24 22 21 20 18 15 13 14 13 11 10 8 7 6 5 7 8 6 5 4 3 3 3 3 4 4 4 3 4 6 8 8
26 26 28 38 46 44 41 36 35 33 31 27 26 24 23 21 19 15 16 15 14 13 11 10 9 7 7 7 6 5 5 4 4 4 5 5 5 4 3 3 6 8 8
28 29 33 36 45 46 45 41 37 35 34 32 29 28 26 24 22 19 18 18 17 15 14 13 11 10 8 7 7 7 5 5 6 6 6 5 4 5 4 5 7 8 9
33 31 33 36 44 49 45 42 41 37 35 34 33 31 30 27 25 22 20 20 19 18 17 15 14 12 11 10 9 8 7 6 6 7 7 6 5 6 6 7 8 9 10
30 31 34 37 44 50 48 44 42 40 37 36 35 34 33 31 28 25 23 22 21 20 19 18 15 14 13 12 12 10 8 7 8 7 7 7 7 7 7 9 10 10 11
36 31 38 39 44 51 49 47 44 42 39 38 37 36 35 35 32 29 26 24 23 22 21 19 18 16 15 14 12 12 9 7 8 8 9 9 9 9 10 11 11 12 13
39 34 46 42 51 54 53 51 47 43 42 40 38 38 39 38 33 32 29 27 25 24 22 21 20 19 17 15 14 14 12 9 10 9 10 10 10 12 12 13 13 13 14
34 36 47 48 54 58 55 52 53 46 44 42 41 40 40 39 35 34 30 28 26 26 24 23 22 20 19 17 15 15 14 13 12 11 12 12 12 13 14 14 15 16 17
41 39 41 44 45 58 55 54 52 51 46 44 43 41 42 40 37 35 32 30 28 27 26 25 24 23 21 19 17 16 16 15 14 13 14 14 14 15 15 17 18 18 18
40 44 41 41 48 45 55 56 58 53 50 47 45 44 44 43 40 38 35 32 30 29 29 27 26 25 23 21 20 18 19 17 17 16 16 17 17 17 17 18 20 21 22
44 44 53 51 56 53 56 63 60 55 55 51 47 46 45 44 42 39 37 35 33 32 31 30 28 27 26 24 22 21 22 19 20 19 18 19 19 20 20 20 22 23 24
50 50 50 52 54 56 48 69 62 60 57 55 50 47 47 46 43 40 40 38 37 35 33 32 31 30 29 27 25 24 24 22 22 22 21 22 22 22 22 24 24 25 26
48 50 51 49 63 51 72 52 61 61 59 55 52 51 48 47 44 42 42 41 40 38 36 35 34 33 31 29 28 25 25 25 25 26 25 25 25 26 26 26 27 28 29
50 53 52 50 62 64 61 66 51 62 62 58 55 54 52 49 45 45 46 44 43 41 40 38 36 36 34 32 31 27 26 27 28 28 29 29 28 29 30 30 29 29 31
50 52 52 48 64 63 68 71 52 46 57 63 61 60 55 50 48 50 49 47 45 43 42 40 40 38 37 34 33 29 27 28 34 31 31 31 31 32 31 33 33 33 32
49 46 45 53 72 78 46 56 56 48 62 69 67 64 57 52 54 54 52 49 48 46 44 43 42 41 40 37 36 35 34 36 35 35 34 33 33 34 33 35 36 35 35
44 41 39 46 64 75 52 47 49 35 38 49 68 68 63 56 57 55 55 53 51 48 46 46 45 43 41 40 39 42 41 36 37 38 35 35 36 36 36 38 39 39 37
50 35 38 32 41 65 67 48 44 36 29 34 44 52 53 57 62 58 57 55 53 50 49 48 46 45 43 42 44 45 43 37 38 40 36 38 40 38 40 39 40 39 40
46 28 28 30 34 56 70 43 47 40 36 34 32 39 50 57 60 60 58 57 55 52 51 52 47 46 48 47 46 49 48 40 37 41 41 41 43 44 42 40 39 40 41
40 30 27 30 22 49 60 44 48 31 37 38 35 33 38 42 43 51 59 59 57 56 54 51 52 53 52 59 49 54 54 42 42 46 45 44 45 46 44 42 41 42 41
46 27 17 13 11 38 58 49 36 29 27 39 39 38 35 38 44 37 40 48 59 56 54 56 48 46 56 53 54 55 40 38 42 42 40 43 46 46 41 37 40 41 41
51 26 16 24 15 17 33 52 37 32 34 35 41 41 42 43 35 46 38 36 41 50 50 50 42 29 35 41 33 39 33 32 35 36 38 40 45 37 37 39 41 41 40
44 21 23 16 17 19 20 22 31 46 46 42 44 41 52 45 39 36 35 29 34 35 45 36 44 39 53 50 42 39 39 41 39 46 44 42 48 49 43 42 47 46 44
36 27 26 26 28 28 28 28 29 27 33 34 41 39 43 49 42 46 42 46 47 48 46 50 52 45 40 45 50 48 53 46 46 44 36 42 44 46 40 39 43 43 43

GFSSE_500_spd_090.txt.gz
Wind_Speed
19 29 33 34 33 32 29 26 23 22 20 19 17 13 13 13 11 11 9 9 9 8 6 4 3 2 5 7 6 4 4 3 3 4 6 7 5 4 4 4 5 7 7
19 17 18 29 36 35 33 31 29 26 24 22 20 17 15 15 14 13 11 10 11 9 8 6 6 4 5 7 6 5 4 4 4 5 5 6 6 6 5 4 5 7 8
26 24 19 20 36 39 38 35 34 31 28 26 24 21 18 17 17 15 14 12 12 12 10 9 8 7 5 8 7 5 4 4 4 5 6 6 7 7 6 5 6 7 8
27 30 27 23 25 37 43 40 38 35 33 31 28 26 22 20 20 18 17 15 15 14 13 11 10 9 7 7 7 6 6 5 5 6 6 7 8 7 7 6 7 8 9
30 32 33 32 27 30 43 45 42 38 35 33 32 30 27 24 23 21 20 19 17 16 15 14 13 11 10 9 8 8 7 7 6 6 7 8 8 8 7 7 8 10 10
31 27 28 32 29 30 34 47 47 44 40 36 35 33 31 28 26 25 23 22 20 18 17 16 15 13 12 11 11 11 10 8 7 7 7 8 8 8 8 8 9 11 11
30 31 29 28 32 31 29 37 49 49 45 40 37 36 34 32 30 28 27 25 22 21 19 19 17 15 14 14 13 13 12 7 7 8 8 8 9 10 9 9 11 11 12
36 30 29 28 28 27 30 30 42 53 51 46 40 38 37 35 34 31 30 28 25 24 22 21 19 17 16 16 15 13 14 11 9 7 8 9 10 11 11 12 13 13 13
38 37 33 30 24 28 27 30 36 48 51 50 45 40 40 39 37 33 32 30 28 26 26 23 21 19 18 17 17 15 16 14 12 11 10 10 11 12 12 13 14 15 15
41 36 34 35 26 28 29 35 39 46 51 49 49 46 43 41 39 36 34 32 32 29 28 26 24 22 20 19 18 18 17 18 16 14 12 12 13 13 14 15 16 16 16
42 40 37 33 29 33 32 38 42 49 49 50 49 49 46 44 40 38 37 33 33 32 31 29 26 24 22 21 20 19 19 20 18 17 16 13 14 14 16 17 18 19 19
43 42 39 38 32 34 36 37 42 51 56 52 50 50 49 45 42 40 39 36 35 33 32 30 29 27 25 23 22 22 21 21 21 19 19 17 16 16 18 19 20 21 22
45 45 43 40 40 40 38 35 44 43 56 57 52 52 51 47 44 41 42 38 35 36 34 32 31 30 28 27 25 24 24 24 23 22 21 21 19 18 19 20 22 24 25
46 50 49 46 45 45 42 40 43 51 49 59 55 54 54 51 46 38 44 40 38 38 37 34 34 33 32 30 28 28 27 26 26 24 24 24 23 22 22 22 24 25 27
47 49 51 49 45 45 42 43 51 54 56 59 65 58 57 51 48 51 49 44 41 41 39 38 37 36 35 33 32 31 29 28 28 26 26 27 27 26 26 25 25 27 28
47 51 55 48 47 45 45 42 53 53 62 69 62 61 57 51 51 53 41 48 45 43 42 42 41 39 38 36 36 34 33 31 30 29 29 28 29 29 29 29 28 29 30
49 51 54 54 49 47 45 43 52 64 66 76 74 64 59 58 49 53 55 50 48 47 47 45 44 41 39 39 39 37 36 36 32 30 31 30 32 32 32 31 31 31 32
54 55 52 48 48 49 46 48 49 62 50 57 68 64 60 60 58 57 52 51 51 51 50 49 45 43 42 41 41 40 39 38 36 34 31 35 36 36 34 34 34 34 35
57 55 53 47 49 50 48 47 46 64 71 63 61 64 66 62 61 60 50 57 56 53 52 50 47 46 45 44 44 43 41 40 40 42 41 40 39 37 37 36 35 36 38
57 51 49 46 44 44 47 44 46 64 59 65 60 55 68 70 66 63 63 64 59 56 53 52 50 49 47 47 46 44 43 42 42 46 47 42 40 39 38 36 38 40 42
49 44 43 44 38 34 35 40 39 53 62 63 67 48 65 70 73 69 66 64 61 57 54 53 52 52 49 49 49 48 46 46 47 50 48 49 52 43 41 39 41 44 45
38 35 38 40 32 30 25 35 34 53 50 37 37 37 42 56 70 69 70 72 63 58 55 56 56 55 53 52 51 51 49 50 53 55 52 53 54 52 46 44 44 43 46
30 38 47 39 36 31 27 24 27 38 57 34 34 35 33 34 42 55 57 55 57 59 60 59 61 60 55 59 61 53 59 62 57 57 58 53 49 43 41 39 34 36 38
28 34 44 41 33 25 27 25 14 21 50 28 32 41 39 35 37 35 38 41 51 58 55 56 56 46 39 35 36 40 38 35 35 42 37 32 33 36 36 37 40 35 37
25 34 43 40 34 20 21 25 23 18 58 37 41 40 37 34 36 39 40 41 40 33 35 36 44 42 44 39 37 38 44 37 39 36 36 37 39 37 42 43 42 43 46
20 31 35 34 22 17 20 29 30 25 32 31 33 33 41 41 42 37 39 41 39 41 40 41 42 43 48 47 47 50 45 47 36 47 52 50 47 41 44 43 48 42 41

GFSSE_500_spd_093.txt.gz
Wind_Speed
18 20 28 36 35 32 29 28 26 23 20 18 16 14 12 11 10 9 9 9 9 9 7 4 3 3 4 7 7 6 5 4 5 5 7 8 8 6 6 7 8 9 11
25 19 19 27 37 38 34 32 29 27 24 22 19 18 15 14 12 12 11 11 10 10 9 7 5 5 4 7 8 6 6 5 5 5 6 7 8 7 7 8 8 8 10
28 30 24 21 20 37 41 37 34 32 30 27 24 21 19 17 15 15 14 13 12 11 11 9 8 7 7 7 8 7 5 6 5 6 6 7 8 9 9 8 8 8 11
29 31 34 33 28 23 38 42 40 36 34 32 29 25 23 21 19 18 17 16 15 13 12 11 11 10 9 9 8 7 6 6 6 7 7 8 8 9 9 9 9 9 11
29 31 32 35 36 35 27 37 44 42 39 36 34 31 28 26 24 22 20 20 18 16 14 14 13 12 12 11 10 8 8 8 7 7 8 8 9 9 9 9 10 11 12
33 33 34 35 36 36 35 31 31 42 46 42 39 37 33 31 28 26 24 23 21 19 17 16 15 15 14 13 13 11 10 10 9 8 8 9 9 9 9 10 10 12 13
37 36 35 36 36 37 38 32 31 32 38 45 46 40 38 35 34 30 28 27 25 22 21 19 18 16 16 15 15 14 12 12 10 8 8 9 10 10 10 11 11 12 14
40 40 38 36 36 38 37 37 31 32 32 36 45 47 43 39 37 35 33 30 28 26 24 22 20 19 17 17 17 16 15 14 13 12 10 10 11 11 12 12 13 14 15
40 41 39 37 35 35 33 37 38 38 38 37 38 46 47 46 42 38 36 34 31 29 27 25 23 21 20 19 19 18 17 16 16 16 14 13 12 12 13 14 14 15 16
44 39 39 36 33 29 34 32 32 37 33 35 38 44 48 48 44 42 38 37 34 32 30 28 26 24 23 22 21 20 19 18 18 18 18 16 14 14 14 15 15 17 18
47 46 42 40 34 31 30 31 32 35 35 33 37 40 48 47 45 43 41 38 37 36 33 31 29 28 26 25 23 22 22 20 20 20 20 19 18 17 16 16 17 18 19
49 48 45 45 45 42 35 35 36 34 33 34 38 43 45 50 47 44 44 42 41 39 36 34 32 31 28 27 26 24 24 23 22 22 22 23 22 21 19 18 18 19 21
52 50 48 46 47 47 42 40 39 39 38 36 36 43 47 49 51 47 47 46 44 41 38 36 35 34 31 30 29 28 27 26 25 24 25 25 25 24 23 22 21 21 22
53 51 48 48 49 50 46 45 42 40 39 36 39 42 46 51 52 52 45 49 47 45 41 38 38 36 34 33 32 31 29 29 28 27 27 27 27 26 27 26 25 24 24
56 52 50 49 50 52 51 47 45 42 42 40 42 40 44 49 55 55 45 48 43 49 48 43 40 39 38 37 34 33 33 32 31 30 29 30 29 29 28 29 29 28 27
60 53 48 46 49 52 52 52 48 43 44 42 47 47 54 54 55 54 50 49 49 53 53 43 43 42 41 39 37 36 36 34 34 33 32 32 31 31 29 30 31 32 31
62 56 51 49 49 52 56 54 51 46 45 47 47 54 53 52 57 56 46 49 51 49 44 49 48 47 43 42 40 39 38 38 37 35 34 34 34 33 32 32 32 34 35
63 58 54 49 48 54 54 54 51 47 47 48 50 48 53 60 58 61 61 53 66 72 56 55 56 49 46 43 42 42 41 41 40 38 37 37 37 37 34 38 38 38 37
62 58 54 49 53 55 54 53 49 49 48 49 49 48 53 63 60 56 63 57 64 45 47 49 53 52 49 45 45 45 45 44 44 41 41 40 40 41 42 41 43 43 40
59 55 51 53 54 53 54 54 50 50 50 49 47 49 60 64 67 65 61 61 71 66 53 54 55 54 48 48 48 48 47 47 46 45 43 42 43 44 48 47 46 48 45
55 52 53 55 55 53 54 51 47 48 46 49 47 46 54 73 68 73 68 66 61 68 59 52 61 52 49 51 52 51 49 50 50 47 46 45 46 51 49 56 50 46 54
56 46 45 52 54 54 48 47 44 41 43 43 39 40 53 51 56 62 71 73 73 59 51 52 60 58 54 55 54 53 53 53 52 53 47 49 51 52 54 61 53 54 54
43 41 42 48 48 44 42 39 38 38 35 34 28 36 45 48 58 67 73 74 72 76 69 67 65 60 61 60 59 59 59 56 55 56 58 50 56 63 64 69 55 57 55
41 42 38 38 39 36 38 39 33 34 29 23 27 28 42 47 43 57 71 73 74 77 77 76 74 72 73 69 62 62 64 66 61 64 62 59 57 43 43 42 40 45 43
29 32 30 33 33 35 32 31 33 32 24 18 27 26 40 45 37 47 47 48 60 59 64 73 69 61 59 60 52 46 47 44 39 35 32 33 39 38 36 38 36 40 39
17 21 25 28 29 35 34 29 29 26 27 30 28 29 37 32 36 36 38 38 38 38 41 40 43 42 35 35 41 43 43 44 49 41 43 49 52 43 44 45 47 43 47

GFSSE_500_spd_096.txt.gz
Wind_Speed
20 19 19 27 36 34 31 28 26 23 21 18 16 14 12 10 10 9 8 7 7 5 4 4 3 5 5 7 9 6 5 5 5 4 6 8 9 8 8 8 8 8 10
22 22 21 21 25 36 37 34 31 28 25 23 21 19 16 13 12 12 10 10 9 8 5 5 5 6 7 7 9 7 5 4 4 4 5 7 9 9 9 9 9 9 11
25 26 26 26 24 24 33 40 36 33 30 27 25 23 20 18 14 15 14 12 11 11 8 6 7 8 9 9 9 9 5 5 5 5 6 7 9 9 10 10 9 10 11
27 28 29 29 29 27 25 30 40 39 35 32 29 27 26 23 20 17 18 16 13 14 10 10 9 9 10 10 10 10 8 7 6 6 6 8 9 10 10 10 9 9 11
28 29 30 29 31 32 33 30 26 34 40 38 35 31 29 28 26 22 20 20 17 16 14 13 12 11 11 11 11 11 10 8 8 7 8 9 9 10 10 10 10 10 11
32 33 33 32 31 31 32 33 33 30 27 33 40 38 35 33 31 27 25 23 22 19 18 16 15 14 13 13 12 13 13 11 10 9 8 9 9 10 10 11 12 12 13
35 34 35 35 33 32 33 34 34 33 32 28 31 37 41 39 37 33 30 27 25 24 22 20 18 16 16 15 14 13 15 14 13 12 10 9 9 10 11 12 12 13 14
38 38 38 38 36 35 34 34 35 37 37 37 36 34 38 42 41 40 35 33 29 28 26 24 22 19 18 18 17 16 16 16 15 14 14 13 12 12 12 13 13 13 14
42 40 40 41 39 35 35 35 34 37 39 38 39 37 37 39 44 42 42 37 34 31 30 27 26 24 21 20 20 19 18 17 17 17 17 17 16 15 15 15 15 15 15
45 46 36 37 37 40 37 36 35 36 38 42 40 39 40 40 40 43 42 43 37 37 35 32 30 28 25 24 23 22 22 20 19 18 19 19 19 19 17 17 16 16 17
48 46 47 40 37 37 39 38 39 38 38 39 40 38 38 38 40 43 43 45 43 37 39 38 34 31 29 28 27 25 25 23 22 21 21 21 21 21 21 19 19 18 18
50 49 48 50 45 41 37 37 38 37 38 40 42 39 38 37 39 39 43 45 47 39 39 41 38 35 33 31 31 29 28 26 25 24 23 23 23 24 23 23 22 21 20
55 53 52 51 52 48 49 48 47 44 41 40 41 40 42 41 40 39 41 46 47 44 39 40 41 40 38 35 34 33 31 29 28 27 26 26 25 25 25 25 24 26 24
58 58 57 53 55 54 49 48 46 47 46 44 41 41 44 41 40 40 40 44 48 47 43 42 43 43 42 39 38 35 35 33 31 30 29 28 27 27 27 27 27 28 28
62 60 60 58 55 57 50 49 48 49 47 46 43 44 42 39 40 42 40 44 47 48 48 45 46 47 45 43 41 38 36 35 34 32 31 30 29 29 29 29 29 29 30
64 64 63 61 58 55 52 52 52 52 50 49 47 46 45 44 44 45 46 44 48 49 48 49 48 52 51 47 44 42 40 38 38 36 34 33 32 31 32 32 32 32 32
66 67 64 61 59 57 54 55 56 56 54 54 53 49 46 48 42 44 45 46 45 51 51 53 50 50 53 49 47 46 43 41 39 39 37 36 36 35 35 35 35 35 36
66 68 67 62 60 56 53 54 55 58 58 57 56 53 51 49 50 48 49 52 51 55 53 55 59 60 62 58 48 46 46 43 39 40 40 39 39 38 38 39 38 39 40
65 68 67 65 60 55 55 57 57 60 58 59 59 56 55 51 50 51 51 57 56 55 45 52 56 63 49 50 49 48 49 45 43 41 43 43 42 41 41 41 41 42 44
68 68 67 62 58 55 54 54 59 59 58 58 58 57 55 51 51 53 56 53 61 62 62 63 60 54 62 63 66 51 53 46 45 46 45 46 43 44 44 45 44 44 46
66 66 60 58 56 53 54 53 56 56 56 57 57 55 54 53 52 56 59 55 56 62 60 59 64 61 61 51 53 52 55 49 50 49 48 46 45 45 47 45 45 47 49
60 59 53 52 54 56 56 53 54 55 53 54 53 52 55 51 51 53 57 56 54 59 58 60 71 70 62 57 54 54 58 53 51 50 49 48 46 46 48 47 49 53 57
51 52 49 48 53 51 49 49 52 53 52 50 46 50 48 46 47 39 42 48 55 57 70 59 65 70 66 58 61 58 59 59 52 54 52 51 51 52 52 54 55 61 56
43 42 44 45 46 46 42 45 46 47 41 43 43 45 43 44 43 39 38 40 46 61 65 73 73 63 64 58 58 60 60 58 59 58 59 57 57 58 59 61 58 64 63
28 34 38 35 37 36 37 34 33 35 39 38 40 42 39 34 28 36 37 35 48 58 60 64 77 74 65 67 58 59 64 68 72 67 63 62 54 49 44 40 35 36 42
17 19 21 26 30 32 33 32 35 35 33 32 34 32 29 29 20 24 39 42 45 53 61 68 68 74 74 83 85 86 82 67 56 49 43 41 42 37 37 38 41 47 50

GFSSE_500_spd_099.txt.gz
Wind_Speed
18 17 15 16 20 31 30 28 25 23 21 19 18 16 14 12 11 9 8 5 4 4 4 3 3 1 2 5 9 8 6 5 4 4 5 7 9 9 9 8 9 9 11
20 19 19 19 18 19 26 35 30 28 26 23 21 19 18 15 12 12 11 9 6 5 6 5 6 3 3 4 7 9 7 5 5 4 5 7 8 9 10 9 9 9 9
23 22 21 21 21 21 20 22 33 34 31 28 26 24 22 19 17 14 13 12 10 7 6 7 7 6 4 5 6 7 8 6 5 6 5 6 8 9 10 11 10 10 10
26 25 24 26 26 25 24 23 22 25 35 33 30 28 26 24 22 19 16 14 13 11 9 10 10 9 8 7 7 7 8 8 6 6 7 7 8 9 10 11 11 11 11
29 28 27 26 26 27 26 26 25 24 22 28 35 33 32 29 27 23 21 19 16 15 13 13 12 12 11 10 9 9 8 10 9 8 7 8 9 10 10 10 11 11 12
32 31 31 29 28 28 28 28 27 28 28 28 25 31 35 34 31 29 26 24 22 19 17 15 15 15 13 12 12 12 12 10 11 11 8 8 9 10 11 11 12 12 13
35 35 34 34 32 30 29 29 30 30 30 30 32 29 32 35 37 34 32 30 26 24 21 20 18 18 17 16 15 14 14 14 13 13 12 11 11 10 11 13 13 13 13
39 37 35 37 36 33 32 32 32 33 33 32 32 33 34 31 35 38 37 35 33 29 26 24 23 22 21 19 18 17 17 17 16 15 15 14 15 14 13 14 14 15 15
42 41 39 37 38 37 36 34 36 35 36 36 35 35 34 35 35 33 36 38 37 36 32 29 27 26 25 24 22 21 20 20 19 19 18 17 17 18 16 16 15 15 16
45 45 42 41 38 39 39 40 39 39 38 38 38 38 38 37 36 37 36 36 39 38 37 34 31 30 29 28 26 25 24 23 22 22 21 20 19 19 20 19 18 17 17
48 48 47 44 42 42 39 40 41 42 41 41 41 40 39 40 40 39 38 38 39 39 39 39 37 33 33 32 31 29 28 27 26 25 24 23 22 21 21 22 22 20 20
51 51 50 48 47 44 43 42 35 40 45 44 43 42 41 41 41 39 38 38 39 39 40 39 40 37 34 35 35 34 31 31 30 28 27 26 25 24 23 23 24 24 23
51 53 54 52 50 48 48 45 46 42 43 41 40 40 41 41 43 42 39 38 38 38 39 40 41 40 39 38 38 38 37 35 34 32 30 29 28 26 25 25 26 26 26
49 51 55 56 54 52 52 53 53 48 46 43 43 47 41 44 45 44 43 42 40 42 41 41 42 43 42 40 40 41 41 40 37 35 33 32 30 29 28 27 27 28 29
43 48 51 55 58 57 53 56 52 53 52 50 49 48 47 46 49 45 47 46 44 44 42 41 42 44 46 44 42 43 43 43 42 39 36 35 33 32 30 30 30 30 30
51 47 49 54 56 59 58 56 55 56 53 52 51 51 50 50 48 47 44 45 43 43 44 43 44 43 47 49 47 46 45 44 44 44 41 38 36 34 34 34 34 33 32
57 56 52 49 55 57 59 57 57 59 59 57 55 53 55 51 53 49 45 46 45 45 46 47 44 42 48 51 53 50 48 46 47 46 44 41 39 38 37 37 36 36 35
64 63 59 55 50 54 59 59 60 61 59 59 60 60 59 59 55 53 49 46 48 46 45 44 40 41 51 51 53 49 51 50 51 48 47 45 42 40 39 40 38 38 38
67 66 64 60 56 52 57 60 59 60 61 60 59 61 63 61 60 57 55 53 50 51 49 46 49 53 54 57 56 58 56 55 55 50 48 46 46 42 41 43 42 41 41
71 68 66 63 61 57 53 57 59 58 60 60 61 62 62 61 62 61 57 56 54 50 50 49 51 55 59 63 63 63 65 64 65 49 41 47 47 45 44 45 44 43 43
71 68 66 65 63 59 53 52 57 59 60 59 59 61 61 61 62 62 60 57 54 50 50 53 54 57 59 62 57 55 57 57 52 49 63 54 52 49 46 46 45 46 44
73 69 65 63 60 57 55 53 54 56 56 55 59 59 58 60 60 60 58 57 54 53 54 57 57 60 57 68 66 60 53 52 53 59 57 51 52 50 50 48 45 44 46
60 67 63 59 61 57 55 52 50 51 50 51 54 56 56 55 56 56 57 55 52 55 57 56 61 60 55 61 64 65 63 59 52 51 53 54 57 52 50 48 50 50 54
33 38 41 47 48 48 45 46 45 43 43 45 50 54 55 54 54 52 53 52 53 54 54 53 40 45 50 58 59 61 60 65 72 71 67 60 58 58 57 55 56 56 57
24 30 36 41 45 39 40 39 36 37 38 40 45 48 46 48 50 50 52 52 53 50 52 41 41 46 41 45 64 61 59 57 62 74 69 64 65 66 60 54 48 56 57
17 25 27 27 34 30 28 30 28 28 29 33 37 40 43 41 44 41 48 49 41 40 39 42 44 47 49 53 56 61 63 69 65 60 61 59 52 52 47 45 43 40 37

GFSSE_500_spd_102.txt.gz
Wind_Speed
15 14 14 14 14 19 27 28 25 23 22 19 18 16 15 14 12 11 10 8 5 4 2 3 5 2 2 3 6 7 5 5 5 4 5 8 10 10 10 10 10 10 10
20 19 17 15 16 14 16 24 29 29 27 25 23 20 18 17 14 12 12 12 9 6 5 4 6 5 3 4 4 5 5 4 6 5 5 6 8 9 10 10 11 11 12
23 21 21 18 18 17 15 16 17 24 32 30 27 25 23 21 20 16 14 14 13 10 8 8 6 7 6 6 6 6 5 5 5 5 5 6 7 8 10 10 10 11 11
26 26 24 21 21 20 20 19 18 18 18 24 32 30 28 25 24 22 19 16 15 14 12 10 10 9 9 8 8 8 8 7 6 6 6 7 8 9 9 10 11 10 11
28 28 28 26 25 24 24 24 21 21 20 20 19 28 32 30 29 26 24 22 19 16 16 15 13 12 12 11 11 11 10 10 10 8 8 8 9 10 10 10 10 11 12
32 32 31 30 29 27 26 24 23 24 23 24 23 24 24 31 34 32 29 27 24 21 19 18 17 15 14 14 14 13 13 12 12 12 11 11 10 10 10 11 11 11 12
36 35 34 32 32 30 29 28 28 27 27 27 26 25 27 27 31 34 36 32 29 27 24 23 21 20 18 17 17 17 16 16 15 15 15 14 14 13 12 12 12 13 13
39 39 39 35 34 34 34 33 32 31 31 30 29 29 27 28 30 31 36 37 36 33 31 29 26 25 23 21 21 20 20 19 19 18 17 17 16 17 17 16 15 14 14
43 43 43 41 39 37 36 36 37 36 36 36 35 33 33 32 30 30 31 32 36 40 36 34 33 30 28 27 25 24 24 23 22 21 21 20 19 19 19 19 19 18 17
45 46 47 47 44 42 39 39 40 41 40 39 38 38 37 35 35 34 33 35 34 32 36 37 36 35 34 31 30 28 28 27 27 26 24 23 22 22 21 21 22 22 21
47 47 48 49 48 46 46 42 41 43 44 43 42 42 41 38 39 38 36 36 37 37 35 36 37 37 38 36 34 34 32 31 31 30 29 27 26 25 24 23 23 24 24
48 49 50 50 50 50 49 47 46 41 44 44 44 45 42 41 41 42 41 39 40 39 39 38 39 38 39 39 39 37 37 36 35 34 33 32 30 28 27 26 26 26 26
40 44 50 53 53 52 51 51 50 50 46 45 42 42 43 43 42 41 41 42 40 40 41 40 40 40 40 42 42 41 40 40 39 38 37 36 34 31 30 29 29 28 28
42 44 44 46 54 55 54 52 53 54 50 42 48 44 41 45 45 42 42 43 41 44 44 40 41 40 40 42 44 45 44 42 42 41 40 40 38 36 33 31 31 30 30
46 44 45 45 46 52 57 55 55 55 56 55 49 49 50 48 46 46 45 43 45 42 44 46 45 43 41 41 44 46 46 46 44 43 44 43 42 40 38 35 34 33 32
54 52 51 48 50 47 51 56 55 57 58 60 59 56 54 53 52 52 48 48 48 49 47 48 47 46 45 44 42 46 49 48 48 45 44 46 45 44 42 41 38 36 35
59 60 57 56 53 54 51 50 55 56 58 60 62 61 60 58 57 54 53 52 50 48 45 44 47 47 47 46 45 44 44 50 50 48 49 46 48 48 46 44 42 40 38
66 64 64 62 60 57 57 55 51 55 58 60 63 64 64 64 61 59 56 56 54 51 49 46 46 48 49 47 45 47 46 46 48 54 52 52 51 51 49 47 45 43 42
71 71 69 67 67 65 61 59 58 52 55 58 59 62 62 65 66 65 62 60 59 55 53 52 49 48 50 46 46 47 50 52 49 48 51 51 53 53 52 51 49 46 46
76 75 73 73 69 68 65 62 62 57 52 52 58 62 65 67 69 67 65 63 62 59 57 56 54 52 52 53 52 49 55 57 58 55 54 60 54 51 56 52 53 49 48
82 78 77 73 70 69 66 63 65 59 55 52 55 61 63 64 65 66 66 63 60 62 61 59 56 56 56 55 56 57 57 59 64 66 61 58 63 66 62 51 49 52 50
79 80 82 79 76 71 65 63 63 63 57 56 53 56 61 62 60 63 63 62 61 60 61 61 56 56 57 57 56 61 61 63 58 60 60 55 52 65 55 59 57 60 54
47 52 57 66 67 64 64 62 60 58 58 54 55 55 56 59 60 60 61 61 61 63 62 62 57 56 56 57 60 61 65 62 63 61 63 58 53 53 54 65 68 57 55
29 33 34 30 37 42 52 59 57 58 56 57 54 52 53 52 55 58 59 61 61 59 59 58 55 56 57 58 60 57 58 55 56 61 61 64 61 59 56 66 51 55 59
10 16 16 16 22 23 32 49 49 49 50 49 48 50 47 48 50 54 58 60 59 57 52 53 54 56 57 58 58 56 50 47 49 52 55 56 56 57 57 64 70 70 64
6 9 8 15 12 15 18 31 35 32 35 39 40 43 43 44 47 51 52 53 54 55 54 54 55 57 60 56 55 49 46 41 38 45 49 47 54 61 65 67 72 73 65

GFSSE_500_spd_105.txt.gz
Wind_Speed
16 15 13 14 14 15 20 26 26 23 22 21 20 18 16 14 13 12 12 11 8 8 5 4 6 5 3 3 3 4 5 3 3 3 4 5 6 7 8 8 9 9 10
19 18 18 16 15 16 14 15 22 26 26 24 23 21 20 18 16 14 13 13 12 10 9 7 7 8 6 5 5 4 5 4 3 3 3 4 6 7 8 9 10 10 9
22 21 21 20 18 18 16 15 14 13 16 23 28 26 25 23 20 19 17 15 14 14 12 11 9 9 9 8 7 7 6 5 5 4 4 4 5 7 8 9 10 10 10
25 25 24 22 21 20 20 19 18 16 16 15 15 23 28 27 25 23 21 19 17 16 16 14 12 12 11 11 10 9 9 8 7 6 6 6 5 6 8 9 9 10 10
28 28 27 25 24 24 22 22 21 20 20 19 18 17 18 26 29 28 27 24 22 20 18 18 16 15 14 13 13 13 12 11 11 10 9 8 7 7 8 9 8 9 10
33 32 31 28 27 27 26 25 24 23 24 23 21 21 21 22 22 28 31 30 27 26 24 21 19 19 18 17 16 16 16 15 14 13 13 12 11 11 9 9 10 10 10
37 36 36 34 32 31 30 28 28 28 28 27 26 24 25 24 25 25 26 32 33 31 29 27 25 23 21 21 20 19 19 19 18 17 16 15 15 15 14 13 12 12 12
38 40 40 39 37 35 34 33 32 32 33 32 30 28 27 26 26 26 27 28 29 35 35 32 30 29 27 25 25 23 22 22 22 21 20 19 19 18 18 18 17 16 15
42 42 42 41 41 40 39 37 37 36 36 36 35 34 32 30 30 28 27 28 29 29 31 37 37 34 32 31 29 28 27 26 25 25 24 23 23 22 21 21 21 21 20
45 45 45 45 43 44 43 42 41 41 41 40 38 38 36 38 35 33 31 31 31 32 35 36 34 38 38 36 35 33 32 31 30 29 28 28 27 26 25 24 24 23 23
47 47 48 48 47 47 45 46 46 46 45 45 44 43 42 42 41 38 37 35 34 36 35 38 37 35 37 39 38 38 37 35 34 33 32 32 31 30 29 27 27 26 26
34 40 47 50 50 50 49 48 48 50 50 49 47 48 46 46 45 43 41 40 38 37 39 40 42 41 40 39 41 40 40 39 38 36 36 36 35 33 33 32 31 29 28
31 33 37 40 42 47 53 53 51 50 52 52 51 51 47 44 44 45 47 45 40 38 39 39 41 42 42 41 40 42 42 41 41 40 39 39 38 38 36 35 35 34 32
35 35 37 36 37 42 45 46 52 54 53 54 56 54 50 48 48 42 43 40 42 41 38 39 39 41 42 42 42 42 44 44 44 44 44 43 41 40 39 39 38 37 36
43 43 44 43 43 42 42 44 47 49 53 57 56 56 55 49 42 48 46 45 42 44 41 41 40 39 39 41 41 41 41 42 46 47 47 46 45 42 42 41 41 40 39
50 50 50 50 50 49 48 47 47 48 50 53 57 58 56 55 56 49 51 48 48 44 43 43 44 44 45 43 45 44 44 44 44 47 47 47 48 46 43 42 43 43 42
58 58 58 58 56 55 56 55 52 50 51 53 55 57 60 59 61 62 56 55 54 55 52 49 46 48 46 46 41 45 44 44 45 46 47 49 47 47 46 45 43 45 45
66 67 67 66 65 64 62 61 59 56 54 54 56 55 59 61 63 64 63 63 63 60 57 56 51 50 48 44 44 45 46 47 47 46 45 39 44 48 49 47 46 45 47
66 68 70 72 71 70 69 67 65 64 59 56 55 58 55 58 63 66 67 65 64 64 63 60 57 54 51 52 50 51 52 51 46 47 49 47 48 48 51 50 48 48 48
70 71 72 73 74 74 73 71 70 68 65 61 58 55 60 57 58 64 64 66 66 68 68 65 61 59 57 57 57 57 56 53 51 51 49 52 49 48 47 48 50 51 51
79 81 81 80 79 78 77 75 72 70 68 65 63 58 57 61 60 57 62 67 66 67 69 67 66 62 60 61 62 62 61 59 58 53 54 54 53 58 60 58 53 47 49
85 87 89 89 88 86 81 76 75 72 70 68 64 60 58 59 61 60 59 61 65 64 66 66 66 64 61 58 59 60 63 62 61 57 56 56 60 58 57 60 62 62 59
56 52 54 61 63 73 76 74 68 71 65 66 66 62 59 57 58 59 58 58 58 64 63 62 63 62 60 60 60 60 59 60 60 60 60 60 63 63 63 60 61 59 54
33 31 34 31 33 34 37 41 42 59 64 62 63 58 57 56 59 59 57 56 56 57 60 60 58 59 59 59 60 60 58 57 58 61 60 60 61 63 63 62 60 61 57
24 23 18 14 15 19 23 26 38 41 44 51 50 58 57 56 57 57 58 54 54 55 58 60 60 58 56 56 58 56 56 56 58 61 60 60 55 56 55 57 55 60 58
17 14 5 6 13 11 17 23 28 33 36 35 42 45 45 49 52 52 52 53 53 55 57 56 55 53 54 55 57 56 58 55 57 60 60 55 49 39 35 35 41 45 54

GFSSE_500_spd_108.txt.gz
Wind_Speed
14 14 15 14 13 14 12 16 21 23 21 19 18 18 16 15 13 12 11 11 11 9 8 7 9 8 5 5 4 3 4 3 3 2 2 3 4 5 5 6 7 8 8
16 17 17 16 16 16 15 14 12 16 23 23 21 21 20 19 16 15 14 12 13 12 11 10 9 11 9 7 7 6 3 4 4 4 4 4 3 4 5 6 6 7 8
19 20 19 18 18 19 18 17 15 12 11 15 22 25 24 23 21 19 17 16 15 14 14 13 12 11 12 11 9 9 8 5 4 4 5 6 5 4 5 5 7 7 7
23 23 22 21 20 20 20 19 19 18 16 15 14 15 22 25 25 24 22 20 19 18 17 16 15 15 14 13 13 11 11 10 8 7 6 6 6 6 5 6 7 7 8
27 26 26 24 23 22 20 21 20 20 20 20 19 17 16 18 21 25 26 25 23 22 21 18 17 18 17 17 16 15 14 13 12 12 10 9 8 8 7 7 7 8 8
30 30 30 28 26 26 24 24 23 23 23 23 22 21 21 21 20 19 21 28 28 27 24 24 22 20 20 20 19 18 17 17 16 15 15 14 13 13 12 11 10 10 10
34 33 33 33 32 30 29 29 28 28 26 26 27 25 23 23 23 23 24 24 24 29 30 28 27 26 24 23 22 21 21 20 19 19 19 18 17 16 15 15 15 14 13
38 37 36 35 34 34 34 33 34 31 32 32 29 28 28 27 26 26 25 26 27 26 26 29 32 31 30 28 27 25 24 24 23 22 22 22 21 21 20 19 18 18 18
41 41 41 39 38 37 36 36 37 37 36 35 35 34 33 32 32 29 27 28 26 25 28 29 27 32 35 32 31 31 30 29 28 26 25 26 24 24 24 23 23 22 21
44 43 43 43 42 42 40 38 39 39 40 40 38 37 39 38 37 35 33 32 31 30 29 31 29 29 29 31 37 36 35 34 33 31 30 30 28 28 27 27 26 26 26
43 44 45 45 46 45 45 42 42 42 43 43 43 43 42 42 42 41 40 38 38 36 34 34 33 33 30 30 30 34 39 39 37 36 34 34 32 32 31 30 30 30 29
31 32 34 36 39 42 44 45 46 46 46 46 46 47 47 46 45 44 45 44 43 42 41 38 36 35 35 34 34 35 36 36 39 40 39 38 36 35 34 33 33 33 32
27 28 29 31 32 34 36 37 38 41 43 48 49 49 50 50 49 48 45 47 47 46 44 42 39 38 37 37 36 36 37 35 36 40 41 41 41 40 38 37 36 35 35
34 35 35 35 35 35 35 35 36 37 38 40 43 48 52 52 51 51 49 46 45 43 42 40 40 41 39 40 38 37 37 37 37 37 39 42 43 43 43 42 39 37 36
42 42 42 43 42 42 41 41 42 41 41 41 39 40 44 47 52 53 52 54 47 50 45 44 41 40 38 37 38 36 33 37 37 37 37 39 42 45 45 45 43 40 38
46 47 48 48 49 50 49 48 49 48 47 46 45 44 45 45 47 48 53 51 52 45 46 46 41 42 40 40 42 41 39 40 41 43 42 40 42 44 46 45 45 42 42
54 55 57 58 57 57 58 56 56 55 53 52 53 52 50 48 49 49 49 53 55 57 59 43 50 45 44 45 44 45 44 44 46 44 44 43 41 42 45 46 45 45 43
61 63 64 65 66 65 66 65 63 63 61 58 58 58 56 54 53 52 52 53 57 60 62 62 59 56 54 55 49 44 46 46 45 48 45 43 44 41 44 45 39 45 45
63 65 67 70 70 71 71 71 70 69 68 66 64 63 62 60 58 56 56 55 56 58 59 63 64 63 63 62 56 52 49 48 49 48 48 49 49 44 43 43 43 43 45
64 66 69 70 72 73 74 75 74 72 70 68 67 65 66 65 61 59 58 57 57 57 57 59 62 64 64 64 64 58 59 56 53 56 55 54 54 47 46 46 47 45 47
70 73 76 77 80 81 81 80 79 77 74 72 68 67 63 63 60 56 62 60 59 57 57 58 59 60 63 65 67 65 65 65 63 61 61 59 58 55 52 49 48 49 50
69 72 75 80 84 88 92 92 88 84 78 73 69 70 70 69 66 62 61 61 59 57 58 59 59 58 59 63 65 66 66 66 64 61 59 58 57 58 59 56 53 51 52
60 59 57 55 50 51 57 60 65 72 71 68 60 66 70 70 71 64 62 60 57 57 55 58 60 60 57 59 62 64 64 64 63 60 57 55 55 57 57 59 56 57 56
34 32 32 31 32 29 29 29 31 36 36 40 47 45 57 62 67 65 62 61 59 56 56 57 57 58 60 58 60 61 61 61 61 61 58 55 56 56 55 57 58 60 60
16 21 23 18 18 17 11 9 12 19 28 38 43 51 50 57 58 59 60 58 57 55 56 57 56 58 61 61 58 58 57 56 57 58 57 55 54 55 57 56 56 59 61
22 21 20 13 12 8 2 3 3 10 20 22 29 35 43 51 52 55 60 58 56 57 59 59 59 60 61 60 57 56 55 54 54 55 57 55 56 55 53 51 57 55 54

GFSSE_500_spd_111.txt.gz
Wind_Speed
12 13 12 12 11 11 11 11 14 20 21 20 19 17 16 14 14 13 11 11 10 10 9 9 8 10 9 7 6 5 4 3 4 3 3 4 5 5 5 5 5 5 5
14 13 14 13 14 14 14 13 13 11 15 22 24 22 19 17 16 15 14 13 12 12 12 11 11 10 12 10 8 7 6 4 4 4 4 4 4 5 5 5 5 5 4
17 16 16 15 16 16 15 16 15 15 14 12 17 24 24 23 21 19 17 16 16 15 13 14 13 13 12 14 12 11 9 7 6 5 4 4 5 6 6 6 6 6 5
20 21 20 18 19 18 17 18 18 17 17 16 15 15 18 22 25 26 23 21 20 19 18 16 16 16 15 15 14 14 13 12 10 9 7 7 6 5 6 7 7 7 7
23 24 24 22 21 20 20 19 20 19 18 17 19 19 18 18 18 22 27 28 26 23 21 20 19 18 18 18 17 16 16 15 14 13 12 10 10 9 8 8 7 7 7
26 26 26 25 25 24 24 23 22 21 22 21 22 21 18 19 19 20 21 20 24 29 28 25 22 23 21 20 20 19 19 18 18 17 16 14 14 14 14 13 12 11 10
30 29 29 29 30 28 28 28 27 27 26 26 26 25 23 21 20 21 22 23 24 24 25 29 27 26 26 25 24 23 22 22 21 20 19 19 19 17 17 17 17 17 16
35 33 33 33 33 32 32 31 31 30 31 30 30 30 28 27 25 24 25 25 25 25 25 25 24 27 31 29 28 28 27 26 25 24 23 22 22 22 21 21 20 20 20
39 39 38 37 37 37 36 35 35 34 33 33 33 35 34 33 31 30 29 29 28 26 26 26 25 23 25 26 32 34 32 30 29 28 28 27 25 25 25 25 24 24 23
43 43 43 42 41 41 40 40 39 38 37 35 35 37 37 37 36 36 34 34 32 31 31 31 30 28 26 26 27 27 30 35 34 33 32 32 30 29 28 28 27 27 27
36 38 40 42 42 42 43 44 44 43 41 40 40 39 41 41 41 42 38 39 38 38 37 36 34 33 33 32 31 29 29 28 28 33 36 35 35 34 33 32 31 30 29
28 29 31 32 32 32 33 34 36 38 41 44 45 44 43 45 47 46 46 44 43 42 42 42 41 39 38 37 35 33 34 33 31 32 32 35 37 37 37 36 35 34 33
28 28 29 29 29 29 29 30 31 33 33 34 36 40 44 47 47 47 48 49 49 47 45 45 45 43 43 42 37 36 36 36 34 32 33 34 35 38 39 39 39 38 37
33 34 34 35 35 35 35 34 34 34 34 34 34 34 35 38 43 46 47 49 50 49 50 48 46 45 42 41 41 41 39 39 38 36 33 35 37 37 39 40 41 40 40
40 41 41 41 42 42 42 43 43 43 42 41 41 40 38 38 38 39 39 43 45 50 51 49 50 48 46 45 40 38 38 37 35 35 35 35 36 37 36 38 39 41 42
43 45 46 47 47 48 48 49 49 51 51 50 49 48 47 46 44 44 43 43 42 44 47 49 48 48 47 48 46 43 39 38 38 38 39 37 38 41 42 41 41 42 42
49 51 52 54 55 56 57 58 59 58 59 59 57 56 56 54 52 51 50 49 47 46 46 45 48 46 43 41 48 42 42 41 42 42 44 45 44 43 43 44 42 41 40
55 56 58 60 62 64 65 65 66 67 65 64 64 65 64 61 61 60 57 55 55 53 49 48 48 52 53 55 54 48 48 49 48 43 43 45 47 46 43 41 40 39 39
58 59 61 63 66 68 70 71 72 73 72 70 70 69 69 67 64 63 62 54 56 58 57 54 52 50 52 55 59 63 61 59 58 55 55 54 51 48 45 42 42 41 39
54 58 61 64 67 69 71 73 74 75 74 74 74 73 70 69 64 64 63 61 58 56 59 61 57 56 53 52 55 58 61 64 64 65 63 60 57 56 53 51 48 48 45
59 63 67 71 75 76 78 78 80 81 82 80 78 75 72 67 68 63 66 67 63 63 65 62 61 57 55 55 56 53 54 54 59 65 65 67 64 61 61 59 55 54 52
56 60 64 69 74 78 79 80 81 82 82 84 82 81 76 62 65 65 64 64 58 58 60 56 59 62 58 55 56 58 55 53 52 56 63 65 66 68 65 62 60 55 54
47 40 37 39 41 40 39 43 47 51 54 59 61 67 73 74 60 59 63 64 66 61 63 62 59 58 60 58 56 59 59 56 55 55 59 63 64 66 67 65 61 56 53
26 27 29 30 27 28 32 32 30 29 32 35 35 41 47 48 56 64 58 63 65 61 64 66 62 61 58 57 57 58 59 59 58 57 56 58 62 62 62 63 60 57 55
18 21 25 23 22 23 24 21 14 14 13 15 17 25 33 43 47 47 58 58 60 65 63 61 64 64 62 61 58 59 62 63 61 63 61 58 59 59 61 62 60 57 58
23 19 18 16 20 23 25 20 14 12 9 9 14 28 28 35 32 33 42 45 48 52 54 57 58 62 61 59 62 63 63 65 62 64 65 58 55 53 53 56 54 53 56

GFSSE_500_spd_114.txt.gz
Wind_Speed
10 10 10 10 10 9 9 9 10 11 17 20 20 19 17 16 15 13 11 10 10 11 10 9 8 9 11 10 9 6 5 4 4 3 3 5 6 7 7 7 7 6 6
13 13 12 12 12 12 11 12 11 11 11 13 19 22 22 20 20 18 16 14 12 12 11 12 11 10 10 12 12 9 8 7 5 4 4 3 4 5 6 7 7 7 7
17 16 15 15 14 13 13 14 14 14 13 13 13 15 20 24 23 23 21 19 18 16 15 14 13 13 13 12 13 13 11 10 9 7 6 6 6 5 4 5 6 6 6
18 18 18 18 17 16 16 16 16 15 16 16 17 16 16 16 18 23 25 25 23 21 20 18 17 15 15 16 14 14 14 13 13 12 10 9 9 8 7 7 6 5 5
21 21 20 20 20 19 19 18 19 18 16 17 17 18 19 18 18 18 18 21 25 27 25 23 22 19 19 17 18 17 16 16 16 15 14 13 13 12 11 11 10 10 9
23 23 23 22 23 22 21 21 22 21 21 20 20 20 19 19 20 21 21 21 20 21 24 28 28 25 23 22 21 20 20 19 19 20 18 17 16 15 15 15 15 15 14
26 27 27 26 25 26 26 25 25 26 25 25 25 23 23 22 23 23 23 23 23 24 24 23 23 28 29 27 25 24 23 23 22 22 23 21 21 19 18 18 18 17 18
32 31 31 32 32 31 30 30 29 29 30 29 28 28 28 28 28 27 26 26 25 25 24 25 23 24 25 29 32 30 28 27 26 26 26 25 25 24 23 22 21 21 21
36 36 37 36 36 36 35 35 34 34 34 33 33 33 33 32 31 30 30 31 30 29 28 27 25 25 24 25 27 29 33 35 32 30 29 29 28 28 27 26 25 24 24
41 41 40 41 41 41 41 41 40 38 37 37 37 36 37 37 37 36 35 34 34 34 33 32 31 30 29 28 28 28 29 30 32 36 36 34 32 31 31 31 30 29 28
34 36 36 36 36 37 39 39 40 42 42 40 40 39 39 40 41 42 41 40 40 39 36 35 36 36 35 34 34 32 32 32 31 33 34 37 37 36 35 34 33 33 33
25 27 29 29 29 29 30 31 32 33 34 36 36 36 38 41 43 46 46 46 44 47 44 42 42 41 40 40 39 38 36 35 34 34 34 35 36 37 38 38 37 36 35
28 28 29 30 30 29 29 29 30 30 31 32 33 34 33 35 38 42 46 49 49 48 48 48 47 46 46 44 43 41 40 39 38 37 37 37 38 37 38 38 38 39 38
30 32 33 34 35 36 37 36 36 36 37 36 36 35 35 35 35 37 39 41 45 47 49 49 49 48 48 49 48 44 42 41 42 43 40 38 40 39 38 39 39 39 39
37 38 39 40 41 42 43 43 43 44 44 44 44 44 44 44 43 42 42 40 39 40 43 43 46 45 47 48 49 48 46 44 42 41 41 39 39 40 40 40 40 39 38
40 42 43 44 45 46 48 49 50 51 51 51 51 51 51 51 51 51 49 48 45 45 44 43 45 41 46 44 44 45 47 49 48 46 42 40 40 41 41 39 40 40 41
44 46 47 49 51 53 54 55 57 58 58 59 60 60 60 60 61 59 58 57 55 52 51 49 49 47 43 45 43 44 43 45 48 45 43 41 43 42 43 45 43 42 42
49 50 53 56 58 59 61 63 64 65 67 67 67 68 68 67 67 67 65 64 64 62 59 57 56 54 52 49 50 52 51 47 45 47 47 45 44 44 41 42 42 42 43
49 51 53 56 59 60 62 65 68 69 71 73 75 74 75 75 72 71 70 67 66 59 60 64 63 61 60 56 55 53 54 56 58 59 56 56 51 52 54 52 50 48 48
45 48 51 54 58 61 64 67 69 72 74 75 76 78 79 78 77 76 71 65 61 62 61 61 59 57 57 59 60 58 55 55 56 58 58 62 65 65 62 61 59 56 56
49 53 56 58 60 62 64 66 69 72 76 79 82 83 83 83 81 78 75 68 57 62 61 58 61 63 62 60 57 60 61 57 56 54 54 55 58 59 62 66 67 64 61
51 49 47 50 44 45 48 49 48 51 52 51 58 65 70 74 79 80 76 71 65 62 66 68 65 64 63 64 68 65 63 60 56 54 55 55 54 56 58 59 63 67 65
36 42 41 34 39 43 40 40 42 43 46 50 52 53 49 55 61 66 63 65 63 64 53 66 65 64 65 62 60 63 59 59 60 56 57 56 56 56 56 59 62 63 65
37 28 20 25 21 23 29 34 33 34 31 31 32 32 31 32 37 42 57 58 50 52 65 57 66 63 65 64 67 61 61 63 64 63 60 59 58 56 58 59 62 63 64
21 25 25 21 24 24 26 26 27 27 25 26 20 15 17 19 22 31 42 50 57 52 57 54 51 54 59 65 61 61 65 69 68 67 62 60 61 60 60 64 65 65 64
21 22 21 21 25 25 22 19 17 18 18 19 16 19 21 17 19 21 28 41 46 55 67 52 53 62 65 64 65 62 65 64 69 70 69 64 66 64 62 62 66 65 64

GFSSE_500_spd_117.txt.gz
Wind_Speed
9 9 9 10 9 10 9 9 10 11 11 12 17 17 15 15 14 13 13 13 11 10 10 10 9 9 9 10 9 8 8 7 6 6 6 6 6 6 7 8 9 8 7
12 12 11 12 12 11 12 12 12 12 12 12 12 15 18 19 18 17 17 16 16 14 13 11 11 11 10 10 11 11 10 9 8 8 7 6 6 6 6 5 7 7 7
15 14 14 14 15 13 12 13 14 14 14 14 15 14 14 15 18 21 22 20 19 19 17 16 14 11 13 12 11 12 13 12 11 10 10 9 8 7 7 7 7 6 6
16 16 15 15 17 16 15 15 16 16 15 15 16 17 17 15 15 16 17 21 24 24 22 20 19 16 16 14 15 14 14 15 14 13 12 13 12 11 10 9 9 9 8
18 19 19 18 18 18 18 18 18 18 17 17 17 17 17 17 18 19 19 18 19 20 22 25 25 22 20 20 18 16 17 17 16 15 15 15 15 15 14 14 13 13 12
21 21 21 21 21 19 21 21 20 20 20 20 20 19 19 20 21 21 20 21 22 21 21 21 22 26 28 25 24 22 20 20 20 19 17 18 18 18 18 17 17 17 17
23 24 24 25 24 23 23 24 24 24 24 24 24 24 23 23 24 24 24 25 24 24 24 24 24 25 24 27 29 27 25 25 24 23 21 21 21 21 21 21 20 20 19
28 28 29 29 30 29 29 29 29 28 28 28 28 28 28 29 29 29 29 28 28 28 27 26 25 25 25 26 26 28 31 30 28 28 27 26 25 25 24 24 24 24 23
33 33 34 34 35 34 35 34 34 34 34 33 32 32 32 32 33 34 33 33 32 32 31 31 29 27 27 27 27 27 28 29 31 34 33 31 30 29 28 28 27 27 27
38 37 38 39 39 40 39 39 39 39 38 38 39 38 36 36 36 37 38 38 37 36 36 35 35 33 31 32 31 30 29 29 28 30 33 35 38 36 34 32 32 31 31
38 37 34 32 32 32 33 34 34 34 35 36 37 38 39 40 41 41 40 42 42 41 40 40 40 37 36 36 37 36 34 34 32 32 34 34 35 36 39 39 38 36 36
26 27 30 29 29 29 29 30 31 32 32 32 33 35 35 36 38 41 43 44 44 45 45 44 44 44 42 42 42 41 41 39 37 37 36 37 37 37 37 37 38 38 40
26 27 28 30 30 30 29 29 31 32 32 32 33 33 33 34 35 36 39 42 44 45 46 47 47 48 47 45 45 46 46 46 42 41 40 40 41 40 40 41 40 41 40
28 28 30 31 33 34 35 36 37 38 39 40 41 40 40 39 38 38 37 38 39 40 42 45 46 48 49 49 48 47 46 47 48 47 44 42 42 44 42 42 42 42 42
31 33 35 36 37 39 42 43 44 44 45 45 46 47 46 46 46 46 46 45 45 45 44 43 42 41 44 46 50 48 47 46 47 47 47 46 43 44 47 46 44 42 41
37 38 40 41 42 43 45 47 49 50 52 53 53 53 55 54 54 54 54 53 52 52 50 51 48 46 46 45 46 45 47 47 46 43 45 46 46 45 45 45 43 42 38
40 43 44 46 48 50 51 53 55 57 59 59 60 61 61 62 62 62 62 61 61 60 59 58 56 55 54 52 52 48 46 44 45 47 43 43 44 41 43 47 45 43 42
44 46 48 50 52 53 54 55 56 58 60 62 63 63 65 68 69 68 69 69 69 68 67 65 63 62 61 55 59 55 52 50 50 49 47 46 45 48 39 44 44 44 44
46 47 49 49 49 50 52 54 57 60 63 64 66 69 70 71 72 73 72 71 72 72 72 70 67 63 65 65 68 67 62 57 55 53 54 54 51 49 48 49 50 49 46
47 46 47 48 51 53 56 60 63 64 66 68 71 74 74 75 77 78 78 76 75 72 71 67 65 61 55 52 59 60 63 68 66 61 56 55 58 58 60 59 58 59 58
44 46 48 51 53 51 52 52 48 47 51 55 53 56 64 67 69 74 77 78 78 73 66 68 65 64 62 63 63 60 61 60 58 59 61 58 57 56 55 56 59 63 64
45 48 48 40 41 42 36 38 37 40 43 49 50 51 53 56 59 59 59 63 68 68 69 68 61 67 51 64 65 63 58 61 66 63 59 58 61 60 58 56 56 55 56
40 34 34 37 31 29 31 32 38 37 36 38 39 43 45 46 46 46 51 52 53 60 62 62 65 54 59 64 65 66 72 66 65 63 63 66 65 64 63 59 58 58 57
30 29 29 26 30 31 32 36 36 31 28 29 31 32 28 19 24 23 27 34 40 43 50 49 60 64 63 58 52 62 61 69 66 67 63 58 60 59 60 62 60 62 64
19 16 19 22 24 27 31 35 28 27 27 26 26 28 25 24 21 24 13 19 22 34 44 36 37 54 61 54 63 55 52 56 66 65 63 64 64 65 64 62 65 66 66
12 15 19 22 22 25 26 23 23 21 22 23 24 24 24 24 19 22 18 19 18 16 26 56 55 43 50 50 58 55 50 59 64 60 64 69 72 68 67 71 68 69 72